[[{"header":{"parameterUnit":"m.s-1","parameterCategory":1,"la1":30.6,"la2":28.766,"lo1":-90.7593,"lo2":-88.6598,"dy":0.0162,"dx":0.0183,"nx":116,"ny":114,"refTime":"2024-05-14T12:00:00:Z","depth":0,"parameterNumber":2,"parameterNumberName":"U-component_of_WINDS"},"data":[0.0,0.0,0.0,0.0,0.0,0.0,0.0,0.0,0.0,0.0,0.0,0.0,0.0,0.0,0.0,0.0,0.0,0.0,0.0,0.0,0.0,0.0,0.0,0.0,0.0,0.0,0.0,0.0,0.0,0.0,0.0,0.0,0.0,0.0,0.0,0.0,0.0,0.0,0.0,0.0,0.0,0.0,0.0,0.0,0.0,0.0,0.0,0.0,0.0,0.0,0.0,0.0,0.0,0.0,0.0,0.0,0.0,0.0,0.0,0.0,0.0,0.0,0.0,0.0,0.0,0.0,0.0,0.0,0.0,0.0,0.0,0.0,0.0,0.0,0.0,0.0,0.0,0.0,0.0,0.0,0.0,0.0,0.0,0.0,0.0,0.0,0.0,0.0,0.0,0.0,0.0,0.0,0.0,0.0,0.0,0.0,0.0,0.0,0.0,0.0,0.0,0.0,0.0,0.0,0.0,0.0,0.0,0.0,0.0,0.0,0.0,0.0,0.0,0.0,0.0,0.0,0.0,0.0,0.0,0.0,0.0,0.0,0.0,0.0,0.0,0.0,0.0,0.0,0.0,0.0,0.0,0.0,0.0,0.0,0.0,0.0,0.0,0.0,0.0,0.0,0.0,0.0,0.0,0.0,0.0,0.0,0.0,0.0,0.0,0.0,0.0,0.0,0.0,0.0,0.0,0.0,0.0,0.0,0.0,0.0,0.0,0.0,0.0,0.0,0.0,0.0,0.0,0.0,0.0,0.0,0.0,0.0,0.0,0.0,0.0,0.0,0.0,0.0,0.0,0.0,0.0,0.0,0.0,0.0,0.0,0.0,0.0,0.0,0.0,0.0,0.0,0.0,0.0,0.0,0.0,0.0,0.0,0.0,0.0,0.0,0.0,0.0,0.0,0.0,0.0,0.0,0.0,0.0,0.0,0.0,0.0,0.0,0.0,0.0,0.0,0.0,0.0,0.0,0.0,0.0,0.0,0.0,0.0,0.0,0.0,0.0,0.0,0.0,0.0,0.0,0.0,0.0,0.0,0.0,0.0,0.0,0.0,0.0,0.0,0.0,0.0,0.0,0.0,0.0,0.0,0.0,0.0,0.0,0.0,0.0,0.0,0.0,0.0,0.0,0.0,0.0,0.0,0.0,0.0,0.0,0.0,0.0,0.0,0.0,0.0,0.0,0.0,0.0,0.0,0.0,0.0,0.0,0.0,0.0,0.0,0.0,0.0,0.0,0.0,0.0,0.0,0.0,0.0,0.0,0.0,0.0,0.0,0.0,0.0,0.0,0.0,0.0,0.0,0.0,0.0,0.0,0.0,0.0,0.0,0.0,0.0,0.0,0.0,0.0,0.0,0.0,0.0,0.0,0.0,0.0,0.0,0.0,0.0,0.0,0.0,0.0,0.0,0.0,0.0,0.0,0.0,0.0,0.0,0.0,0.0,0.0,0.0,0.0,0.0,0.0,0.0,0.0,0.0,0.0,0.0,0.0,0.0,0.0,0.0,0.0,0.0,0.0,0.0,0.0,0.0,0.0,0.0,0.0,0.0,0.0,0.0,0.0,0.0,0.0,0.0,0.0,0.0,0.0,0.0,0.0,0.0,0.0,0.0,0.0,0.0,0.0,0.0,0.0,0.0,0.0,0.0,0.0,0.0,0.0,0.0,0.0,0.0,0.0,0.0,0.0,0.0,0.0,0.0,0.0,0.0,0.0,0.0,0.0,0.0,0.0,0.0,0.0,0.0,0.0,0.0,0.0,0.0,0.0,0.0,0.0,0.0,0.0,0.0,0.0,0.0,0.0,0.0,0.0,0.0,0.0,0.0,0.0,0.0,0.0,0.0,0.0,0.0,0.0,0.0,0.0,0.0,0.0,0.0,0.0,0.0,0.0,0.0,0.0,0.0,0.0,0.0,0.0,0.0,0.0,0.0,0.0,0.0,0.0,0.0,0.0,0.0,0.0,0.0,0.0,0.0,0.0,0.0,0.0,0.0,0.0,0.0,0.0,0.0,0.0,0.0,0.0,0.0,0.0,0.0,0.0,0.0,0.0,0.0,0.0,0.0,0.0,0.0,0.0,0.0,0.0,0.0,0.0,0.0,0.0,0.0,0.0,0.0,0.0,0.0,0.0,0.0,0.0,0.0,0.0,0.0,0.0,0.0,0.0,0.0,0.0,0.0,0.0,0.0,0.0,0.0,0.0,0.0,0.0,0.0,0.0,0.0,0.0,0.0,0.0,0.0,0.0,0.0,0.0,0.0,0.0,0.0,0.0,0.0,0.0,0.0,0.0,0.0,0.0,0.0,0.0,0.0,0.0,0.0,0.0,0.0,0.0,0.0,0.0,0.0,0.0,0.0,0.0,0.0,0.0,0.0,0.0,0.0,0.0,0.0,0.0,0.0,0.0,0.0,0.0,0.0,0.0,0.0,0.0,0.0,0.0,0.0,0.0,0.0,0.0,0.0,0.0,0.0,0.0,0.0,0.0,0.0,0.0,0.0,0.0,0.0,0.0,0.0,0.0,0.0,0.0,0.0,0.0,0.0,0.0,0.0,0.0,0.0,0.0,0.0,0.0,0.0,0.0,0.0,0.0,0.0,0.0,0.0,0.0,0.0,0.0,0.0,0.0,0.0,0.0,0.0,0.0,0.0,0.0,0.0,0.0,0.0,0.0,0.0,0.0,0.0,0.0,0.0,0.0,0.0,0.0,0.0,0.0,0.0,0.0,0.0,0.0,0.0,0.0,0.0,0.0,0.0,0.0,0.0,0.0,0.0,0.0,0.0,0.0,0.0,0.0,0.0,0.0,0.0,0.0,0.0,0.0,0.0,0.0,0.0,0.0,0.0,0.0,0.0,0.0,0.0,0.0,0.0,0.0,0.0,0.0,0.0,0.0,0.0,0.0,0.0,0.0,0.0,0.0,0.0,0.0,0.0,0.0,0.0,0.0,0.0,0.0,0.0,0.0,0.0,0.0,0.0,0.0,0.0,0.0,0.0,0.0,0.0,0.0,0.0,0.0,0.0,0.0,0.0,0.0,0.0,0.0,0.0,0.0,0.0,0.0,0.0,0.0,0.0,0.0,0.0,0.0,0.0,0.0,0.0,0.0,0.0,0.0,0.0,0.0,0.0,0.0,0.0,0.0,0.0,0.0,0.0,0.0,0.0,0.0,0.0,0.0,0.0,0.0,0.0,0.0,0.0,0.0,0.0,0.0,0.0,0.0,0.0,0.0,0.0,0.0,0.0,0.0,0.0,0.0,0.0,0.0,0.0,0.0,0.0,0.0,0.0,0.0,0.0,0.0,0.0,0.0,0.0,0.0,0.0,0.0,0.0,0.0,0.0,0.0,0.0,0.0,0.0,0.0,0.0,0.0,0.0,0.0,0.0,0.0,0.0,0.0,0.0,0.0,0.0,0.0,0.0,0.0,0.0,0.0,0.0,0.0,0.0,0.0,0.0,0.0,0.0,0.0,0.0,0.0,0.0,0.0,0.0,0.0,0.0,0.0,0.0,0.0,0.0,0.0,0.0,0.0,0.0,0.0,0.0,0.0,0.0,0.0,0.0,0.0,0.0,0.0,0.0,0.0,0.0,0.0,0.0,0.0,0.0,0.0,0.0,0.0,0.0,0.0,0.0,0.0,0.0,0.0,0.0,0.0,0.0,0.0,0.0,0.0,0.0,0.0,0.0,0.0,0.0,0.0,0.0,0.0,0.0,0.0,0.0,0.0,0.0,0.0,0.0,0.0,0.0,0.0,0.0,0.0,0.0,0.0,0.0,0.0,0.0,0.0,0.0,0.0,0.0,0.0,0.0,0.0,0.0,0.0,0.0,0.0,0.0,0.0,0.0,0.0,0.0,0.0,0.0,0.0,0.0,0.0,0.0,0.0,0.0,0.0,0.0,0.0,0.0,0.0,0.0,0.0,0.0,0.0,0.0,0.0,0.0,0.0,0.0,0.0,0.0,0.0,0.0,0.0,0.0,0.0,0.0,0.0,0.0,0.0,0.0,0.0,0.0,0.0,0.0,0.0,0.0,0.0,0.0,0.0,0.0,0.0,0.0,0.0,0.0,0.0,0.0,0.0,0.0,0.0,0.0,0.0,0.0,0.0,0.0,0.0,0.0,0.0,0.0,0.0,0.0,0.0,0.0,0.0,0.0,0.0,0.0,0.0,0.0,0.0,0.0,0.0,0.0,0.0,0.0,0.0,0.0,0.0,0.0,0.0,0.0,0.0,0.0,0.0,0.0,0.0,0.0,0.0,0.0,0.0,0.0,0.0,0.0,0.0,0.0,0.0,0.0,0.0,0.0,0.0,0.0,0.0,0.0,0.0,0.0,0.0,0.0,0.0,0.0,0.0,0.0,0.0,0.0,0.0,0.0,0.0,0.0,0.0,0.0,0.0,0.0,0.0,0.0,0.0,0.0,0.0,0.0,0.0,0.0,0.0,0.0,0.0,0.0,0.0,0.0,0.0,0.0,0.0,0.0,0.0,0.0,0.0,0.0,0.0,0.0,0.0,0.0,0.0,0.0,0.0,0.0,0.0,0.0,0.0,0.0,0.0,0.0,0.0,0.0,0.0,0.0,0.0,0.0,0.0,0.0,0.0,0.0,0.0,0.0,0.0,0.0,0.0,0.0,0.0,0.0,0.0,0.0,0.0,0.0,0.0,0.0,0.0,0.0,0.0,0.0,0.0,0.0,0.0,0.0,0.0,0.0,0.0,0.0,0.0,0.0,0.0,0.0,0.0,0.0,0.0,0.0,0.0,0.0,0.0,0.0,0.0,0.0,0.0,0.0,0.0,0.0,0.0,0.0,0.0,0.0,0.0,0.0,0.0,0.0,0.0,0.0,0.0,0.0,0.0,0.0,0.0,0.0,0.0,0.0,0.0,0.0,0.0,0.0,0.0,0.0,0.0,0.0,0.0,0.0,0.0,0.0,0.0,0.0,0.0,0.0,0.0,0.0,0.0,0.0,0.0,0.0,0.0,0.0,0.0,0.0,0.0,0.0,0.0,0.0,0.0,0.0,0.0,0.0,0.0,0.0,0.0,0.0,0.0,0.0,0.0,0.0,0.0,0.0,0.0,0.0,0.0,0.0,0.0,0.0,0.0,0.0,0.0,0.0,0.0,0.0,0.0,0.0,0.0,0.0,0.0,0.0,0.0,0.0,0.0,0.0,0.0,0.0,0.0,0.0,0.0,0.0,0.0,0.0,0.0,0.0,0.0,0.0,0.0,0.0,0.0,0.0,0.0,0.0,0.0,0.0,0.0,0.0,0.0,0.0,0.0,0.0,0.0,0.0,0.0,0.0,0.0,0.0,0.0,0.0,0.0,0.0,0.0,0.0,0.0,0.0,0.0,0.0,0.0,0.0,0.0,0.0,0.0,0.0,0.0,0.0,0.0,0.0,0.0,0.0,0.0,0.0,0.0,0.0,0.0,0.0,0.0,0.0,0.0,0.0,0.0,0.0,0.0,0.0,0.0,0.0,0.0,0.0,0.0,0.0,0.0,0.0,0.0,0.0,0.0,0.0,0.0,0.0,0.0,0.0,0.0,0.0,0.0,0.0,0.0,0.0,0.0,0.0,0.0,0.0,0.0,0.0,0.0,0.0,0.0,0.0,0.0,0.0,0.0,0.0,0.0,0.0,0.0,0.0,0.0,0.0,0.0,0.0,0.0,0.0,0.0,0.0,0.0,0.0,0.0,0.0,0.0,0.0,0.0,0.0,0.0,0.0,0.0,0.0,0.0,0.0,0.0,0.0,0.0,0.0,0.0,0.0,0.0,0.0,0.0,0.0,0.0,0.0,0.0,0.0,0.0,0.0,0.0,0.0,0.0,0.0,0.0,0.0,0.0,0.0,0.0,0.0,0.0,0.0,0.0,0.0,0.0,0.0,0.0,0.0,0.0,0.0,0.0,0.0,0.0,0.0,0.0,0.0,0.0,0.0,0.0,0.0,0.0,0.0,0.0,0.0,0.0,0.0,0.0,0.0,0.0,0.0,0.0,0.0,0.0,0.0,0.0,0.0,0.0,0.0,0.0,0.0,0.0,0.0,0.0,0.0,0.0,0.0,0.0,0.0,0.0,0.0,0.0,0.0,0.0,0.0,0.0,0.0,0.0,-2.5467,0.0,0.0,0.0,0.0,0.0,0.0,0.0,0.0,0.0,0.0,0.0,0.0,0.0,0.0,0.0,0.0,0.0,0.0,0.0,0.0,0.0,0.0,0.0,0.0,-2.4204,-2.4266,-2.4027,-2.3985,-2.3879,-2.3631,0.0,0.0,0.0,0.0,0.0,0.0,0.0,-2.4418,-2.5046,-2.4418,-2.4747,-2.6063,-2.6333,-2.5794,-2.4597,0.0,0.0,0.0,0.0,0.0,0.0,0.0,0.0,0.0,0.0,0.0,0.0,0.0,0.0,0.0,0.0,0.0,0.0,0.0,0.0,0.0,0.0,0.0,0.0,0.0,0.0,0.0,0.0,0.0,0.0,0.0,0.0,0.0,0.0,0.0,0.0,0.0,0.0,0.0,0.0,0.0,0.0,0.0,0.0,0.0,0.0,0.0,0.0,0.0,0.0,0.0,0.0,0.0,0.0,0.0,0.0,0.0,0.0,0.0,0.0,0.0,0.0,0.0,0.0,0.0,0.0,0.0,0.0,0.0,0.0,0.0,-2.7029,0.0,0.0,0.0,0.0,0.0,0.0,0.0,0.0,0.0,0.0,0.0,0.0,0.0,0.0,0.0,0.0,0.0,0.0,0.0,0.0,0.0,-2.4542,-2.4585,-2.4981,-2.5112,-2.4792,-2.4678,-2.4468,-2.4135,-2.4522,0.0,0.0,0.0,-2.5661,-2.5748,-2.5122,-2.5322,-2.6422,-2.589,-2.6602,-2.8483,-2.9951,-2.9445,-2.729,-2.6482,0.0,0.0,0.0,0.0,0.0,0.0,0.0,0.0,0.0,0.0,0.0,0.0,0.0,0.0,0.0,0.0,0.0,0.0,0.0,0.0,0.0,0.0,0.0,0.0,0.0,0.0,0.0,0.0,0.0,0.0,0.0,0.0,0.0,0.0,0.0,0.0,0.0,0.0,0.0,0.0,0.0,0.0,0.0,0.0,0.0,0.0,0.0,0.0,0.0,0.0,0.0,0.0,0.0,0.0,0.0,0.0,0.0,0.0,0.0,0.0,0.0,0.0,0.0,-3.5495,-3.5885,-3.6252,-3.5569,-3.5275,-3.5165,-3.3183,-3.1298,-2.9537,-2.8594,0.0,0.0,0.0,0.0,0.0,0.0,0.0,0.0,0.0,0.0,0.0,0.0,0.0,0.0,0.0,0.0,0.0,0.0,0.0,-2.5152,-2.5352,-2.5351,-2.56,-2.619,-2.572,-2.5637,-2.6099,-2.5728,-2.594,-2.6988,-2.6114,-2.584,-2.6368,-2.5773,-2.5555,-2.5734,-2.8427,-3.0462,-3.1898,-3.3814,-3.4532,-3.4023,-3.0013,-2.8816,-2.9654,0.0,0.0,0.0,0.0,0.0,0.0,0.0,0.0,0.0,0.0,0.0,0.0,0.0,0.0,0.0,0.0,0.0,0.0,0.0,0.0,0.0,0.0,0.0,0.0,0.0,0.0,0.0,0.0,0.0,0.0,0.0,0.0,0.0,0.0,0.0,0.0,0.0,0.0,0.0,0.0,0.0,-2.6319,-2.6522,0.0,0.0,0.0,0.0,0.0,0.0,0.0,0.0,0.0,0.0,0.0,0.0,0.0,-3.5004,-3.6684,-3.957,-4.0744,-4.0141,-4.2269,-4.258,-4.1332,-4.1222,-4.1185,-4.1148,-4.0855,0.0,-3.1995,-3.0491,0.0,0.0,0.0,0.0,0.0,0.0,0.0,0.0,0.0,0.0,0.0,0.0,0.0,0.0,0.0,0.0,0.0,0.0,0.0,0.0,0.0,-2.7727,-2.8169,-2.8104,-2.9757,-2.9918,-2.7775,-2.8625,-2.8683,-2.7501,-2.6977,-2.6838,-2.7096,-2.6862,-2.7619,-2.9505,-3.3155,-3.5429,-3.6384,-3.8063,-3.8811,-3.8691,-3.5908,-3.3544,-3.148,-2.8936,0.0,0.0,0.0,0.0,0.0,0.0,0.0,0.0,0.0,0.0,0.0,0.0,0.0,0.0,0.0,0.0,0.0,0.0,0.0,0.0,0.0,0.0,0.0,0.0,0.0,0.0,0.0,0.0,0.0,0.0,0.0,0.0,0.0,0.0,0.0,0.0,0.0,0.0,0.0,-2.7063,-2.8146,-2.686,-2.7841,-2.8112,0.0,0.0,0.0,0.0,0.0,0.0,0.0,0.0,0.0,-3.783,-3.8673,-3.99,-4.1515,-4.3864,-4.5058,-4.5168,-4.6214,-4.6617,-4.6397,-4.5883,-4.5663,-4.5663,-4.5663,-4.3534,-3.9827,-3.6413,-3.4174,-3.2729,0.0,0.0,0.0,0.0,-3.221,-3.2414,0.0,0.0,0.0,0.0,0.0,0.0,0.0,0.0,0.0,0.0,0.0,0.0,-2.8887,-3.0513,-3.144,-3.1288,-3.3527,-3.3632,-3.06,-3.0867,-3.0423,-2.8803,-2.8014,-2.7796,-2.8295,-2.8845,-3.0612,-3.3754,-3.7375,-3.9589,-4.0457,-4.1773,-4.2372,-4.2342,-4.1175,-3.8482,-3.4592,-3.1599,-2.9564,-2.8158,0.0,0.0,0.0,0.0,0.0,0.0,0.0,0.0,0.0,0.0,0.0,0.0,0.0,0.0,0.0,0.0,0.0,0.0,0.0,0.0,0.0,0.0,0.0,0.0,0.0,0.0,0.0,0.0,0.0,0.0,0.0,0.0,0.0,0.0,0.0,0.0,0.0,-2.8112,-2.9533,-2.7266,-2.9499,-3.0277,0.0,0.0,0.0,0.0,0.0,0.0,-3.6394,-3.7575,-3.9405,-4.2233,-4.3314,-4.4525,-4.5957,-4.7333,-4.8434,-4.926,-4.904,-4.937,-5.0198,-4.9334,-4.893,-4.893,-4.893,-4.8012,-4.6177,-4.1735,-3.8615,-3.6399,-3.4784,-3.416,-3.4311,-3.5536,-3.5712,-3.5686,0.0,0.0,0.0,0.0,0.0,0.0,0.0,0.0,0.0,0.0,0.0,-2.8651,-3.1052,-3.3224,-3.5075,-3.6489,-3.5621,-3.5149,-3.5482,-3.1305,-2.973,-3.1954,-2.9195,-2.8431,-3.0235,-3.2193,-3.4502,-3.7165,-3.9888,-4.1893,-4.321,-4.4496,-4.5095,-4.5065,-4.4377,-4.291,-4.0546,-3.4801,-3.2677,-3.2706,-2.7619,0.0,0.0,0.0,0.0,0.0,0.0,0.0,0.0,0.0,0.0,0.0,0.0,0.0,0.0,0.0,0.0,0.0,0.0,0.0,0.0,0.0,0.0,0.0,0.0,0.0,0.0,0.0,0.0,0.0,0.0,0.0,0.0,0.0,0.0,0.0,0.0,0.0,0.0,-2.8027,-3.163,0.0,0.0,0.0,0.0,-3.421,-3.5351,-3.7004,-3.929,-4.1251,-4.3355,-4.5572,-4.7168,-4.8416,-4.9353,-5.0178,-5.1022,-5.1793,-5.1059,-5.1096,-5.183,-5.1059,-5.0655,-5.0655,-5.0655,-4.9738,-4.7939,-4.4599,-4.2286,-4.0618,-3.9004,-3.8395,-3.8322,-3.7654,-3.7875,-3.8374,0.0,0.0,0.0,0.0,0.0,-2.4038,-2.3921,-2.533,-2.6574,-2.6957,-2.9158,-3.1773,-3.4589,-3.7287,-3.9492,-4.0988,-4.1612,-4.0955,-3.8751,-3.5347,-3.3329,-3.3142,-3.0401,-3.041,-3.3598,-3.5235,-3.7943,-4.1863,-4.3658,-4.5454,-4.7233,-4.7682,-4.7892,-4.7848,-4.7608,-4.686,-4.5394,-3.899,-3.5459,-3.3815,-2.9774,-2.726,0.0,0.0,0.0,0.0,0.0,0.0,0.0,0.0,0.0,0.0,0.0,0.0,0.0,0.0,0.0,0.0,0.0,0.0,0.0,0.0,0.0,0.0,0.0,0.0,0.0,0.0,0.0,0.0,0.0,0.0,0.0,0.0,0.0,0.0,0.0,0.0,0.0,-3.2929,-3.6366,0.0,-3.5351,-3.5825,-3.6806,-3.8014,-3.8938,-4.0791,-4.3886,-4.5223,-4.7327,-5.0505,-5.1149,-5.2087,-5.3466,-5.3225,-5.3261,-5.3518,-5.2747,-5.2491,-5.2747,-5.2491,-5.2344,-5.2344,-5.2344,-5.1426,-4.9811,-4.8673,-4.6617,-4.4085,-4.2983,-4.2563,-4.247,-4.1662,-4.1532,-4.1735,0.0,0.0,0.0,-2.361,-2.39,-2.4122,-2.4122,-2.5672,-2.7101,-2.7827,-3.0931,-3.4189,-3.7235,-4.0865,-4.3682,-4.5157,-4.5332,-4.4155,-4.14,-3.7496,-3.4878,-3.3925,-3.263,-3.3331,-3.6387,-3.8601,-4.1564,-4.5334,-4.6651,-4.7997,-4.9299,-4.9299,-4.9299,-4.9299,-4.9299,-4.906,-4.8267,-4.321,-3.9409,-3.651,-3.2766,-3.046,-2.8906,0.0,0.0,0.0,0.0,0.0,0.0,0.0,0.0,0.0,0.0,0.0,0.0,0.0,0.0,0.0,0.0,0.0,0.0,0.0,0.0,0.0,0.0,0.0,0.0,0.0,0.0,0.0,0.0,0.0,0.0,0.0,0.0,0.0,0.0,0.0,-3.7391,-3.7155,-4.0874,-4.2489,-4.002,-4.046,-4.1407,-4.2625,-4.32,-4.4929,-4.8289,-4.8976,-5.0725,-5.3916,-5.3995,-5.4509,-5.5574,-5.4803,-5.4399,-5.4399,-5.3592,-5.3203,-5.3203,-5.3203,-5.3203,-5.3203,-5.3203,-5.2454,-5.1169,-5.0912,-4.937,-4.7021,-4.5957,-4.5333,-4.5002,-4.4195,-4.3901,-4.3864,0.0,-2.361,-2.361,-2.361,-2.3601,-2.3985,-2.5059,-2.5862,-2.7017,-2.8762,-3.2273,-3.5723,-3.8768,-4.3707,-4.7428,-4.8984,-4.6347,-4.429,-4.3483,-3.7347,-3.3982,-3.4509,-3.5791,-3.7157,-3.8547,-4.2372,-4.5364,-4.7399,-4.8686,-4.9359,-4.9389,-4.9389,-4.9419,-4.9419,-4.9419,-4.9389,-4.9269,-4.7279,-4.4586,-4.1242,-3.654,-3.4623,-3.3964,0.0,0.0,0.0,0.0,0.0,0.0,0.0,0.0,0.0,0.0,0.0,0.0,0.0,0.0,0.0,0.0,0.0,0.0,0.0,0.0,0.0,0.0,0.0,0.0,0.0,0.0,0.0,0.0,0.0,0.0,0.0,0.0,0.0,-3.4539,-3.8497,-4.1068,-4.04,-4.4863,-4.6857,-4.3916,-4.5635,-4.7225,-4.7939,-4.8007,-4.9262,-5.2139,-5.229,-5.3329,-5.553,-5.5588,-5.5647,-5.5647,-5.4876,-5.4473,-5.4436,-5.3628,-5.3203,-5.3203,-5.3203,-5.3203,-5.3203,-5.3167,-5.2711,-5.1903,-5.1132,-5.0288,-4.939,-4.7773,-4.6654,-4.5883,-4.5076,-4.4728,-4.4599,-2.361,-2.361,-2.361,-2.361,-2.3921,-2.4472,-2.53,-2.6687,-2.8063,-2.9098,-3.3266,-3.7506,-4.1001,-4.4621,-4.8037,-5.1116,-4.7717,-4.5091,-4.4316,-3.8617,-3.5266,-3.5249,-3.737,-3.9864,-4.2611,-4.4706,-4.6937,-4.9388,-4.9747,-5.0451,-5.1379,-5.1379,-5.1648,-5.2097,-5.1618,-5.1379,-5.1289,-4.9793,-4.8356,-4.6604,-4.0487,-3.6926,-3.4921,0.0,0.0,0.0,0.0,0.0,0.0,0.0,0.0,0.0,0.0,0.0,0.0,0.0,0.0,0.0,0.0,0.0,0.0,0.0,0.0,0.0,0.0,0.0,0.0,0.0,0.0,0.0,0.0,0.0,0.0,0.0,-3.6062,-3.8149,-3.7787,-4.1136,-4.4147,-4.5573,-4.8413,-4.9968,-4.9123,-4.9627,-5.0067,-5.0272,-5.0272,-5.0878,-5.2236,-5.23,-5.3349,-5.5583,-5.5668,-5.6212,-5.7336,-5.6528,-5.5868,-5.5244,-5.4436,-5.3775,-5.3203,-5.3203,-5.3203,-5.3167,-5.2564,-5.1867,-5.1096,-5.0875,-4.9958,-4.86,-4.8159,-4.7829,-4.7535,-4.6746,-4.5682,-4.4654,-2.361,-2.361,-2.361,-2.361,-2.3858,-2.4471,-2.5654,-2.6977,-2.8286,-2.9476,-3.4352,-3.8657,-4.1128,-4.4621,-4.7665,-4.9796,-4.6786,-4.4045,-4.2354,-3.8676,-3.6717,-3.7157,-4.0213,-4.3163,-4.5903,-4.7549,-4.9404,-5.1468,-5.1199,-5.1588,-5.2606,-5.2336,-5.2546,-5.3174,-5.2785,-5.2456,-5.2127,-5.1079,-5.0272,-4.9254,-4.4586,-4.1654,-3.9649,-3.5968,-3.3784,-3.2407,-3.0073,-2.9295,-2.9086,-2.7111,0.0,0.0,0.0,0.0,0.0,0.0,0.0,0.0,0.0,0.0,0.0,0.0,0.0,0.0,0.0,0.0,0.0,0.0,0.0,0.0,0.0,0.0,0.0,0.0,-3.974,-4.2279,-4.3064,-4.5297,-4.7564,-4.9526,-5.1183,-5.2164,-5.2164,-5.2164,-5.2164,-5.2164,-5.2164,-5.2488,-5.3229,-5.329,-5.4173,-5.614,-5.6227,-5.6624,-5.7483,-5.6712,-5.5904,-5.5097,-5.4289,-5.3665,-5.3203,-5.3203,-5.3203,-5.3167,-5.2711,-5.205,-5.1279,-5.0949,-5.0031,0.0,0.0,0.0,0.0,0.0,-4.6269,-4.5149,-2.361,-2.361,-2.361,-2.361,-2.361,-2.4207,-2.6036,-2.6878,-2.7997,-2.9864,-3.5026,-3.8854,-3.9749,-4.3538,-4.6177,-4.6515,-4.4384,-4.1929,-3.9362,-3.8309,-3.8467,-4.0084,-4.3745,-4.6639,-4.8566,-5.0481,-5.2007,-5.3174,-5.2606,-5.2665,-5.3294,-5.2695,-5.2785,-5.3414,-5.3324,-5.2965,-5.2396,-5.1708,-5.105,-5.0255,-4.8476,-4.713,-4.5562,-4.0157,-3.8242,-3.7973,-3.3753,-3.1839,-3.0971,-2.8963,0.0,0.0,0.0,0.0,0.0,0.0,0.0,0.0,0.0,0.0,0.0,0.0,0.0,0.0,0.0,0.0,0.0,0.0,0.0,0.0,0.0,0.0,0.0,0.0,-4.3193,-4.6177,-4.8984,-4.9999,-5.0947,-5.2164,-5.301,-5.3518,-5.3518,-5.3518,-5.3518,-5.3518,-5.3518,-5.3783,-5.4419,0.0,0.0,0.0,0.0,-5.679,-5.6818,-5.6102,-5.5317,-5.4509,-5.3739,-5.3277,-5.3203,-5.3203,-5.3203,-5.3167,-5.3093,-5.2674,-5.194,-5.1132,-5.0325,-4.961,-4.95,-4.904,-4.8343,-4.7516,-4.6709,-4.592,-2.361,-2.361,-2.361,-2.361,-2.361,-2.426,-2.6193,-2.6582,-2.755,-2.9935,-3.3338,-3.6243,-3.8111,-4.0155,-4.2388,-4.4818,-4.2414,-4.068,-4.0451,-4.0167,-4.1269,-4.4134,-4.6516,-4.8683,-5.0601,-5.2067,-5.2935,-5.3174,-5.3054,-5.3354,-5.4012,-5.3892,-5.4162,-5.479,-5.4251,-5.3952,-5.3773,-5.3084,-5.2426,-5.1738,-5.084,-4.8476,-4.5244,-4.2991,-4.0928,-3.902,-3.7584,-3.6626,-3.5699,-3.3185,-3.2347,-3.1898,-2.9415,-2.75,0.0,0.0,0.0,0.0,0.0,0.0,0.0,0.0,0.0,0.0,0.0,0.0,0.0,0.0,0.0,0.0,0.0,0.0,0.0,-4.3193,-4.6713,-4.9627,-5.142,-5.2334,-5.2706,-5.2334,-5.301,-5.3518,-5.3518,-5.3518,-5.3518,-5.3518,-5.3518,-5.3551,-5.3684,-5.3717,-5.4106,-5.5029,-5.561,-5.6241,-5.6873,-5.6679,-5.6161,-5.5354,0.0,0.0,-5.3203,-5.3203,-5.3203,-5.3188,-5.2527,-5.2123,-5.194,-5.1132,-5.0325,-4.9537,-4.882,-4.8893,-4.9243,-4.8379,-4.7553,-4.6746,-2.4096,-2.4096,-2.3977,-2.367,-2.3879,-2.464,-2.6258,-2.6501,-2.7409,-2.9985,-3.2551,-3.4668,-3.6027,-3.755,-3.8903,-3.9986,-3.8044,-3.7801,-4.0273,-4.0769,-4.2816,-4.6938,-4.8823,-5.069,-5.2665,-5.3354,-5.3862,-5.4192,-5.3862,-5.4042,-5.47,-5.4371,-5.4551,-5.5179,-5.485,-5.4311,-5.3683,-5.3324,-5.2606,-5.1648,-5.0943,-4.9344,-4.713,-4.5813,-4.3898,-4.1683,-4.0367,-3.926,-3.7973,-3.4981,-3.4203,-3.3993,-3.0971,-2.9355,-2.8218,0.0,0.0,0.0,0.0,0.0,0.0,0.0,0.0,0.0,0.0,0.0,0.0,0.0,0.0,-3.5571,-3.7952,0.0,-4.3876,-4.6883,-4.9221,-5.1183,-5.2706,-5.3247,-5.3348,-5.2942,-5.3281,-5.3518,-5.3518,-5.3518,-5.3518,-5.3518,-5.3518,-5.3518,-5.3518,-5.3518,-5.3815,-5.4606,-5.4969,-5.5171,-5.5169,-5.5473,-5.5047,-5.3868,-5.3829,-5.3592,-5.3203,-5.3203,-5.3203,-5.3167,-5.2784,-5.238,-5.1903,-5.0692,-5.0178,-5.0105,-4.926,-4.893,-4.8893,-4.8453,-4.803,-4.7516,-2.4605,-2.4814,-2.4724,-2.3939,-2.4335,-2.5176,-2.6357,-2.6517,-2.7355,-2.9664,-3.1745,-3.3247,-3.3837,-3.5104,-3.5723,-3.5228,-3.4479,-3.5898,-4.0271,-4.1545,-4.4418,-4.9584,-5.1167,-5.2882,-5.4868,-5.48,-5.5029,-5.5568,-5.5029,-5.5029,-5.5538,-5.491,-5.488,-5.5388,-5.5388,-5.47,-5.3593,-5.3713,-5.2935,-5.1528,-5.0853,-5.0062,-4.9179,-4.7818,-4.6142,-4.4257,-4.2432,-4.0666,-3.8781,-3.5998,-3.516,-3.4831,-3.2138,-3.1091,-3.0372,-2.7739,-2.6782,0.0,0.0,0.0,0.0,0.0,0.0,0.0,0.0,-3.0872,-3.2545,-3.605,-3.7953,-3.9852,-4.2672,-4.5026,-4.7394,-4.9898,-5.1082,-5.2097,-5.3348,-5.3382,-5.3281,-5.3281,-5.3416,-5.3518,-5.3518,-5.3518,-5.3518,-5.3518,-5.3518,-5.3518,-5.3518,-5.3518,-5.3783,-5.4391,-5.4544,-5.4216,-5.3415,-5.4138,-5.3784,-5.2329,-5.2908,-5.3203,-5.3203,-5.3203,-5.3203,-5.3203,-5.3203,-5.2747,-5.1867,-5.0455,-5.0105,-5.0472,-4.9664,-4.9003,-4.8563,-4.8563,-4.8453,-4.8086,-2.4605,-2.5585,-2.5974,-2.4724,-2.5023,-2.5758,-2.6459,-2.6603,-2.7109,-2.8537,-2.9957,-3.107,-3.1682,-3.2374,-3.3038,-3.3592,-3.53,-3.8023,-4.1976,-4.4003,-4.7565,-5.3175,-5.4291,-5.564,-5.7505,-5.7051,-5.6795,-5.6885,-5.6795,-5.6795,-5.6855,-5.6226,-5.6038,-5.6128,-5.6128,-5.5658,-5.4999,-5.5598,-5.473,-5.2905,-5.2247,-5.09,-4.9179,-4.7818,-4.6411,-4.5005,-4.3658,-4.1175,-3.8362,-3.7404,-3.5968,-3.4563,-3.4174,-3.3245,-3.175,-2.9146,-2.753,-2.6422,-2.5615,-2.5555,-2.6393,-2.9235,-2.8783,-2.9555,0.0,-3.8383,-3.9162,-4.2763,-4.4699,-4.5814,-4.621,-4.8105,-4.9932,-5.0913,-5.23,-5.3315,-5.3484,-5.2875,-5.2435,-5.2435,-5.3078,-5.3518,-5.3518,-5.3518,-5.3518,-5.3518,-5.3518,-5.3518,-5.3518,-5.3518,-5.3517,-5.3618,-5.4264,-5.4252,-5.351,-5.4162,-5.4037,-5.3147,-5.32,-5.3203,-5.3203,-5.3203,-5.3203,-5.3203,-5.3203,-5.2747,-5.194,-5.1022,-5.0288,-4.9647,-4.8783,-4.8857,-4.9463,-4.9463,-4.8967,-4.8196,-2.4605,-2.5674,-2.6303,-2.5352,-2.5734,-2.6273,-2.6542,-2.6602,-2.7055,-2.8323,-2.8967,-2.9685,-3.0652,-3.1294,-3.1489,-3.1101,-3.3299,-3.652,-4.0706,-4.3383,-4.7333,-5.3073,-5.4546,-5.5731,-5.692,-5.7075,-5.7094,-5.7094,-5.7094,-5.7094,-5.7094,-5.6825,-5.6526,-5.6218,-5.6218,-5.5598,-5.464,-5.491,-5.4102,-5.2546,-5.1887,-5.0451,-4.8506,-4.68,-4.4586,-4.2312,-4.1414,-3.92,0.0,-3.504,-3.4262,-3.3844,-3.3455,-3.2706,-3.1481,-2.9265,-2.8457,-2.8427,-2.891,-2.8757,-2.9188,-3.2277,-3.3644,-3.5355,-3.9588,-4.1478,-4.3065,-4.574,-4.7569,-4.8849,-4.9289,-5.0845,-5.2029,-5.186,-5.2773,-5.3348,-5.2875,-5.2131,-5.1352,-5.0473,-5.1048,-5.186,-5.2706,-5.2807,-5.301,-5.345,-5.3518,-5.3518,-5.3518,-5.3518,-5.3518,-5.3518,-5.3816,-5.3398,-5.2167,-5.2869,-5.2596,-5.1388,-5.1797,-5.2196,-5.2554,-5.2554,-5.2791,-5.3203,-5.3203,-5.2747,-5.194,-5.1132,-5.0325,-4.9574,-4.9187,-4.8967,-4.882,-4.882,-4.893,-4.8857,-2.4874,-2.5824,-2.6452,-2.5974,-2.6422,-2.6896,-2.6896,-2.6896,-2.7218,-2.8112,-2.8391,-2.8912,-2.9935,-3.0435,-3.0414,-2.9717,-3.142,-3.4438,-3.8888,-4.1704,-4.5869,-5.1791,-5.3711,-5.52,-5.6395,-5.7062,-5.7393,-5.7393,-5.7573,-5.7543,-5.7363,-5.7184,-5.6765,-5.6218,-5.6218,-5.5538,-5.4491,-5.4491,-5.3593,-5.2127,-5.1079,-4.9374,-4.7189,-4.4855,-4.1893,-3.899,-3.8512,-3.6537,-3.3873,-3.2258,-3.1779,-3.1839,-3.1749,-3.139,-3.0644,-2.9086,-2.8936,-2.9564,-3.0702,-3.1002,-3.1772,-3.4816,-3.7372,-3.9676,-4.1948,-4.4107,-4.619,-4.81,-4.9519,-5.0507,-5.0845,-5.1826,-5.2435,-5.2063,-5.2672,-5.2976,-5.2367,-5.1319,-5.0202,-4.912,-4.8748,-4.9323,-5.1217,-5.1758,-5.2334,-5.3112,-5.3179,-5.3281,-5.3484,-5.3518,-5.3416,-5.3179,-5.3179,-5.2435,-5.0913,-5.1623,-5.132,-5.0004,-5.0743,-5.1343,-5.1814,-5.2018,-5.2381,-5.2915,-5.2883,-5.2527,-5.1903,-5.0875,-5.0105,-4.9574,-4.9353,-4.9003,-4.86,-4.8379,-4.871,-4.9077,-2.5561,-2.6123,-2.6572,-2.6572,-2.7136,-2.7555,-2.7555,-2.7555,-2.7555,-2.761,-2.8125,-2.8748,-2.9361,-2.9451,-2.9673,-3.0213,-3.0458,-3.2511,-3.7074,-3.9333,-4.3441,-4.9916,-5.2184,-5.4437,-5.6943,-5.7707,-5.8082,-5.8082,-5.874,-5.871,-5.8082,-5.7393,-5.6765,-5.6218,-5.6218,-5.5807,-5.5149,-5.5149,-5.4012,-5.2037,-5.0092,-4.7728,-4.5035,-4.1773,-3.8512,-3.5639,-3.5639,-3.3484,-3.0552,-2.9894,-2.8843,-2.8004,-2.9292,-2.9681,-2.9532,-2.8816,-2.8607,-2.8786,-2.9472,-3.1001,-3.3245,-3.651,-3.8367,-4.0557,-4.5091,-4.7245,-4.8813,-5.0691,-5.1117,-5.0947,-5.0236,-5.0168,-5.0439,-5.115,-5.186,-5.2334,-5.23,-5.0439,-4.9052,-4.9018,-4.6481,-4.5935,0.0,-5.0405,-5.1555,-5.2266,-5.2334,-5.2672,-5.345,-5.3518,-5.3145,-5.2367,-5.2334,-5.1623,-5.0135,-5.0867,-5.0801,-5.0004,-5.0743,-5.1112,-5.1164,-5.179,-5.2112,-5.2123,-5.2075,-5.2013,-5.1887,-5.0308,-4.961,-4.9537,-4.8673,-4.882,-4.937,-4.86,-4.8343,-4.8343,-2.4776,-2.5455,-2.5944,-2.5944,-2.6866,-2.7435,-2.7016,-2.7315,-2.7585,-2.7585,-2.8155,0.0,0.0,0.0,0.0,0.0,-2.9726,-3.1516,-3.3965,-3.7643,-4.1302,-4.4847,-4.8591,-5.1192,-5.2486,-5.3579,-5.4401,-5.485,-5.5059,-5.5059,-5.485,-5.461,-5.4162,-5.3533,-5.3533,-5.3174,-5.2546,-5.2546,-5.1409,-4.9464,-4.7938,-4.5723,-4.298,-3.923,-3.6028,-3.3245,0.0,-2.9235,-2.7799,-2.7171,-2.6662,-2.6422,-2.732,-2.729,-2.7171,-2.8278,-2.8906,-2.9953,-3.3275,-3.4951,-3.6703,-4.0659,-4.2677,-4.4366,-4.6902,-4.8796,-4.9763,-4.8928,-4.816,-4.7147,-4.5377,-4.5878,-4.6647,-4.6915,-4.9544,-5.142,-5.0913,-5.0642,-4.956,-4.7124,-4.6819,0.0,0.0,0.0,0.0,-5.2131,-5.23,-5.2638,-5.345,-5.2976,-5.257,-5.23,-5.1826,-5.1116,-5.0101,-5.0348,-5.0097,-4.9346,-5.0033,-5.0362,-5.039,-5.1112,-5.1159,-5.072,-5.0689,-5.0335,-4.9676,-4.9168,-4.8867,-4.871,-4.8416,-4.8489,-4.8673,-4.8416,-4.8306,-4.8233,0.0,-2.4958,-2.5674,-2.5914,-2.6662,0.0,0.0,0.0,0.0,0.0,0.0,0.0,0.0,0.0,0.0,0.0,0.0,-3.0121,-3.1669,-3.4808,-3.7584,-3.9865,-4.3459,-4.5813,-4.6668,-4.7997,-4.9015,-4.9673,-5.0122,-5.0361,-5.0361,-5.0601,-5.0361,-4.9733,-4.9733,-4.9643,-4.9434,-4.8955,-4.7758,-4.6065,-4.4197,-4.1773,-3.8846,-3.5372,-3.2497,0.0,-2.744,-2.6093,-2.5465,-2.5046,-2.4896,-2.5016,-2.5674,-2.6243,-2.6961,-2.8517,-3.0073,-3.2197,-3.6118,-3.7973,-3.9739,-4.3396,-4.5264,-4.6569,-4.8179,-4.9105,-4.9021,-4.6946,-4.5351,-4.3555,-4.1078,-4.1385,-4.2356,-4.3414,-4.6092,-4.8409,-4.956,-4.9424,-4.8646,-4.709,-4.7022,-4.6786,0.0,0.0,0.0,-5.098,-5.1623,-5.2266,-5.3044,-5.2841,-5.2604,-5.23,-5.1589,-5.0845,-5.0101,-4.983,-4.9458,-4.9018,-4.9432,-4.9634,-4.9664,-5.011,-5.0075,-4.9609,-4.9301,-4.8841,-4.825,-4.794,-4.7731,-4.7638,-4.7879,-4.7995,-4.8015,-4.8229,-4.8306,-4.8196,0.0,0.0,-2.564,0.0,0.0,0.0,0.0,0.0,0.0,0.0,0.0,0.0,0.0,0.0,0.0,0.0,0.0,0.0,-3.0243,-3.1036,-3.2587,-3.513,-3.7135,-3.8811,-4.0127,-4.1452,-4.2372,-4.2991,-4.4287,-4.4885,-4.4915,-4.5574,-4.5514,-4.4885,-4.4885,-4.5244,-4.5741,-4.4466,-4.315,-4.1782,-3.914,-3.6178,-3.3066,-3.049,-2.8304,-2.6422,-2.5083,-2.4156,-2.361,-2.367,-2.3759,-2.3969,-2.4605,-2.6578,-2.8846,-2.9592,-3.2107,-3.5252,-3.7853,-4.0068,-4.2192,-4.4766,-4.6042,-4.7099,-4.8713,-4.8055,-4.6618,-4.4787,-4.2531,-4.0023,-3.7291,-3.6823,-3.7805,-4.0707,-4.1969,-4.4079,-4.8443,-4.7361,-4.6819,-4.8815,-4.7259,-4.6515,-4.7804,-4.7973,0.0,-4.9018,0.0,-5.1555,-5.2334,-5.3044,-5.3078,-5.2334,-5.1555,-5.0811,-5.0101,-4.9357,-4.9018,-4.9018,-4.9018,-4.9018,-4.9015,-4.8936,-4.8862,-4.8751,-4.7975,-4.7628,-4.751,-4.6684,-4.6365,-4.646,-4.7088,-4.7342,-4.7428,-4.7995,-4.8192,-4.8157,0.0,0.0,0.0,0.0,0.0,0.0,0.0,0.0,0.0,0.0,0.0,0.0,0.0,0.0,0.0,0.0,0.0,0.0,-2.8319,-2.9883,-3.1061,-3.1749,-3.4143,-3.5878,-3.6746,-3.7554,-3.8302,-3.8901,-3.926,-3.9409,-3.9439,-3.9589,-3.9589,-3.9409,-3.9409,-3.9529,-3.9619,-3.8811,-3.7704,-3.636,-3.4681,-3.2916,-3.1031,-2.8933,-2.7495,-2.6422,-2.5083,-2.4156,-2.3759,-2.4747,-2.6093,-2.735,-2.753,-2.8697,-3.0342,-3.2018,-3.4472,-3.7345,-4.0524,-4.283,-4.4706,-4.6381,-4.6581,-4.6325,-4.6019,-4.4153,-4.185,-3.9538,-3.6196,-3.3074,-3.1209,-3.3005,-3.5563,-3.7959,-4.2917,-4.7259,-4.9492,-5.0811,-5.1082,-4.9932,-4.983,-4.9526,-4.8815,-4.9221,0.0,0.0,-5.0676,-5.1792,-5.3112,-5.2807,-5.2503,-5.23,-5.1048,-5.027,-5.0101,-4.9357,-4.9018,-4.9018,-4.9018,-4.9018,-4.8984,-4.8995,-4.8371,-4.7311,-4.7136,-4.6665,-4.6054,-4.5819,-4.5989,-4.6413,-4.6577,-4.6646,-4.6646,-4.6842,-4.7198,-4.7487,0.0,0.0,0.0,0.0,0.0,0.0,0.0,0.0,0.0,0.0,0.0,0.0,0.0,0.0,0.0,0.0,0.0,0.0,0.0,-2.8633,-2.9205,-2.9205,-3.067,-3.1508,-3.1599,-3.2257,-3.2736,-3.3095,-3.3395,-3.3694,-3.3963,-3.3963,-3.3963,-3.3963,-3.3963,-3.4113,-3.4322,-3.3724,-3.2886,0.0,0.0,-2.9116,-2.7744,-2.6363,-2.5608,-2.5166,-2.4448,-2.4687,-2.5585,-2.72,-2.8517,-2.9594,-3.0462,-3.2018,-3.3933,-3.5938,-3.8182,-4.0546,-4.297,-4.4885,-4.6292,-4.677,-4.6237,-4.5218,-4.3468,-4.1033,-3.8267,-3.509,-3.2057,-2.9435,-2.7665,-2.9919,-3.2862,-3.5422,-4.0706,-4.5573,-4.8714,-5.0507,-5.142,-5.1082,-5.142,-5.1251,-5.0101,-5.0642,-5.1048,0.0,-5.1454,-5.2063,-5.2942,-5.2875,-5.2672,-5.23,-5.1183,-5.027,-4.9627,-4.9221,-4.9018,-4.9018,-4.9018,-4.9018,-4.8984,-4.868,-4.7902,-4.6786,0.0,-4.5864,-4.5115,-4.5115,-4.5294,-4.5648,-4.589,-4.6014,-4.6039,-4.6294,-4.6659,-4.6892,0.0,0.0,0.0,0.0,0.0,0.0,0.0,0.0,0.0,0.0,-2.7255,-2.7585,-2.7585,-2.7585,0.0,0.0,0.0,0.0,0.0,0.0,-2.7585,-2.7585,-2.7585,-2.7315,-2.6776,-2.7225,-2.7465,-2.7465,-2.7949,-2.8487,-2.9082,-2.9082,-2.9082,-2.9082,-2.9082,-2.9355,-2.9804,-2.9175,-2.8607,-2.7979,-2.6692,-2.5525,-2.4395,0.0,-2.361,-2.361,-2.361,-2.5136,-2.7525,-2.9654,-3.0791,-3.1659,-3.3664,-3.5968,-3.8302,-4.0217,-4.2132,-4.3828,-4.5095,-4.6411,-4.7249,-4.6501,-4.5445,-4.3852,-4.0993,-3.8212,-3.5122,-3.1212,-2.9075,-2.7365,-2.5664,-2.7564,-3.0427,-3.363,-3.7609,-4.2112,-4.7432,-4.8849,-5.0101,-5.2198,-5.2469,-5.2232,-5.1589,-5.2097,-5.2469,-5.2469,-5.2469,-5.2469,-5.2469,-5.3112,-5.3078,-5.2198,-5.1555,-5.0507,-4.9018,-4.9018,-4.9018,-4.9018,-4.9018,-4.9018,-4.8984,-4.8342,-4.7665,-4.6887,-4.6177,-4.5432,-4.475,-4.4649,-4.4615,-4.4637,-4.5196,-4.5399,-4.5416,-4.5965,-4.6233,-4.6271,0.0,0.0,0.0,0.0,0.0,0.0,0.0,0.0,0.0,0.0,-2.7525,-2.7585,0.0,0.0,0.0,0.0,0.0,0.0,0.0,0.0,0.0,-2.7585,-2.7585,-2.7555,-2.7435,-2.7016,-2.6752,-2.6752,-2.6333,-2.6183,-2.6303,-2.6303,-2.6303,-2.6303,-2.6303,-2.6363,-2.6422,-2.5741,-2.5412,-2.5232,-2.4448,-2.3969,-2.3759,-2.364,0.0,0.0,-2.361,-2.4268,-2.5591,-2.8697,-3.2317,-3.5789,-3.7764,-3.9439,-4.0965,-4.2402,-4.3838,-4.5125,-4.5933,-4.713,-4.7818,-4.6621,-4.4948,-4.2642,-3.8852,-3.4696,-3.0813,-2.7951,-2.5417,-2.3773,-2.3901,-2.6618,-3.0212,-3.432,-3.844,-4.317,-4.8889,-5.0371,-5.1454,-5.3112,-5.3281,-5.3247,-5.3112,-5.3213,0.0,0.0,-5.3281,-5.3281,-5.3281,-5.3416,-5.2841,-5.1454,-5.1252,-5.0507,-4.9018,-4.9018,-4.9018,-4.9018,-4.9018,-4.9018,-4.9018,-4.8883,-4.8409,-4.7665,-4.6921,0.0,-4.5466,-4.4852,-4.4615,-4.4615,-4.472,-4.4776,-4.4776,-4.4879,-4.5214,-4.5639,0.0,0.0,0.0,0.0,0.0,0.0,0.0,-2.3928,-2.4991,-2.6191,-2.7285,-2.798,-2.8102,-2.7495,-2.7225,0.0,0.0,0.0,0.0,0.0,0.0,0.0,0.0,0.0,-2.7106,-2.7106,-2.6956,-2.6602,0.0,-2.5615,-2.5561,-2.4896,-2.4567,-2.4567,-2.4567,-2.4567,-2.4537,-2.4238,-2.4066,-2.4036,-2.3729,-2.361,-2.361,0.0,0.0,0.0,-2.3152,-2.3759,-2.5023,-2.7649,-3.1419,-3.5459,-3.8482,-4.1025,-4.309,-4.4077,-4.5304,-4.6501,-4.716,-4.7818,-4.7967,-4.6651,-4.3808,-4.0277,-3.6297,-3.1779,-2.7799,-2.5495,-2.3781,-2.2882,-2.349,-2.6396,-2.9635,-3.2449,-3.6391,-4.1012,-4.6474,-4.8225,-4.9898,-5.257,-5.3247,-5.3518,-5.3518,-5.3518,-5.3518,-5.3518,-5.3518,-5.3518,-5.3518,-5.2739,-5.1961,-5.1219,-5.0473,-4.9729,-4.9018,-4.9018,-4.9018,-4.9018,-4.9018,-4.9018,-4.9018,-4.9018,-4.8612,-4.7872,-4.753,-4.6955,-4.621,-4.5466,-4.5162,-4.5128,-4.475,-4.4615,-4.4615,-4.4615,-4.4803,-4.5062,0.0,0.0,0.0,0.0,0.0,0.0,-2.2383,-2.3494,-2.4505,-2.5492,-2.6919,-2.7965,-2.829,-2.7399,-2.6926,0.0,0.0,0.0,0.0,0.0,0.0,0.0,0.0,0.0,0.0,0.0,0.0,-2.6602,-2.5794,0.0,0.0,0.0,0.0,0.0,-2.361,-2.361,-2.361,-2.361,-2.361,0.0,0.0,-2.361,0.0,0.0,0.0,0.0,0.0,-2.3131,-2.4306,-2.6452,-2.9442,-3.2826,-3.6237,-4.0247,-4.3778,-4.4317,-4.5693,-4.7219,-4.7728,-4.8057,-4.7938,-4.6471,-4.2731,-3.8362,-3.4412,-2.9924,-2.6033,-2.3999,-2.3122,-2.2882,-2.349,-2.5901,-2.8427,-3.0297,-3.3577,-3.7807,-4.3363,-4.5357,-4.7608,-5.1328,-5.2369,-5.2835,-5.2835,-5.3041,0.0,-5.3144,-5.3382,-5.3518,-5.3518,-5.2198,-5.1386,-5.1185,-4.9932,-4.9154,-4.9018,-4.9018,-4.9018,-4.9018,-4.9018,-4.9018,-4.9018,-4.9018,-4.868,-4.8139,-4.7973,-4.7597,-4.6955,-4.6075,-4.5703,-4.5635,-4.4886,-4.4615,-4.4615,-4.4615,-4.4615,-4.4665,0.0,0.0,0.0,0.0,0.0,0.0,-2.2326,-2.3122,-2.4331,-2.6705,-2.6655,-2.6665,-2.7363,-2.7447,-2.7046,0.0,0.0,0.0,0.0,0.0,0.0,0.0,0.0,0.0,0.0,0.0,0.0,-2.6602,-2.5322,0.0,0.0,0.0,0.0,0.0,0.0,-2.361,-2.361,-2.361,0.0,0.0,0.0,0.0,0.0,0.0,0.0,0.0,0.0,-2.1874,-2.2353,-2.4926,-2.6811,-2.8423,-3.0011,-3.5642,-4.1654,-4.1713,-4.3958,-4.6441,-4.6501,-4.7369,-4.7818,-4.5873,-4.2372,-3.8362,-3.4412,-2.9924,-2.6033,-2.3999,-2.3122,-2.2882,-2.349,-2.4342,-2.6069,-2.9428,-3.1269,-3.4723,-4.172,-4.371,-4.5795,-4.9516,-5.0379,-5.0665,-5.0665,-5.1521,-5.2029,-5.2029,-5.2939,-5.3518,-5.3518,-5.2672,-5.1894,-5.1219,-5.0405,-4.9661,-4.9018,-4.9018,-4.9018,-4.9018,-4.9018,-4.9018,-4.9018,-4.9018,-4.8951,-4.8849,-4.8176,-4.7838,0.0,-4.6278,-4.5703,-4.5635,-4.4886,-4.4615,-4.4615,-4.4615,-4.4615,-4.4615,0.0,0.0,0.0,0.0,0.0,0.0,-2.1732,-2.2373,-2.3335,-2.5062,-2.5781,-2.6091,-2.5891,-2.5769,-2.5698,-2.5604,-2.5232,0.0,0.0,0.0,0.0,0.0,0.0,0.0,0.0,0.0,-2.6956,-2.7195,-2.6243,0.0,0.0,0.0,0.0,0.0,0.0,-2.361,-2.361,-2.361,0.0,0.0,0.0,0.0,0.0,0.0,0.0,0.0,0.0,0.0,-2.1395,-2.3221,-2.447,-2.5309,-2.5824,-2.9535,-3.4233,-3.7015,-4.0457,-4.3688,-4.5274,-4.6681,-4.7309,-4.5693,-4.1444,-3.6836,-3.3634,-2.9026,-2.5046,-2.3849,-2.3122,-2.2882,-2.349,-2.4126,-2.5341,-2.7533,-2.8268,-3.0591,-3.6497,-3.8351,-4.0979,-4.586,-4.8067,-4.9507,0.0,0.0,-5.1685,-5.1882,-5.2904,-5.3518,-5.3518,-5.2334,-5.1522,-5.1185,-5.0067,-4.9289,-4.9018,-4.9018,-4.9018,-4.9018,-4.9018,-4.9018,-4.9018,-4.9018,-4.9018,-4.8984,-4.8714,-4.8578,0.0,-4.6955,-4.6346,-4.6244,-4.5089,-4.4615,-4.4615,-4.4615,-4.4615,-4.4615,0.0,0.0,0.0,0.0,0.0,-2.0137,-2.1119,-2.1845,-2.2648,-2.3627,-2.4741,-2.5323,-2.494,-2.4277,-2.4159,-2.4869,-2.4393,0.0,0.0,0.0,0.0,0.0,0.0,0.0,0.0,0.0,-2.7405,-2.7585,-2.7136,-2.6782,0.0,0.0,-2.4784,-2.4575,0.0,0.0,0.0,0.0,0.0,0.0,0.0,0.0,0.0,0.0,0.0,0.0,0.0,0.0,0.0,0.0,0.0,-2.3011,-2.2802,-2.4507,-2.747,-3.2108,-3.6656,-4.0696,-4.294,-4.4825,-4.5873,-4.4706,-4.0277,-3.5489,-3.2796,-2.8401,-2.4634,-2.3789,-2.3251,-2.3092,-2.352,-2.3999,-2.4724,-2.6093,-2.6387,-2.8189,-3.3158,-3.4921,-3.7577,-4.2647,0.0,-4.7032,-4.871,-5.0113,-5.1172,-5.1846,-5.2592,-5.3144,-5.345,-5.2063,-5.1185,-5.1185,-4.9763,-4.9018,-4.9018,-4.9018,-4.9018,-4.9018,-4.9018,-4.9018,-4.9018,-4.9018,-4.9018,-4.9018,-4.9018,-4.9018,0.0,-4.7631,-4.6989,-4.6684,-4.5427,-4.4818,-4.4615,-4.4615,-4.4615,-4.4615,0.0,0.0,0.0,0.0,0.0,-2.0012,-2.0616,-2.1594,-2.2468,-2.3045,-2.3653,-2.4258,-2.4853,-2.3426,-2.2671,-2.338,-2.2989,0.0,0.0,0.0,0.0,0.0,0.0,0.0,-2.6602,-2.6602,-2.6956,-2.7585,-2.7585,-2.7255,-2.6572,-2.5914,-2.5232,-2.4575,0.0,0.0,0.0,0.0,0.0,0.0,0.0,0.0,0.0,0.0,0.0,0.0,0.0,0.0,0.0,0.0,0.0,0.0,0.0,-2.1216,-2.2682,-2.732,-3.2856,-3.7764,-3.9074,-4.1346,-4.317,-4.259,-3.8931,-3.4831,-3.2108,-2.8431,-2.5226,-2.3879,-2.361,-2.358,-2.361,-2.361,-2.4059,-2.5405,-2.6153,-2.8273,-3.3111,-3.479,-3.6781,-4.0313,-4.117,-4.247,-4.5106,-4.8068,-5.038,-5.1773,-5.1921,0.0,-5.3416,-5.2063,-5.1185,-5.1185,-4.9763,-4.9018,-4.9018,-4.9018,-4.9018,-4.9018,-4.9018,-4.9018,-4.9018,-4.9018,-4.9018,-4.9018,-4.9018,-4.9018,0.0,-4.8206,-4.7462,-4.6718,-4.5974,-4.5229,-4.4615,-4.4615,-4.4615,-4.4615,0.0,0.0,0.0,0.0,0.0,0.0,-2.0616,-2.0993,-2.1421,-2.1945,-2.2171,-2.251,-2.3068,-2.2005,-2.1792,-2.3202,-2.2887,0.0,0.0,0.0,0.0,0.0,0.0,0.0,-2.6572,-2.75,-2.8068,-2.8278,-2.9146,-2.9235,-2.8663,-2.7949,-2.7051,-2.5914,-2.4784,-2.4007,0.0,0.0,0.0,0.0,0.0,0.0,0.0,0.0,0.0,0.0,0.0,0.0,0.0,0.0,0.0,0.0,0.0,0.0,0.0,-2.2751,-2.7081,-3.1659,-3.2976,-3.4921,-3.6447,-3.5789,-3.3185,-3.0313,-2.8547,-2.6458,-2.4545,-2.3251,-2.331,-2.361,-2.361,-2.361,-2.4328,-2.6596,-2.7136,-2.8437,-3.1758,-3.4119,-3.6577,-3.9476,-4.3136,-4.6112,0.0,0.0,-4.9627,-5.0811,-5.1488,-5.2348,-5.3416,-5.2536,-5.1725,-5.1219,-4.9763,-4.9018,-4.9018,-4.9018,-4.9018,-4.9018,-4.9018,-4.9018,-4.9018,-4.9018,-4.9018,-4.9018,-4.9018,-4.9018,0.0,-4.7665,-4.6989,-4.6684,-4.5432,-4.4818,-4.4615,-4.4615,-4.4615,-4.4615,0.0,0.0,0.0,0.0,0.0,0.0,-2.0314,-2.0541,-2.0817,-2.1169,-2.1368,-2.1694,-2.2246,-2.1345,-2.1308,-2.2768,-2.2457,0.0,0.0,0.0,0.0,0.0,0.0,0.0,-2.6199,-2.7052,-2.7954,-2.8966,-3.0013,-3.0313,-2.9924,-2.9505,-2.8338,-2.6542,-2.5442,-2.4455,0.0,0.0,0.0,0.0,0.0,0.0,-2.3152,0.0,0.0,0.0,0.0,0.0,0.0,0.0,0.0,0.0,0.0,0.0,0.0,0.0,-2.2832,-2.6123,-2.8397,-3.0492,-3.1928,-3.1509,-2.9624,-2.75,-2.6153,-2.4837,-2.367,-2.2853,-2.3002,-2.331,-2.355,-2.3819,-2.4627,-2.6512,-2.7285,-2.8487,-3.1122,-3.3814,-3.6656,-3.9798,-4.3928,0.0,0.0,-4.8134,-4.8913,-4.9765,-5.0397,-5.1192,-5.2274,-5.1694,-5.1095,-5.066,-4.9843,-4.9289,-4.9018,-4.9018,-4.9018,-4.9018,-4.9018,-4.9018,-4.9018,-4.9018,-4.9018,-4.9018,-4.9018,-4.9018,0.0,-4.8003,-4.7293,-4.6718,-4.6109,-4.5331,-4.4649,-4.4891,-4.4852,-4.4615,0.0,0.0,0.0,0.0,0.0,0.0,0.0,-2.0289,-2.0641,-2.0641,-2.1069,-2.1568,-2.2071,-2.1245,-2.1069,-2.2146,-2.1794,0.0,0.0,0.0,0.0,0.0,0.0,-2.3529,-2.543,-2.5574,-2.6899,-2.9429,-3.0145,-3.0531,-3.0557,-3.0587,-2.9241,-2.6692,-2.6033,-2.4956,-2.361,-2.361,-2.361,-2.361,-2.361,-2.3251,0.0,0.0,0.0,0.0,0.0,0.0,0.0,0.0,0.0,0.0,0.0,0.0,0.0,0.0,0.0,0.0,0.0,-2.75,-2.8963,-2.8963,-2.756,-2.5854,-2.4605,-2.346,0.0,-2.2613,-2.2673,-2.2942,-2.367,-2.4246,-2.4903,-2.5884,-2.7021,-2.8723,-3.1331,-3.4111,0.0,0.0,-4.3928,0.0,-4.4586,-4.677,-4.8386,-4.8749,-4.8738,-4.9193,-5.0294,-4.9863,-4.9575,-4.9542,-4.9758,-4.9603,-4.9018,-4.9018,-4.9018,-4.9018,-4.9018,-4.9018,-4.9018,-4.9018,-4.9018,0.0,-4.9018,-4.9018,0.0,-4.8951,-4.8105,-4.6921,-4.7597,-4.6549,-4.4784,-4.55,-4.5263,-4.4615,0.0,0.0,0.0,0.0,0.0,0.0,0.0,0.0,0.0,0.0,-2.0112,-2.0238,-2.0388,-2.0162,-2.0464,0.0,0.0,0.0,0.0,0.0,0.0,0.0,-2.1812,-2.2654,-2.404,-2.549,-2.6694,-2.7765,-2.9763,-3.0845,-3.1035,-3.1527,-3.0426,-2.8098,-2.7435,-2.5818,-2.361,-2.361,-2.361,-2.361,-2.361,-2.352,0.0,0.0,0.0,0.0,-2.0288,-2.0378,0.0,0.0,0.0,0.0,0.0,0.0,0.0,0.0,-1.9828,-2.0157,-2.1085,0.0,-2.2802,-2.2802,-2.2443,-2.2004,0.0,-2.1784,-2.1934,-2.1934,-2.2343,-2.3362,-2.5495,-2.5196,-2.583,-2.9507,-2.9953,-3.0731,-3.3395,-3.7375,0.0,-4.4766,-4.6142,-4.677,-4.6621,-4.716,-4.7903,-4.8718,-4.8304,-4.8513,-4.9565,-4.9029,-4.8429,-4.7877,-4.7931,-4.8297,-4.9018,-4.9018,-4.9018,-4.9018,-4.9018,-4.9018,-4.9018,-4.9018,-4.9018,-4.9018,-4.9018,-4.9018,-4.8951,-4.8409,-4.7939,-4.7597,-4.7225,-4.638,-4.5534,-4.6278,-4.5703,-4.4682,0.0,0.0,0.0,0.0,0.0,0.0,0.0,0.0,0.0,0.0,-1.9811,-1.9811,-1.9811,-1.9811,-2.0263,0.0,0.0,0.0,0.0,0.0,0.0,-2.112,-2.0992,-2.1615,-2.3094,-2.4367,-2.6007,-2.8036,-3.0027,-3.1346,-3.2086,-3.2523,-3.125,-2.8517,-2.6602,-2.4979,-2.361,-2.361,-2.361,-2.361,-2.361,0.0,0.0,0.0,0.0,0.0,-2.0187,-2.0139,0.0,-2.1066,-2.1605,-2.2044,0.0,0.0,0.0,0.0,-1.9708,-1.9708,-1.9708,-2.0408,-2.1156,-2.1156,-2.1156,-2.1246,-2.1545,-2.1425,-2.1425,-2.2024,-2.2463,-2.3392,-2.5704,-2.5794,-2.6662,-3.0073,-3.0821,-3.2228,-3.5789,0.0,-4.2491,-4.5514,-4.6441,-4.698,0.0,-4.7309,-4.7538,-4.8072,-4.7474,-4.7364,-4.7938,-4.7446,-4.6987,-4.6602,-4.6693,-4.7324,-4.8354,-4.8353,-4.8576,-4.9018,-4.9018,-4.9018,-4.9018,-4.9018,-4.9018,-4.9018,-4.9018,0.0,-4.8984,-4.8578,-4.821,-4.7872,-4.7834,-4.7158,-4.6244,-4.665,-4.6278,-4.5568,0.0,0.0,0.0,0.0,0.0,0.0,0.0,0.0,0.0,0.0,0.0,0.0,0.0,0.0,0.0,0.0,0.0,0.0,0.0,0.0,-2.2071,-2.1518,-2.0564,-2.0883,-2.2639,-2.3137,-2.5063,-2.862,-2.9967,-3.1286,-3.2549,-3.3027,-3.1545,-2.8457,-2.5315,-2.3789,-2.361,-2.361,-2.361,-2.361,-2.361,0.0,0.0,0.0,0.0,0.0,0.0,0.0,0.0,-2.1246,-2.1984,-2.2553,-2.1684,0.0,0.0,0.0,0.0,0.0,-1.9947,-2.1036,-2.2054,-2.1635,-2.1844,-2.2233,-2.2613,-2.1874,-2.1485,-2.2733,-2.3062,-2.3781,-2.5824,-2.6662,-2.7794,-3.0011,-3.1599,0.0,-3.8661,-4.0756,-4.2731,-4.5155,-4.6052,0.0,-4.71,-4.7249,-4.7279,-4.716,-4.6531,-4.607,-4.6022,-4.5574,-4.5311,-4.5311,-4.5588,-4.6208,-4.7172,-4.744,-4.7998,-4.8798,-4.8923,-4.9018,-4.9018,-4.9018,-4.9018,-4.9018,0.0,0.0,-4.9018,-4.9018,-4.8646,-4.8108,-4.8781,-4.8173,-4.6989,-4.709,-4.6989,-4.6616,0.0,0.0,0.0,0.0,0.0,0.0,0.0,0.0,0.0,0.0,0.0,0.0,0.0,0.0,0.0,0.0,0.0,0.0,0.0,-2.1995,-2.2071,-2.1518,-2.1317,-2.1801,-2.2997,-2.3098,-2.438,-2.6884,-2.7558,-2.8638,-3.0073,-3.1309,-3.0711,-2.8517,-2.6303,-2.4657,-2.361,-2.361,-2.361,-2.361,-2.361,0.0,0.0,0.0,0.0,0.0,0.0,0.0,0.0,-2.0168,-2.1205,-2.2373,-2.0576,0.0,0.0,0.0,0.0,0.0,-2.1066,-2.2742,-2.3618,-2.1406,-2.2512,-2.3887,-2.2912,-2.2942,-2.337,-2.4156,-2.4754,-2.5944,-2.8487,-2.9082,-3.0161,-3.3246,-3.5759,-3.8751,0.0,0.0,-4.4436,-4.595,0.0,-4.698,-4.6531,-4.698,-4.707,-4.6531,-4.5843,-4.5214,-4.4646,-4.3988,-4.3647,-4.3647,-4.3714,-4.4243,-4.5227,-4.6831,-4.7671,-4.7836,-4.8608,-4.9018,-4.9018,-4.9018,-4.9018,-4.9018,0.0,-4.9018,-4.9018,-4.9018,-4.8951,-4.8849,-4.8951,-4.8477,-4.7834,-4.8443,-4.7868,-4.6684,0.0,0.0,0.0,0.0,0.0,0.0,0.0,0.0,0.0,0.0,0.0,0.0,0.0,0.0,0.0,0.0,0.0,0.0,-2.1468,-2.1995,-2.2196,-2.1945,-2.2523,-2.2924,-2.3095,-2.3697,-2.4983,-2.6927,-2.8318,-2.9741,-3.1178,-3.1071,-2.9725,-2.7267,-2.5753,-2.4515,-2.361,-2.361,-2.361,-2.361,0.0,0.0,0.0,0.0,0.0,0.0,0.0,0.0,0.0,0.0,-2.1096,-2.2014,-2.1085,0.0,0.0,0.0,0.0,0.0,-2.0456,-2.2293,-2.3767,-2.2562,-2.4268,-2.5974,-2.5039,-2.5039,-2.5495,-2.6572,-2.7021,-2.7919,-3.0223,-3.0941,-3.2347,-3.5998,-3.8846,-4.1212,-4.3,-4.3868,-4.4676,0.0,0.0,-4.68,-4.686,-4.68,-4.6651,-4.6309,-4.5364,-4.4646,-4.4317,-4.3648,-4.329,-4.329,-4.329,-4.3527,-4.4004,-4.5379,-4.6346,-4.6833,-4.7273,-4.777,-4.8257,-4.8257,-4.8312,-4.8443,0.0,-4.8781,-4.8443,-4.8849,-4.9018,-4.9018,-4.9018,-4.8815,-4.8545,-4.8883,-4.8071,-4.6819,0.0,0.0,0.0,0.0,0.0,0.0,0.0,0.0,0.0,0.0,0.0,0.0,0.0,0.0,0.0,0.0,0.0,-2.0817,-2.1066,-2.1845,-2.2246,-2.2121,-2.3326,-2.3979,-2.3904,-2.46,-2.5887,-2.767,-2.9114,-3.0637,-3.2089,-3.0584,-2.8702,-2.6538,-2.5361,-2.4365,-2.361,-2.361,-2.361,-2.361,0.0,0.0,0.0,0.0,0.0,0.0,0.0,0.0,0.0,0.0,0.0,0.0,0.0,0.0,0.0,-2.1126,-2.0468,-1.9989,-2.0337,-2.1984,-2.364,-2.3789,-2.5615,-2.7405,-2.747,-2.75,-2.7919,-2.9445,-2.9864,-3.0402,-3.172,-3.2886,-3.4861,-3.8512,-4.1242,-4.3039,-4.3489,-4.4377,-4.5214,-4.5693,-4.6232,-4.6741,-4.7249,-4.6711,-4.6219,-4.6082,-4.4975,-4.4257,-4.4077,-4.3559,-4.329,-4.329,-4.329,-4.329,-4.329,-4.3929,-4.4775,-4.5854,-4.5943,-4.6334,-4.7044,-4.7276,-4.7467,-4.7662,-4.8588,-4.868,-4.8206,-4.8781,-4.9018,-4.9018,-4.9018,-4.9018,-4.9018,-4.9018,-4.8173,-4.7158,0.0,0.0,0.0,0.0,0.0,0.0,0.0,0.0,0.0,0.0,0.0,0.0,0.0,0.0,0.0,0.0,-2.039,-2.049,-1.9962,-2.1418,-2.2071,-2.1568,-2.3125,-2.4707,-2.6223,-2.5795,-2.6615,-2.8762,-2.8447,-2.9132,-3.0712,-2.8852,-2.7825,-2.7449,-2.6129,-2.4807,-2.361,-2.361,-2.361,-2.361,-2.361,0.0,0.0,0.0,0.0,0.0,0.0,0.0,0.0,0.0,0.0,0.0,0.0,0.0,-2.2493,-2.1814,-2.1156,-2.0917,-2.2164,-2.3032,-2.3759,-2.4365,-2.5615,-2.729,-2.9684,-3.0223,-3.0791,-3.2736,-3.3634,-3.3934,-3.3425,-3.537,-3.7973,-4.0726,-4.2851,-4.4825,-4.6681,0.0,-4.71,-4.716,-4.7219,-4.7249,-4.7309,-4.6711,-4.6052,-4.5424,-4.4706,-4.4047,-4.3409,-4.3319,-4.329,-4.329,-4.329,-4.329,-4.329,-4.2809,-4.3358,-4.4893,-4.5147,-4.5317,-4.5419,-4.629,-4.6681,-4.6776,-4.8337,-4.8984,-4.8917,-4.8984,-4.9018,-4.9018,-4.9018,-4.9018,-4.9018,-4.9018,-4.8511,-4.7804,0.0,0.0,0.0,0.0,0.0,0.0,0.0,0.0,0.0,0.0,0.0,0.0,0.0,0.0,0.0,0.0,-2.0012,-2.0188,-2.0365,-2.0968,-2.1644,-2.2443,-2.3095,-2.423,-2.5887,-2.6389,-2.7394,-2.8888,-2.9823,-2.968,-2.8552,-2.919,-2.8455,-2.6576,-2.5894,-2.5083,-2.4186,-2.3789,-2.361,-2.361,-2.361,-2.361,0.0,0.0,0.0,0.0,0.0,0.0,0.0,0.0,-2.0797,-2.1635,-2.1216,-2.1814,-2.2553,-2.1904,-2.1246,-2.0808,-2.1306,-2.2832,-2.4365,-2.5053,-2.6542,-2.8427,-3.0614,-3.2407,-3.4053,-3.5609,-3.6806,-3.7345,-3.6656,-3.8033,-3.9858,-4.1722,-4.3988,-4.5963,-4.713,-4.7309,-4.7309,-4.7309,-4.7309,-4.7309,-4.7309,-4.6322,-4.5574,-4.5304,-4.4317,-4.3559,-4.329,-4.329,-4.329,-4.329,-4.294,-4.2731,-4.2731,-4.2111,-4.2092,-4.2682,-4.2818,-4.343,-4.4543,-4.5333,-4.6093,-4.6803,-4.8354,-4.8748,-4.8376,-4.8815,-4.9018,-4.9018,-4.9018,-4.9018,-4.9018,-4.9018,-4.8815,-4.8578,0.0,0.0,0.0,0.0,0.0,0.0,0.0,0.0,0.0,0.0,0.0,0.0,0.0,0.0,0.0,0.0,-1.9811,-1.9962,-2.039,-2.0591,-2.1194,-2.2297,-2.2819,-2.3722,-2.5059,-2.6399,-2.7469,-2.8398,-2.9652,-2.9406,-2.7807,-2.8644,-2.8226,-2.6778,-2.5887,-2.529,-2.4874,-2.4186,-2.3789,-2.361,-2.361,-2.361,0.0,0.0,0.0,0.0,0.0,0.0,0.0,0.0,-2.0617,-2.1365,-2.1335,-2.1964,-2.2613,-2.2164,-2.1695,-2.1306,-2.1047,-2.2622,-2.4485,-2.5382,-2.741,-2.9894,-3.2497,-3.4502,-3.6357,-3.8272,-3.908,-3.9313,-3.908,-3.9768,-4.0905,0.0,-4.4736,-4.6518,-4.7219,-4.7309,-4.7219,-4.701,-4.698,-4.692,-4.6681,-4.5633,-4.4975,-4.4975,-4.3958,-4.329,-4.329,-4.315,-4.303,-4.303,-4.2402,-4.2081,-4.2081,-4.1414,-4.1055,-4.1055,-4.0876,-4.1517,-4.2953,-4.3962,-4.4845,-4.5656,-4.7686,-4.8277,-4.7872,-4.8658,-4.9018,-4.9018,-4.9018,-4.9018,-4.9018,-4.9018,-4.9018,-4.9018,0.0,0.0,0.0,0.0,0.0,0.0,0.0,0.0,-1.9811,-1.9811,-1.9811,0.0,0.0,0.0,0.0,0.0,-1.9811,-1.9811,-1.9811,-2.0365,-2.0691,-2.0691,-2.2246,-2.3371,-2.3979,-2.5619,-2.6751,-2.7268,-2.7304,-2.7816,-2.873,-2.6742,-2.6817,-2.8495,-2.6303,-2.545,-2.5555,-2.4874,-2.4216,-2.361,-2.361,-2.361,-2.361,0.0,0.0,0.0,0.0,0.0,0.0,0.0,-2.0688,-2.0946,-2.2254,-2.2673,-2.2703,-2.2673,-2.2703,-2.2553,-2.1874,-2.2652,-2.3939,-2.5285,-2.8098,-3.1599,-3.5579,-3.6507,-3.7434,-4.0726,-4.0367,-3.9649,-4.0307,-4.0427,-4.1055,-4.2991,-4.4964,-4.6561,-4.7219,-4.7309,-4.704,-4.6411,-4.6279,-4.6052,-4.5364,-4.4706,-4.4317,-4.4317,-4.3648,-4.329,-4.329,-4.2701,-4.2381,-4.2381,-4.1752,-4.1422,-4.1422,-4.0726,-4.0397,-4.0397,-3.9738,-3.9768,-4.0434,-4.2032,-4.2807,-4.2976,-4.6183,-4.7572,-4.7638,-4.8608,-4.8984,-4.9018,-4.9018,-4.9018,-4.9018,-4.9018,-4.9018,-4.9018,0.0,0.0,0.0,0.0,0.0,0.0,0.0,0.0,-1.9811,-1.9811,-1.9811,0.0,0.0,0.0,0.0,0.0,0.0,-1.9811,-1.9811,-1.9962,-2.0264,-2.0666,-2.1518,-2.2246,-2.2799,-2.4079,-2.5418,-2.6751,-2.6933,-2.6915,-2.6756,-2.6991,-2.7313,-2.7661,-2.7159,-2.6411,-2.5555,-2.4874,-2.4216,-2.361,-2.361,-2.361,-2.361,0.0,0.0,0.0,0.0,0.0,0.0,0.0,0.0,0.0,-2.0617,-2.1864,-2.3041,-2.1695,-2.2263,-2.3191,-2.2583,-2.4021,-2.6033,-2.738,-3.0522,-3.4114,-3.7135,-3.8212,-3.9469,-4.2761,-4.2402,-4.1683,-4.2342,-4.2491,0.0,-4.3868,-4.4915,-4.5992,-4.713,-4.6501,-4.5992,-4.6249,-4.5903,-4.5514,-4.5304,-4.4706,-4.4317,-4.4317,-4.3269,-4.2641,-4.2641,-4.2081,-4.1722,-4.1722,-4.1025,-4.0696,-4.0696,-4.0038,-3.9709,-3.9709,-3.9529,-3.9828,-4.065,-4.1643,-4.241,-4.3121,-4.5068,-4.5918,-4.6018,-4.7441,-4.8385,-4.9018,-4.9018,-4.9018,-4.9018,-4.9018,-4.9018,-4.9018,0.0,0.0,0.0,0.0,0.0,0.0,0.0,0.0,-1.9811,-1.9811,-1.9811,-1.9811,0.0,0.0,0.0,0.0,-1.9811,-1.9811,-1.9811,-1.9811,-2.0062,-2.0666,-2.1219,-2.1945,-2.2949,-2.3879,-2.4582,-2.5134,-2.5786,-2.5827,-2.5308,-2.6716,-2.737,-2.739,-2.7735,-2.7191,-2.5944,-2.5262,-2.4605,-2.3999,-2.3999,-2.3999,-2.3999,0.0,0.0,0.0,0.0,0.0,0.0,0.0,0.0,0.0,-2.0228,-2.1186,-2.2263,-2.1365,-2.1934,-2.2862,-2.3032,-2.4777,-2.7021,-2.8876,-3.2347,-3.6061,-3.8931,-4.0696,-4.2462,-4.4975,-4.4257,-4.3419,-4.4306,-4.3898,0.0,-4.4556,-4.5035,-4.5574,-4.6381,-4.5813,-4.5364,-4.5514,-4.5155,-4.4796,-4.4556,-4.3928,-4.3539,-4.3539,-4.262,-4.2021,-4.2021,-4.1392,-4.0995,-4.0995,-4.0337,-4.0008,-4.0008,-3.9619,-3.9373,-3.9373,-3.9373,-3.9666,-4.02,-4.0908,-4.1533,-4.2122,-4.3885,-4.4872,-4.5285,-4.6507,-4.7572,-4.8416,-4.8416,-4.8671,-4.9018,-4.9018,-4.9018,-4.9018,0.0,0.0,-1.9811,-1.9811,0.0,0.0,0.0,0.0,-1.9811,-1.9811,-1.9811,-1.9811,0.0,0.0,0.0,-1.9811,-1.9861,-1.9861,-1.9811,-1.9811,-2.0062,-2.0666,-2.132,-2.2484,-2.4247,-2.457,-2.4299,-2.3399,-2.4275,-2.4547,-2.4255,-2.6025,-2.7057,-2.7443,-2.805,-2.7679,-2.6542,-2.5944,-2.5262,-2.4605,-2.4605,-2.4575,-2.4515,-2.4515,0.0,0.0,0.0,0.0,0.0,0.0,0.0,0.0,-2.0688,-2.0778,-2.1006,-2.1545,-2.1814,-2.2233,-2.346,-2.5196,-2.735,-3.0103,-3.3873,-3.7764,-4.0935,-4.3539,-4.5633,-4.68,-4.5693,-4.4855,-4.607,-4.4755,-4.3898,-4.5095,-4.5244,-4.5214,-4.5274,-4.5155,-4.4825,-4.4287,-4.4137,-4.3808,-4.317,-4.2611,-4.2321,-4.2321,-4.1692,-4.1294,-4.1294,-4.0666,-4.0307,-4.0307,-3.9738,-3.9373,-3.9373,-3.9373,-3.9373,-3.9373,-3.9373,-3.9373,-3.9403,-4.0038,-4.0337,-4.0494,-4.2573,-4.4073,-4.5112,-4.5716,-4.6562,-4.7473,-4.7572,-4.8129,-4.8892,-4.8987,-4.9018,-4.9018,0.0,0.0,-1.9811,-1.9811,0.0,0.0,0.0,0.0,0.0,-1.9811,0.0,0.0,0.0,0.0,0.0,-1.9836,-2.0239,-2.0314,-1.9836,-1.9811,-2.0062,-2.0666,-2.202,-2.3927,-2.6451,-2.4968,-2.4723,-2.5849,-2.4268,-2.3533,-2.3621,-2.5106,-2.6132,-2.6753,-2.8012,-2.7824,-2.6572,-2.6452,-2.5704,-2.4605,-2.4605,-2.4276,-2.3819,-2.3819,-2.364,0.0,0.0,0.0,0.0,0.0,0.0,0.0,-2.0688,-2.1425,-2.2173,-2.1814,-2.2802,-2.4156,-2.4933,-2.6243,-2.8274,-3.1928,-3.6626,-4.0905,-4.318,-4.4526,-4.5214,-4.5005,-4.5454,-4.595,-4.6262,-4.5544,-4.4975,-4.5244,-4.4855,-4.4706,-4.5214,-4.3998,-4.312,-4.3469,-4.2641,-4.1953,-4.1803,-4.1683,-4.1632,-4.1632,-4.0995,-4.0606,-4.0606,-3.9978,-3.9619,-3.9619,-3.9499,-3.9373,-3.9373,-3.9373,-3.9373,-3.9373,-3.9373,-3.9373,-3.9373,-3.9559,-3.9918,-4.0427,-4.0925,-4.2255,-4.4091,-4.4247,-4.5199,-4.6558,-4.7306,-4.7737,-4.7966,-4.8736,-4.9018,-4.9018,0.0,0.0,0.0,0.0,0.0,0.0,0.0,0.0,0.0,0.0,0.0,0.0,0.0,-2.0264,0.0,0.0,-2.0087,-2.0138,-1.9811,-1.9811,-2.0188,-2.1043,-2.2974,-2.4442,-2.521,-2.512,-2.5052,-2.5077,-2.4491,-2.4266,-2.4448,-2.6521,-2.7644,-2.7933,-2.9028,-2.8786,-2.75,-2.6871,-2.6183,-2.5525,-2.5202,-2.4866,-2.4537,-2.4186,-2.3879,-2.355,-2.3221,0.0,0.0,0.0,0.0,0.0,0.0,0.0,-2.2224,-2.2194,-2.2682,-2.3468,-2.4754,-2.6572,-2.9352,-3.4532,-3.8631,-4.1654,-4.2671,-4.3658,-4.4257,-4.3858,-4.4915,-4.5843,-4.5843,-4.5035,-4.4347,-4.4347,-4.3539,-4.303,-4.3359,-4.259,-4.2051,-4.2372,-4.1803,-4.1422,-4.1422,-4.1085,-4.0905,-4.0905,-4.0008,-3.9589,-3.9918,-3.929,-3.908,-3.9373,-3.911,-3.8931,-3.8931,-3.8601,-3.8601,-3.8931,-3.8931,-3.911,-3.9373,-3.9373,-3.9619,-3.9948,-4.0277,-4.1053,-4.2206,-4.2877,-4.3902,-4.5124,-4.5939,-4.6555,-4.7002,-4.7473,-4.7933,-4.8321,0.0,0.0,0.0,0.0,0.0,0.0,0.0,0.0,0.0,0.0,0.0,0.0,0.0,-2.0264,-1.9911,0.0,0.0,0.0,-1.9811,-1.9987,-2.0589,-2.1719,-2.3802,-2.4572,-2.3825,-2.5263,-2.5458,-2.4313,-2.5163,-2.5966,-2.675,-2.855,-2.9394,-2.9435,-3.0064,-2.9684,-2.8517,-2.729,-2.6716,-2.6542,-2.5884,-2.5525,-2.5352,-2.4664,-2.4066,-2.361,-2.361,-2.361,-2.352,-2.2912,0.0,0.0,0.0,0.0,-2.1994,-2.2673,-2.2403,-2.2293,-2.4246,-2.6991,-3.0642,-3.6297,-3.9379,-4.1085,-4.1175,-4.2132,-4.2961,-4.2961,-4.3958,-4.4855,-4.5095,-4.3958,-4.2991,-4.315,-4.2162,-4.1422,-4.1422,-4.1294,-4.1175,-4.1055,-4.1025,-4.0935,-4.0726,-4.0307,-4.0008,-3.9888,-3.8841,-3.8482,-3.905,-3.8542,-3.8482,-3.905,-3.8512,-3.8212,-3.8212,-3.7674,-3.7734,-3.8392,-3.8512,-3.8871,-3.9373,-3.9373,-3.9373,-3.9439,-4.0008,-4.0277,-4.0487,-4.1602,-4.2637,-4.3636,-4.4372,-4.5175,-4.5961,-4.6138,-4.6696,-4.7373,0.0,0.0,0.0,0.0,0.0,0.0,0.0,0.0,0.0,0.0,-2.0993,-2.0691,-2.0691,-2.0616,-2.0365,-1.9836,-2.0289,-2.0365,-1.9836,0.0,0.0,-2.2844,-2.3694,-2.4935,-2.6633,-2.5751,-2.6127,-2.7915,-2.6859,-2.8129,-3.1515,-2.9491,-2.8856,-2.9406,-2.962,-2.9295,-2.8547,-2.7794,-2.7136,-2.6542,-2.5884,-2.5232,-2.4664,-2.3999,-2.367,-2.361,-2.361,-2.361,-2.352,-2.2912,-2.2703,0.0,0.0,0.0,-2.2703,-2.3281,-2.3062,-2.3002,-2.4956,-2.864,-3.2467,-3.4502,-3.7345,-3.9828,-4.0397,-4.1115,-4.1654,-4.1654,-4.2261,-4.3129,-4.4227,-4.291,-4.1833,-4.244,-4.1901,-4.1422,-4.1422,-4.0876,-4.0307,-3.9738,-3.9679,-3.923,-3.8063,-3.8392,-3.8422,-3.7853,-3.7644,-3.7584,-3.7674,-3.7584,-3.7584,-3.7674,-3.7584,-3.7524,-3.7524,-3.7464,-3.7734,-3.8392,-3.899,-3.932,-3.9373,-3.9373,-3.9373,-3.9373,-3.9463,-3.9858,-4.0397,-4.0576,-4.1438,-4.2689,-4.3587,-4.4365,-4.5079,-4.5889,-4.6279,-4.6488,0.0,0.0,0.0,0.0,0.0,0.0,0.0,0.0,0.0,0.0,0.0,-2.1144,-2.1144,-2.0591,-2.0087,-1.9836,-2.0365,-2.0717,-2.074,-2.1493,-2.2347,-2.3235,-2.3857,-2.478,-2.6156,-2.5993,-2.6382,-2.7436,-2.7221,-2.8968,-3.2467,-3.1634,-3.2194,-3.3819,-3.2795,-3.1749,-3.0672,-2.8906,-2.7794,-2.7106,-2.6422,-2.6213,-2.6123,-2.4694,-2.4365,-2.4627,-2.3879,-2.361,-2.355,-2.3281,-2.3191,-2.3191,-2.3191,0.0,0.0,0.0,-2.34,-2.3661,-2.5615,-2.7919,-3.0432,-3.3246,-3.5579,-3.7494,-3.8482,-3.923,-3.9709,-3.9709,-3.9649,-4.0217,-4.2282,-4.1654,-4.0816,-4.0726,-4.0457,-4.0157,-3.9768,-3.9469,-3.917,-3.8871,-3.8512,-3.8063,-3.7464,-3.7674,-3.7734,-3.7434,-3.7075,-3.7045,-3.7375,-3.7075,-3.7045,-3.7404,-3.7075,-3.6896,-3.6896,-3.6537,-3.6656,-3.7345,-3.8362,-3.8841,-3.8841,-3.926,-3.9373,-3.9373,-3.9373,-3.9589,-3.9888,-4.0247,-4.0965,-4.191,-4.2698,-4.3396,-4.4004,-4.4403,-4.4937,-4.5452,0.0,0.0,0.0,0.0,0.0,0.0,0.0,0.0,0.0,0.0,0.0,-2.1694,-2.1694,0.0,0.0,0.0,-2.0641,-2.1144,-2.1669,-2.2071,-2.2607,-2.3308,-2.3955,-2.4652,-2.5384,-2.6122,-2.6575,-2.6788,-2.7331,-2.9382,-3.2766,-3.3425,-3.525,-3.7823,-3.5878,-3.3963,-3.2108,-2.9983,-2.8697,-2.8034,-2.7016,-2.6896,-2.7195,-2.5674,-2.5292,-2.5465,-2.4477,-2.3999,-2.3849,-2.367,-2.361,-2.361,-2.361,-2.361,0.0,0.0,0.0,-2.3879,-2.5226,-2.6477,-2.8064,-3.1001,-3.3125,-3.4831,-3.6118,-3.7045,-3.7734,0.0,-3.7764,-3.8003,-4.0008,-4.0098,-3.9738,-3.923,-3.917,-3.8931,-3.8242,-3.8153,-3.8093,-3.7913,-3.7614,-3.7285,-3.6956,-3.7075,-3.7105,-3.6926,-3.6507,-3.6447,-3.6896,-3.6477,-3.6447,-3.6896,-3.6477,-3.6237,-3.6237,-3.5908,-3.5998,-3.6507,-3.7614,-3.8242,-3.8422,-3.8931,-3.926,-3.9373,-3.9373,-3.9373,-3.9469,-3.9948,-4.0546,-4.1205,-4.1901,-4.2521,-4.312,-4.323,-4.3771,-4.4434,0.0,0.0,0.0,0.0,0.0,0.0,0.0,0.0,0.0,0.0,0.0,-2.2272,-2.2272,-2.1744,-2.1393,-2.1393,-2.1418,-2.1669,-2.2221,-2.2297,-2.2548,-2.308,-2.3872,0.0,-2.5384,-2.6122,-2.6841,-2.7534,-2.756,-2.9621,-3.3455,-3.4113,-3.6178,-3.9194,-3.7255,-3.4592,-3.1511,-3.0731,-3.0043,-2.9322,-2.738,-2.6602,-2.6632,-2.6542,-2.6123,-2.5585,-2.5525,-2.5083,-2.4455,-2.3819,-2.361,-2.361,-2.361,-2.361,-2.361,0.0,0.0,0.0,-2.3032,-2.4739,-2.6692,-2.6901,-2.9355,-3.2049,-3.3395,-3.4711,-3.5998,-3.7195,-3.7434,-3.7464,-3.7584,-3.8093,-3.8482,-3.8452,-3.8452,-3.8212,-3.7554,-3.7464,-3.7255,-3.6656,-3.7075,-3.6926,-3.5729,-3.6178,-3.6267,-3.5639,-3.5579,-3.5579,-3.5609,-3.5579,-3.5579,-3.5609,-3.5579,-3.5549,-3.5549,-3.6148,-3.6447,-3.6507,-3.7135,-3.7793,-3.8392,-3.8422,-3.8811,-3.9373,-3.9373,-3.9373,-3.9373,-3.9469,-3.9858,-4.0516,-4.1175,-4.1871,-4.253,-4.312,-4.3329,-4.3497,0.0,0.0,0.0,0.0,0.0,0.0,0.0,0.0,0.0,0.0,0.0,0.0,0.0,-2.182,-2.1493,-2.1493,-2.182,-2.2246,-2.2769,-2.2819,-2.3132,-2.3842,-2.3662,-2.4337,-2.6068,-2.5906,-2.639,-2.7585,-2.7585,-2.8963,-3.1599,-3.2706,-3.4083,-3.5639,-3.6237,-3.5579,-3.3902,-3.1539,-3.0372,-3.0043,-2.8487,-2.8368,-2.8906,-2.723,-2.6991,-2.735,-2.6063,-2.5442,-2.5202,-2.4956,-2.4597,-2.4246,-2.4246,-2.3969,-2.361,-2.361,-2.361,-2.355,-2.334,-2.3939,-2.4986,-2.6273,-2.747,-2.8816,-3.0582,-3.2018,-3.3185,-3.4052,-3.4951,-3.5669,-3.6118,-3.7045,-3.7614,-3.7225,-3.7494,-3.7554,-3.6896,-3.6806,-3.6746,-3.6507,-3.6297,-3.5998,-3.5549,-3.5729,-3.5759,-3.5519,-3.5519,-3.5519,-3.5519,-3.5519,-3.5519,-3.5519,-3.5519,-3.5519,-3.5519,-3.5729,-3.5848,-3.5878,-3.6507,-3.6956,-3.7195,-3.8033,-3.8512,-3.8781,-3.923,-3.9373,-3.9373,-3.9373,-3.9798,-4.0457,-4.1115,-4.1811,-4.247,-4.309,-4.329,-4.3369,0.0,0.0,0.0,0.0,0.0,-2.3095,-2.3095,-2.3095,-2.3095,-2.3095,0.0,0.0,0.0,0.0,-2.2246,-2.2046,-2.2343,-2.2719,-2.307,-2.3095,-2.3335,-2.3872,-2.3662,-2.4221,-2.5742,-2.5993,-2.6483,-2.7229,-2.7697,-2.8723,-3.0223,-3.133,-3.2437,-3.3544,-3.4651,-3.516,-3.5011,-3.2796,-3.1719,-3.136,-2.9864,-2.9894,-3.0672,-2.9175,-2.8996,-2.9415,-2.8043,-2.7146,-2.6542,-2.6093,-2.5495,-2.4903,-2.4664,-2.4126,-2.361,-2.361,-2.361,-2.361,-2.361,-2.361,-2.3969,-2.5525,-2.5944,-2.6452,-2.8483,-2.9774,-3.0823,-3.1929,-3.3066,-3.4023,-3.4711,-3.5699,-3.6357,-3.6178,-3.6686,-3.6866,-3.6237,-3.6148,-3.6148,-3.6148,-3.5759,-3.5519,-3.5519,-3.5519,-3.5519,-3.5519,-3.5519,0.0,-3.5519,-3.5519,-3.5519,-3.5519,-3.5519,-3.5519,-3.5519,-3.5519,-3.5519,-3.5519,-3.5938,-3.6387,-3.6836,-3.7674,-3.8302,-3.8751,-3.923,-3.9373,-3.9373,-3.9373,-3.9679,-4.0157,-4.1025,-4.1692,-4.2171,-4.3,-4.329,-4.329,0.0,0.0,-2.3853,-2.3246,-2.3145,-2.3145,-2.3145,-2.3145,-2.3145,-2.3145,0.0,0.0,0.0,0.0,0.0,-2.3221,-2.317,-2.317,-2.3145,-2.3145,-2.3145,-2.3145,-2.392,-2.4303,-2.4332,-2.6386,-2.7131,-2.6498,-2.7883,-2.888,-2.9507,-3.0135,-3.1451,-3.3304,-3.2706,-3.3155,-3.4444,-3.4444,-3.4053,-3.3365,-3.133,-3.0943,-3.169,-3.2228,-3.2049,-3.154,-3.1511,-3.0285,-2.8487,-2.7141,-2.6273,-2.5591,-2.4874,-2.4156,-2.364,-2.361,-2.361,-2.361,0.0,0.0,0.0,-2.4425,-2.4575,-2.5083,-2.7046,-2.8034,-2.9056,-3.0972,-3.1899,-3.2617,-3.3275,-3.3933,-3.4622,-3.531,-3.5998,-3.6237,-3.5579,-3.5519,-3.5519,-3.5519,-3.5519,-3.5519,-3.5519,-3.5519,-3.5519,-3.5519,-3.5519,-3.5519,-3.5519,-3.5519,-3.5519,-3.5519,-3.5519,-3.5519,-3.5519,-3.5519,-3.5519,-3.5519,-3.5519,-3.6148,-3.7345,-3.7404,-3.8123,-3.9313,-3.9373,-3.9373,-3.9373,-3.9373,-3.9373,-3.9523,-4.0876,-4.1422,-4.1534,-4.2811,-4.329,-4.329,0.0,-2.4858,-2.4531,-2.4349,-2.4324,-2.4324,-2.4324,-2.4324,-2.4324,0.0,0.0,0.0,-2.4349,-2.4833,-2.5084,-2.4933,-2.4908,-2.4757,-2.4349,-2.4324,-2.4324,-2.4324,-2.4545,-2.49,-2.5458,-2.6046,-2.6598,-2.7104,-2.7467,-2.7574,-2.7394,-2.8006,-2.885,-2.9842,-3.0105,-3.1279,-3.3036,-3.2557,-3.3365,-3.4681,-3.1719,-3.2078,-3.4173,-3.1928,-3.1539,-3.2138,-3.166,-3.1152,-3.0554,-2.9714,-2.8996,-2.8098,-2.6004,-2.4844,-2.4216,-2.3759,-2.361,-2.361,-2.361,0.0,0.0,0.0,0.0,0.0,-2.4567,-2.5585,-2.6722,-2.7739,-2.9265,-3.0582,-3.121,-3.1898,-3.2527,-3.3245,-3.4711,-3.5699,-3.5519,-3.5519,-3.5519,-3.5519,-3.5519,-3.5519,-3.5519,-3.5519,-3.5519,0.0,-3.5519,-3.5519,-3.5519,-3.5519,-3.5519,-3.5519,-3.5519,-3.5519,-3.5519,-3.5519,-3.5519,-3.5519,-3.5519,-3.5699,-3.6058,-3.6985,-3.7614,-3.8033,-3.899,-3.9373,-3.9373,-3.9373,-3.9373,-3.9523,-4.0876,-4.1422,-4.1534,-4.2811,-4.329,-4.329,-2.5586,-2.536,-2.5051,-2.4825,-2.5008,-2.5134,-2.5134,-2.5134,-2.5134,0.0,0.0,0.0,-2.5812,-2.6113,-2.6113,-2.5636,-2.5586,-2.5385,-2.4825,-2.48,-2.48,-2.48,-2.48,-2.5,-2.5427,-2.6012,-2.6448,-2.6714,-2.7087,-2.7089,-2.6694,-2.6635,-2.7398,-2.8771,-2.8944,-3.0133,-3.2049,-3.166,-3.2706,-3.4532,-3.2826,-3.3514,-3.534,-3.3933,-3.3873,-3.4502,-3.4082,-3.3603,-3.3005,-3.2078,-3.0791,-2.9202,-2.6782,-2.5944,-2.5674,-2.4717,-2.4627,-2.4777,-2.4507,-2.4448,-2.4448,-2.4448,0.0,0.0,-2.4007,-2.4605,-2.5352,-2.6033,-2.732,-2.8607,-2.9535,-3.0253,-3.0941,-3.1569,-3.3125,-3.4352,-3.4622,-3.4681,-3.4681,-3.4681,-3.4681,-3.4681,-3.4681,-3.4681,-3.4771,-3.507,-3.507,-3.519,-3.5489,-3.5519,-3.5519,-3.5519,-3.5519,-3.5519,-3.5519,-3.5519,-3.5519,-3.5519,-3.5519,-3.5639,-3.5938,-3.6956,-3.7554,-3.7883,-3.896,-3.9373,-3.9373,-3.9373,-3.9373,-3.9523,-4.0876,-4.1422,-4.1534,-4.2811,-4.329,-4.329,0.0,-2.5686,-2.5561,-2.5159,-2.5485,-2.5812,-2.5862,-2.5862,-2.5862,0.0,-2.6474,-2.7077,-2.7595,-2.7645,-2.7218,-2.6163,-2.6013,-2.5711,-2.5134,-2.5084,-2.5026,-2.5008,-2.5008,-2.5008,-2.5008,-2.622,-2.6585,-2.6011,-2.6779,-2.7026,-2.6857,-2.5903,-2.6748,-2.9057,-2.8397,-2.9347,-3.1391,-3.1364,-3.2109,-3.3335,-3.3993,-3.4891,-3.5938,-3.6836,-3.7285,-3.7404,-3.7404,-3.6686,-3.5519,-3.4173,-3.1958,0.0,0.0,0.0,0.0,-2.6183,-2.6183,-2.6482,-2.5974,-2.5824,-2.5794,-2.5734,-2.5382,0.0,-2.4664,-2.4724,-2.4933,-2.5315,-2.5974,-2.6841,-2.8038,-2.8876,-2.9592,-3.0193,-3.13,-3.2347,-3.3155,-3.3395,-3.3455,-3.3305,-3.3395,-3.3455,-3.3395,-3.3455,-3.3754,-3.4354,-3.4384,-3.4651,-3.534,-3.54,-3.5429,-3.5519,-3.5519,-3.5519,-3.5519,-3.5519,-3.5519,-3.5519,-3.5519,-3.5818,-3.6387,-3.7105,-3.7734,-3.8332,-3.908,-3.9373,-3.9373,-3.9373,-3.9373,-3.9559,-4.0786,-4.1324,-4.1534,-4.2761,-4.323,-4.329,-2.6348,-2.6323,-2.6424,-2.6741,-2.6892,-2.7092,-2.7544,-2.762,-2.762,-2.762,-2.8499,-2.9352,-2.9905,-2.9955,-2.9704,-2.9026,-2.8549,-2.7871,-2.6866,-2.6791,-2.6615,-2.6197,-2.6172,-2.6172,-2.6172,-2.6443,-2.6591,-2.6527,-2.6717,-2.6573,-2.6096,-2.5883,-2.6448,-2.7581,-2.6728,-2.7984,-3.0675,-3.0573,-3.1043,-3.1959,-3.2647,-3.4891,-3.7674,-3.6387,-3.6507,-3.7404,-3.7404,-3.7255,-3.6836,-3.5549,-3.3365,-3.0972,0.0,0.0,0.0,-2.7285,0.0,0.0,0.0,0.0,0.0,0.0,-2.7111,0.0,-2.5083,-2.5412,-2.5794,-2.4298,-2.4956,-2.5884,-2.6153,-2.7171,-2.8214,-2.8876,-2.9205,-2.9953,-3.166,-3.2826,-3.3095,-3.2019,-3.2856,-3.3275,-3.2766,-3.3185,-3.3544,-3.3694,-3.3694,-3.3993,-3.4683,-3.4713,-3.4921,-3.5489,-3.5519,-3.5519,-3.5519,-3.5519,-3.5519,-3.5519,-3.5519,-3.5579,-3.5729,-3.6896,-3.7494,-3.7674,-3.8901,-3.9373,-3.9373,-3.9373,-3.9373,-3.9499,-4.0277,-4.0905,-4.1512,-4.2291,-4.288,-4.329,-2.6499,-2.6499,-2.6675,-2.7228,-2.7519,-2.7871,-2.8423,-2.8524,-2.8825,-2.9628,-3.0733,-3.1311,-3.1035,-3.1009,-3.0557,-2.9453,-2.9063,-2.8574,-2.7745,-2.7695,-2.757,-2.7329,-2.7293,-2.7178,-2.6901,-2.6901,-2.6797,-2.6591,-2.6282,-2.6154,-2.6187,-2.5621,-2.6342,-2.806,-2.6925,-2.7892,-3.0397,-2.9854,-3.0492,-3.1984,-3.342,-3.519,-3.6956,-3.6956,-3.7554,-3.8422,-3.8422,-3.7973,-3.7165,-3.5549,-3.4113,0.0,-3.1031,-3.0283,-2.9894,0.0,-2.8816,-2.8547,0.0,0.0,0.0,-2.7739,0.0,0.0,0.0,-2.5854,-2.5914,-2.5226,-2.5375,-2.5794,-2.6452,-2.6896,-2.7315,-2.8004,-2.8368,-2.8816,-2.9475,-3.0702,-3.13,-3.0642,-3.115,-3.142,-3.1091,-3.1629,-3.2287,-3.2946,-3.3305,-3.3634,-3.3963,-3.4324,-3.4653,-3.4981,-3.534,-3.5519,-3.5519,-3.5519,-3.5519,-3.5519,-3.5519,-3.5519,-3.5549,-3.6507,-3.7135,-3.7464,-3.8482,-3.911,-3.9373,-3.9373,-3.9373,-3.9499,-4.0157,-4.0816,-4.1482,-4.2141,-4.2761,-4.329,-2.6524,-2.6575,-2.6826,-2.7344,-2.7896,-2.8448,-2.8963,-2.9063,-2.9729,-3.1486,-3.2591,-3.2968,-3.2265,-3.1913,-3.1311,-3.0242,-2.949,-2.9026,-2.89,-2.8499,-2.8222,-2.8122,-2.8097,-2.7896,-2.7444,-2.7444,-2.7203,-2.665,-2.6197,-2.6113,-2.6474,-2.5561,-2.6414,-2.8689,-2.7723,-2.8348,-3.0166,-2.9736,-3.0576,-3.2352,-3.4375,-3.5386,-3.5878,-3.7554,-3.8631,-3.923,-3.923,-3.8512,-3.7315,-3.5522,-3.4803,-3.4294,-3.1988,-3.1749,0.0,0.0,0.0,0.0,0.0,0.0,0.0,0.0,0.0,-2.8423,0.0,0.0,0.0,-2.6572,0.0,0.0,0.0,0.0,0.0,0.0,0.0,0.0,0.0,-2.8453,0.0,-2.9202,-2.9442,-2.9562,-2.9415,-3.0073,-3.1001,-3.2198,-3.2826,-3.3185,-3.3305,-3.3933,-3.4384,-3.4503,-3.516,-3.5519,-3.5519,-3.5519,-3.5519,-3.5519,-3.5519,-3.5519,-3.5519,-3.6178,-3.6836,-3.7434,-3.8093,-3.8781,-3.9373,-3.9373,-3.9373,-3.9433,-4.0008,-4.0696,-4.1482,-4.2021,-4.2671,-4.329,-2.66,-2.6876,-2.7369,-2.7921,-2.8473,-2.9026,-2.9603,-2.9704,-3.0457,-3.2659,-3.342,-3.4123,-3.4931,-3.3771,-3.3395,-3.463,-3.1662,-3.0281,-3.1662,-2.993,-2.8624,-2.8122,-2.8097,-2.8072,-2.8021,-2.8021,-2.7745,-2.7228,-2.7118,-2.6901,-2.6499,-2.6373,-2.6857,-2.7868,-2.8285,-2.8992,-2.9924,-3.1003,-3.1729,-3.2224,-3.3623,-3.5062,-3.6447,-3.7225,-3.7943,-3.8512,-3.8512,-3.8422,-3.8063,0.0,-3.5878,-3.522,0.0,-3.2946,-3.1809,-3.2856,0.0,0.0,0.0,0.0,0.0,0.0,-3.2018,0.0,0.0,0.0,-2.8663,-2.6931,0.0,0.0,0.0,0.0,0.0,0.0,0.0,0.0,-2.6836,-2.7375,-2.7824,-2.7824,-2.8873,-2.9382,-2.8757,-2.9804,-3.0821,-3.157,-3.169,-3.1989,-3.2557,-3.3245,-3.3873,-3.4474,-3.516,-3.5519,-3.5519,-3.5519,-3.5519,-3.5519,-3.5519,-3.5519,-3.5519,-3.6178,-3.6836,-3.7434,-3.8093,-3.8781,-3.9373,-3.9373,-3.9373,-3.9403,-3.9463,-4.0277,-4.1384,-4.1512,-4.2282,-4.329,-2.7469,-2.7595,-2.7921,-2.8473,-2.8737,-2.9088,-2.9704,-3.1411,-3.2867,-3.347,-3.4876,-3.6107,-3.6885,-3.5504,-3.4731,-3.5433,-3.3194,-3.1712,-3.1738,-3.0281,-2.9327,-2.9101,-2.9076,-2.8925,-2.8562,-2.8537,-2.8323,-2.777,-2.777,-2.7645,-2.7419,-2.7419,-2.7889,-2.867,-2.8446,-2.8795,-2.9556,-2.9645,-3.0228,-3.1261,-3.2709,-3.4243,-3.5737,-3.693,-3.7823,-3.8452,-3.8841,-3.8482,-3.7674,0.0,-3.6297,0.0,0.0,0.0,0.0,-3.3934,0.0,0.0,0.0,0.0,0.0,0.0,0.0,0.0,-3.0103,0.0,-2.9472,0.0,0.0,0.0,0.0,0.0,0.0,0.0,-2.7675,0.0,0.0,0.0,-2.7585,0.0,0.0,0.0,-2.8577,-2.9445,-3.0253,-3.0853,-3.1271,-3.163,-3.1899,-3.2557,-3.3215,-3.3873,-3.4562,-3.51,-3.5519,-3.5519,-3.5519,-3.5519,-3.5519,-3.5519,-3.5519,-3.6178,-3.6836,-3.7434,-3.8093,-3.8781,-3.9373,-3.9373,-3.9373,-3.9373,-3.9373,-3.9978,-4.0846,-4.1235,-4.1953,-4.2821,-2.8524,-2.8448,-2.8448,-2.8813,-2.9013,-2.9352,-2.993,-3.2164,-3.3947,-3.4299,-3.5755,-3.7287,-3.8768,-3.7437,-3.6787,-3.7689,-3.5604,-3.3847,-3.3018,-3.1386,-3.0256,-2.9804,-2.9804,-2.9603,-2.9176,-2.9176,-2.8863,-2.8323,-2.8323,-2.8247,-2.8097,-2.8097,-2.8435,-2.9019,-2.8959,-2.9149,-2.9512,-2.9446,-3.0028,-3.1198,-3.2663,-3.4306,-3.6061,-3.7223,-3.8093,-3.8721,-3.902,-3.8631,-3.7823,-3.7015,-3.6866,0.0,-3.5492,-3.4891,-3.4771,0.0,0.0,0.0,-3.3993,0.0,0.0,0.0,0.0,0.0,0.0,0.0,0.0,0.0,0.0,0.0,0.0,0.0,0.0,0.0,0.0,-2.7824,0.0,-2.7585,0.0,0.0,0.0,0.0,0.0,-2.9026,-2.9654,-3.0432,-3.0943,-3.1301,-3.1481,-3.2138,-3.2826,-3.3484,-3.4174,-3.4801,-3.5489,-3.5519,-3.5519,-3.5519,-3.5519,-3.5519,-3.5519,-3.6178,-3.6836,-3.7434,-3.8093,-3.8781,-3.9373,-3.9373,-3.9373,-3.9373,-3.9373,-3.9709,-4.0217,-4.0876,-4.1692,-4.247,-2.9628,-2.9277,-2.8863,-2.8888,-2.9402,-2.9955,-3.0507,-3.111,-3.2466,-3.5082,-3.5508,-3.6987,-4.0774,-3.9747,-4.0049,-4.3263,-3.9572,-3.7036,-3.701,-3.3947,-3.1436,-2.9854,-2.9804,-2.9779,-2.9754,-2.9754,-2.9478,-2.8863,-2.8863,-2.8587,-2.8097,-2.8097,-2.8097,-2.822,-3.0199,-3.0606,-2.992,-3.185,-3.2686,-3.2829,-3.3919,-3.5911,-3.8297,0.0,-3.8781,-3.932,-3.8661,0.0,0.0,-3.7823,-3.7793,0.0,0.0,0.0,0.0,0.0,0.0,0.0,0.0,0.0,0.0,-3.4623,0.0,0.0,0.0,0.0,-3.2048,0.0,0.0,0.0,0.0,0.0,-2.9382,-2.8697,-2.8577,0.0,0.0,0.0,0.0,0.0,0.0,0.0,0.0,-2.8637,-2.9146,0.0,-3.0522,-3.0821,-3.1481,-3.2138,-3.2826,-3.3484,-3.4174,-3.4801,-3.5489,-3.5519,-3.5519,-3.5519,-3.5519,-3.5519,-3.5519,-3.6178,-3.6836,-3.7434,-3.8093,-3.8781,-3.9373,-3.9373,-3.9373,-3.9373,-3.9373,-3.9403,-3.9493,-4.0187,-4.1302,-4.241,-2.9754,-2.9628,-2.9503,-2.9503,-2.9654,-3.0105,-3.0984,-3.2541,-3.4726,-3.7889,-3.8868,-4.0924,-4.5221,-4.4543,-4.4242,-4.5372,-4.2735,-4.04,-3.8944,-3.6056,-3.3978,-3.3093,-3.234,-3.1612,-3.0859,-3.0859,-3.0407,-2.9503,-2.9503,-2.9402,-2.9227,-2.9227,-2.9227,-2.929,-2.9961,-3.0101,-2.9893,-3.1269,-3.1888,-3.2019,-3.3873,-3.6001,-3.8086,0.0,-3.8542,-3.8781,-3.899,-3.8931,0.0,-3.8212,-3.8212,-3.8242,-3.7375,-3.6656,-3.6148,-3.6148,-3.5669,0.0,0.0,0.0,-3.534,-3.4683,0.0,0.0,0.0,0.0,0.0,0.0,0.0,0.0,0.0,0.0,-3.0642,-2.9983,-2.9505,-2.9175,0.0,0.0,0.0,0.0,0.0,0.0,0.0,0.0,0.0,0.0,-3.0283,0.0,-3.1481,-3.172,-3.2348,-3.3455,-3.3724,-3.4352,-3.5489,-3.5519,-3.5519,-3.5519,-3.5519,-3.5519,-3.5549,-3.6596,-3.7225,-3.7464,-3.8601,-3.92,-3.9373,-3.9373,-3.9373,-3.9373,-3.9373,-3.9373,-3.9499,-4.0157,-4.0965,-4.1871,-3.0055,-3.008,-3.003,-2.9829,-3.0105,-3.0658,-3.1537,-3.4073,-3.6885,-3.9622,-4.1455,-4.3966,-4.7807,-4.7606,-4.733,-4.7732,-4.61,-4.3689,-4.0501,-3.8793,-3.6935,-3.4781,-3.4223,-3.3345,0.0,-3.1788,-3.106,-2.9804,-2.998,-2.998,-2.9804,-2.9804,-2.9804,-2.9804,-3.0005,-3.008,-3.0156,-3.1235,-3.1788,-3.2214,-3.4418,-3.607,0.0,0.0,-3.8296,-3.876,0.0,-3.8822,-3.8715,-3.8328,-3.8436,-3.8631,-3.7973,-3.7494,-3.7105,-3.6896,-3.6507,-3.6178,-3.6178,-3.6178,0.0,-3.5639,-3.537,0.0,-3.4352,0.0,-3.4592,0.0,0.0,0.0,0.0,0.0,0.0,-3.13,-3.0462,-2.9834,0.0,-2.9621,0.0,0.0,0.0,0.0,0.0,0.0,0.0,-2.9532,-2.9953,-3.0582,0.0,-3.1511,-3.2108,-3.3455,-3.3484,-3.4143,-3.5489,-3.5519,-3.5519,-3.5519,-3.5519,-3.5519,-3.5549,-3.6836,-3.7404,-3.7494,-3.8805,-3.9373,-3.9373,-3.9373,-3.9373,-3.9373,-3.9373,-3.9559,-3.9828,-4.0247,-4.0965,-4.1893,-3.0507,-3.0658,-3.0532,-3.0005,-3.0758,-3.1637,-3.224,-3.5579,-3.8693,-4.0475,-4.3112,-4.5874,-4.8686,-4.8987,-4.9389,-5.0419,-4.9515,-4.6853,-4.1978,-4.2082,-4.0174,0.0,-3.5483,-3.4951,-3.3287,0.0,0.0,0.0,-3.0357,-3.0331,-2.9804,-2.9804,-2.9804,-2.9804,-3.0331,-3.0583,-3.0633,-3.1712,-3.2516,-3.3298,-3.5358,-3.6186,-3.6191,-3.6781,-3.7957,-3.9224,-3.816,-3.8472,-3.9192,-3.8219,-3.8546,-3.9284,-3.856,-3.8387,-3.8272,-3.7575,-3.74,-3.7404,-3.7404,-3.7404,-3.7404,-3.7375,-3.6926,0.0,0.0,0.0,-3.519,0.0,0.0,0.0,0.0,0.0,0.0,-3.2497,-3.142,-3.0342,0.0,0.0,-2.9681,0.0,0.0,0.0,0.0,-2.8094,-2.8244,-2.9562,-2.9651,-3.0193,0.0,-3.1511,-3.2108,-3.3455,-3.3484,-3.4143,-3.5489,-3.5519,-3.5519,-3.5519,-3.5519,-3.5519,-3.5549,-3.6836,-3.7404,-3.7494,-3.8805,-3.9373,-3.9373,-3.9373,-3.9373,-3.9373,-3.9469,-3.9888,-4.0487,-4.0487,-4.1332,-4.25,-3.0583,-3.126,-3.1763,-3.1612,-3.1813,-3.2466,-3.3872,-3.6684,-3.9823,-4.3137,-4.5974,-4.8761,-5.1548,-5.1875,-5.18,-5.1674,-5.1046,-4.9565,-4.7029,-4.5472,0.0,-4.0978,-3.9421,-3.7462,-3.4931,-3.4374,-3.2867,-3.0407,-3.0557,-3.0331,-2.9804,-2.9804,-2.9804,-2.9804,-2.993,-3.0005,-3.008,-3.116,-3.2164,-3.3187,-3.4103,-3.4765,-3.5115,0.0,-3.6082,-3.7187,-3.7657,-3.7994,-3.8294,-3.8833,-3.9192,-3.9235,-3.8267,-3.8178,-3.8191,-3.7236,-3.7175,-3.7404,-3.7404,-3.7404,-3.7285,-3.6836,-3.6596,-3.6297,0.0,0.0,0.0,0.0,0.0,0.0,0.0,0.0,0.0,0.0,0.0,0.0,0.0,0.0,0.0,-3.0342,0.0,0.0,0.0,-2.9202,-2.9442,-3.0193,-3.0253,-3.0642,-3.1451,0.0,-3.2108,-3.3455,-3.3484,-3.4143,-3.5489,-3.5519,-3.5519,-3.5519,-3.5519,-3.5519,-3.5549,-3.6836,-3.7404,-3.7494,-3.8805,-3.9373,-3.9373,-3.9373,-3.9373,-3.9433,-3.9948,-4.0846,-4.1901,-4.1901,-4.2111,-4.25,-3.1587,-3.2943,-3.4022,-3.4022,-3.5027,-3.6006,-3.6458,-3.8266,-4.0802,-4.4192,-4.7054,-4.9364,-5.0946,-5.2201,-5.2804,-5.2503,-5.2176,-5.0971,-4.856,0.0,0.0,-4.3112,-4.1781,-3.9722,-3.6636,-3.5558,0.0,-3.0959,-3.0959,-3.0557,-2.9804,-2.9804,-2.9804,-2.9804,-2.9804,-2.9804,-2.988,-3.1185,-3.2541,-3.3822,-3.4148,-3.4299,0.0,-3.4358,-3.4573,-3.502,-3.6047,-3.671,-3.7175,-3.7814,-3.8003,-3.7965,-3.7814,-3.7957,-3.7952,-3.6864,-3.7368,-3.8167,-3.7712,-3.7682,-3.7823,-3.7793,-3.7135,-3.6347,-3.5857,-3.5911,-3.5839,0.0,-3.5495,-3.5818,0.0,0.0,0.0,0.0,0.0,0.0,0.0,0.0,0.0,0.0,-3.112,0.0,0.0,-2.9924,-2.9834,-3.0462,-3.0492,-3.0791,0.0,0.0,-3.2437,-3.3455,-3.4053,-3.4741,-3.5489,-3.5789,-3.5789,-3.5519,-3.5519,-3.5519,-3.5549,-3.6537,-3.7165,-3.7464,-3.8512,-3.914,-3.9373,-3.9373,-3.9373,-3.9529,-4.0457,-4.1482,-4.244,-4.2671,-4.2791,-4.2851,-3.3068,-3.4997,-3.638,-3.6329,-3.8617,-4.0325,-3.9722,-4.0676,-4.2384,-4.4844,-4.7581,-4.9314,-4.9314,-5.1473,-5.2929,-5.2929,-5.2929,-5.1624,-4.856,-4.959,-4.8284,-4.3714,-4.3237,-4.1605,-3.8417,-3.6634,-3.4424,0.0,-3.1486,-3.0884,-2.9905,-2.9829,-2.9804,-2.9804,-2.9804,-2.9804,-2.9905,-3.1436,-3.2993,-3.4399,-3.455,-3.4324,-3.3897,-3.3897,-3.3545,-3.324,-3.4241,-3.5196,-3.6013,-3.6172,-3.6212,-3.6369,-3.7291,-3.7587,-3.7434,-3.6487,-3.7596,-3.8943,-3.7881,-3.8033,-3.8596,-3.8871,-3.7739,-3.6403,-3.5845,-3.5556,-3.5123,-3.4041,-3.4739,-3.5457,0.0,0.0,0.0,0.0,0.0,0.0,0.0,0.0,0.0,0.0,0.0,0.0,0.0,-3.0552,-3.0073,-3.0582,-3.0642,0.0,0.0,0.0,-3.2826,-3.3484,-3.4711,-3.5489,-3.5759,-3.6148,-3.6148,-3.5759,-3.5579,-3.5519,-3.5519,-3.6178,-3.6836,-3.7434,-3.8093,-3.8781,-3.9373,-3.9373,-3.9529,-3.9798,-4.1025,-4.1961,-4.259,-4.312,-4.329,-4.329,-3.4223,-3.5479,-3.6254,-3.5755,-3.8366,-4.1204,-4.3288,-4.5321,-4.6954,-4.7908,-5.0469,-5.2201,-5.2201,-5.2628,-5.2929,-5.2929,-5.2929,0.0,0.0,0.0,0.0,-4.6502,-4.4644,-4.2534,-4.0124,-3.799,-3.5755,-3.3445,-3.2064,-3.1085,-3.0457,-3.0005,-2.9804,-2.9804,-2.9804,-2.9804,-2.988,-3.1035,0.0,-3.2742,-3.3671,-3.3972,-3.3897,-3.3897,-3.3545,-3.3187,-3.3788,-3.4425,-3.5102,-3.5934,-3.6212,-3.6251,-3.6408,-3.6487,-3.6448,-3.6251,-3.7098,-3.7852,-3.676,-3.7803,-3.8775,-3.6982,-3.6621,-3.6324,-3.471,-3.4687,-3.4571,-3.3129,-3.4274,-3.5261,-3.4442,0.0,0.0,0.0,0.0,0.0,0.0,0.0,0.0,0.0,0.0,-3.2318,0.0,0.0,0.0,-3.1331,-3.1331,0.0,0.0,0.0,-3.2826,0.0,-3.4233,0.0,0.0,0.0,-3.6148,-3.7075,-3.5998,-3.5519,-3.5519,-3.6178,-3.6836,-3.7434,-3.8093,-3.8781,-3.9373,-3.9373,-4.0068,-4.1115,-4.1931,-4.2581,-4.314,-4.326,-4.329,-4.329,-3.6257,-3.7086,-3.7989,-3.8818,-4.1505,-4.4267,-4.6451,-4.8912,-5.0092,-4.8937,-4.9941,-5.077,-5.077,-5.2076,-5.2929,-5.2929,-5.2678,-5.2151,-5.1348,-5.0494,-4.9163,-4.723,-4.5547,-4.3514,-4.1003,-3.8467,-3.6232,-3.4324,-3.2365,-3.1135,-3.0608,-3.0055,-2.9804,-2.9804,-3.008,-3.0532,-3.111,0.0,0.0,-3.3928,-3.4223,-3.45,-3.468,-3.4424,-3.4148,-3.3972,-3.4223,-3.4476,-3.4822,-3.5553,-3.5301,-3.4692,-3.5238,-3.544,-3.5319,-3.4774,-3.5722,-3.6749,-3.5722,-3.669,-3.7652,-3.606,-3.578,-3.5518,-3.4108,-3.3741,-3.3515,-3.2755,-3.3359,-3.4007,-3.4007,-3.4574,0.0,0.0,0.0,0.0,0.0,0.0,-3.4024,0.0,0.0,0.0,0.0,0.0,0.0,0.0,0.0,0.0,0.0,0.0,-3.3155,0.0,0.0,0.0,-3.6417,0.0,-3.6148,-3.6417,-3.5789,-3.5519,-3.5519,-3.6178,-3.6836,-3.7434,-3.8093,-3.8781,-3.9439,-3.9798,-4.0487,-4.1482,-4.2141,-4.2761,-4.329,-4.329,-4.329,-4.329,-3.8542,-3.917,-4.0277,-4.2363,-4.4995,-4.728,-4.8586,-5.1147,-5.2126,-4.9941,-4.9665,-4.9665,-4.9665,-5.1624,-5.2929,-5.2929,-5.2427,-5.1875,-5.1322,-5.0619,-4.9364,-4.738,-4.6125,-4.4292,-4.1756,-3.8969,-3.6734,-3.5077,-3.2842,-3.1486,-3.0934,-3.0382,-3.0131,-3.0156,0.0,0.0,0.0,0.0,-3.3972,-3.5282,-3.4981,-3.5107,-3.5458,-3.5006,-3.4781,-3.468,-3.4806,-3.4781,-3.4785,-3.5313,-3.4563,-3.3611,-3.458,-3.4737,-3.4402,-3.3666,-3.4609,-3.5654,-3.4609,-3.5487,-3.641,-3.5306,-3.4873,-3.4466,-3.3487,-3.2828,-3.24,-3.2074,-3.2155,-3.2593,-3.3533,-3.4509,0.0,0.0,0.0,0.0,0.0,0.0,0.0,0.0,0.0,0.0,-3.2706,0.0,0.0,0.0,0.0,0.0,-3.169,0.0,0.0,0.0,0.0,-3.6148,-3.5908,0.0,-3.6148,-3.5908,-3.5639,-3.5579,-3.5729,-3.6237,-3.6896,-3.7644,-3.8153,-3.8871,-3.9679,-4.0337,-4.0995,-4.1692,-4.2312,-4.288,-4.329,-4.329,-4.329,-4.329,-4.0573,-4.148,-4.2439,-4.4091,-4.6702,-4.8586,-4.8736,-5.1147,-5.2829,-5.2578,-5.2528,-5.2528,-5.2528,-5.2779,-5.2929,-5.2929,-5.2427,-5.1875,-5.1322,-5.0268,-4.9113,-4.7883,-4.6326,-4.4644,-4.2861,-4.0124,-3.7938,0.0,-3.3997,-3.2616,-3.2064,-3.1512,-3.1235,0.0,0.0,0.0,0.0,-3.2842,-3.3746,-3.4781,-3.5232,-3.5458,-3.5483,-3.5433,-3.5107,-3.4731,-3.5232,-3.5107,-3.4801,-3.5319,-3.5072,-3.4653,-3.5243,-3.4745,-3.4045,-3.4418,-3.4718,-3.4635,-3.3556,-3.4721,-3.5873,-3.4233,-3.39,-3.3581,-3.2429,-3.2099,-3.1675,-3.0356,-3.0733,-3.1609,-3.2558,-3.3498,-3.4143,0.0,0.0,0.0,0.0,0.0,-3.54,-3.54,0.0,0.0,-3.3395,-3.2228,0.0,0.0,-3.1511,0.0,0.0,0.0,0.0,-3.4384,-3.519,-3.6118,-3.7225,-3.6148,-3.6148,-3.7225,-3.6058,-3.5818,-3.6387,-3.6447,-3.7135,-3.8302,-3.8362,-3.911,-4.0367,-4.1025,-4.1722,-4.2381,-4.3,-4.323,-4.329,-4.329,-4.329,-4.329,-4.4091,-4.4242,-4.4895,-4.7205,-4.8259,0.0,0.0,-5.2201,-5.2929,-5.2929,-5.2929,-5.2929,-5.2929,-5.2929,-5.2929,-5.2929,-5.2126,-5.1523,-5.1297,-5.0218,-4.9088,-4.7958,-4.6979,-4.5522,-4.3514,-4.1103,-3.9044,0.0,0.0,0.0,-3.3219,-3.2315,0.0,0.0,0.0,-3.2516,-3.2817,-3.4048,-3.4781,-3.5232,-3.5805,-3.6031,-3.6031,-3.6031,-3.5906,-3.573,-3.5956,-3.5881,-3.573,-3.5956,-3.5454,-3.467,-3.4576,-3.4266,-3.3859,-3.3751,-3.3768,-3.3641,-3.324,-3.4178,-3.4901,-3.323,-3.3294,-3.3503,-3.2263,-3.1565,-3.1048,-3.0712,-3.0932,-3.1315,-3.1683,-3.2522,-3.3359,-3.391,0.0,0.0,0.0,0.0,0.0,-3.5424,0.0,-3.4114,0.0,-3.2886,0.0,0.0,0.0,0.0,0.0,0.0,0.0,-3.4474,0.0,-3.5759,-3.6267,-3.5759,-3.5968,-3.6836,-3.6327,-3.6417,-3.7045,-3.7434,-3.8123,-3.902,-3.9439,-3.9888,-4.0487,-4.1572,-4.2171,-4.247,-4.306,-4.329,-4.329,-4.329,-4.329,-4.329,-4.7079,-4.6979,-4.7506,0.0,-5.0243,-5.067,-5.2628,-5.2929,-5.2929,-5.2929,-5.2929,-5.2929,-5.2929,-5.2929,-5.2854,-5.2703,-5.1825,-5.1197,-5.1046,-4.9967,-4.8912,-4.7958,-4.7255,0.0,-4.384,-4.1957,-4.0099,-3.8266,-3.6358,0.0,0.0,0.0,0.0,0.0,-3.3194,-3.3646,-3.3872,-3.5006,-3.5583,-3.5805,-3.6207,-3.6405,-3.6405,-3.6405,-3.6405,-3.6405,-3.6405,-3.6405,-3.6405,-3.6405,-3.5902,-3.5102,-3.455,-3.4274,-3.4022,-3.347,-3.3194,-3.3111,-3.3111,-3.3641,-3.3933,-3.2752,-3.2874,-3.3126,-3.224,-3.1428,-3.0857,-3.0983,-3.1005,-3.0991,-3.0835,-3.1536,-3.2415,-3.3052,0.0,0.0,0.0,-3.4509,0.0,-3.5034,-3.4731,-3.4503,-3.4503,-3.3455,0.0,0.0,0.0,0.0,0.0,0.0,0.0,0.0,0.0,0.0,-3.5519,-3.5519,-3.5848,-3.6477,-3.6477,-3.6896,-3.7734,-3.8392,-3.896,-3.9469,-4.0127,-4.0516,-4.0786,-4.1931,-4.25,-4.2701,-4.315,-4.329,-4.329,-4.329,-4.329,-4.3319,-4.9113,-4.954,-5.0243,-5.2503,-5.2879,-5.2879,-5.2929,-5.2929,-5.2929,-5.2929,-5.2929,-5.2929,-5.2929,-5.2929,-5.2703,-5.2176,-5.1599,-5.1046,-5.0469,-4.9389,-4.851,0.0,0.0,-4.5522,-4.384,-4.2766,-4.1106,-3.8919,0.0,0.0,-3.5458,0.0,-3.47,-3.4675,-3.4655,-3.4956,-3.5483,-3.5483,-3.5855,-3.6405,-3.6405,-3.6405,-3.6405,-3.6405,-3.6405,-3.6405,-3.6405,-3.6405,-3.6405,-3.6405,-3.6405,-3.6279,-3.5658,-3.5107,-3.4555,-3.4048,-3.3495,-3.3111,-3.3111,-3.3111,-3.3111,-3.3111,-3.2641,-3.2215,-3.219,-3.1763,-3.1235,-3.0708,-3.0608,-3.0432,-2.9918,-3.0582,-3.1204,-3.1204,0.0,0.0,0.0,0.0,0.0,-3.4143,-3.4316,-3.4503,-3.4503,-3.3873,0.0,0.0,0.0,0.0,0.0,0.0,0.0,-3.5459,-3.5519,0.0,-3.5519,-3.5519,-3.5848,-3.6477,-3.6477,-3.7135,-3.8392,-3.908,-3.9373,-3.9469,-4.0127,-4.0756,-4.1452,-4.2141,-4.2731,-4.329,-4.329,-4.329,-4.329,-4.329,-4.329,-4.3379,-5.1649,-5.1875,-5.2101,-5.2804,-5.2929,-5.2929,-5.2929,-5.2929,-5.2929,-5.2929,-5.2929,-5.2929,-5.2929,-5.2929,-5.2854,0.0,-5.1825,-5.1197,0.0,-4.9967,-4.9088,-4.851,-4.7782,-4.6803,-4.5547,-4.4041,-4.2559,-4.1157,0.0,0.0,0.0,-3.6659,-3.6207,-3.5855,-3.6232,-3.6508,-3.6684,-3.7061,-3.7337,-3.7487,-3.7487,-3.7487,-3.7437,-3.7061,-3.6983,-3.6933,-3.6531,-3.6405,-3.6405,-3.6405,-3.6405,-3.638,-3.6157,-3.5454,-3.458,-3.4073,-3.352,-3.3244,-3.3997,-3.3646,-3.3212,-3.3545,-3.3219,-3.2692,-3.229,-3.1788,-3.1336,-3.1185,-3.0859,-3.0557,-3.0382,-3.0303,-3.0457,-3.1119,-3.1156,0.0,-3.2451,0.0,-3.3636,-3.3945,-3.4695,-3.519,-3.519,-3.4562,0.0,0.0,0.0,0.0,0.0,0.0,0.0,0.0,-3.5519,0.0,-3.5519,-3.5938,-3.6477,-3.7135,-3.7584,-3.8242,-3.911,-3.9798,-4.0098,-4.0157,-4.1265,-4.1901,-4.2141,-4.2761,-4.315,-4.329,-4.329,-4.329,-4.329,-4.329,-4.3589,-4.3977,-5.2854,-5.2929,-5.2929,-5.2929,-5.2929,-5.2929,-5.2929,-5.2929,-5.2929,-5.2929,-5.2929,-5.2929,-5.2929,-5.2929,0.0,-5.2628,-5.18,-5.1197,-5.0971,-4.9916,-4.9038,-4.846,-4.7908,-4.7104,-4.6024,-4.4769,0.0,-4.2514,-4.0953,-3.9572,-3.8316,-3.7764,-3.7312,-3.6985,-3.7337,-3.7487,-3.7513,-3.7864,-3.8015,-3.8015,-3.8015,-3.8015,-3.7965,-3.7613,-3.7362,-3.7136,-3.6832,-3.6581,-3.6405,-3.6405,-3.6405,-3.638,-3.6107,-3.5579,-3.4906,-3.4625,-3.3972,-3.3545,-3.4223,-3.3746,-3.3169,-3.3495,-3.3345,-3.2993,-3.2616,-3.2265,-3.1964,-3.1738,-3.1286,-3.0859,-3.0658,-3.0156,-3.0011,-3.0582,-3.0495,-3.0582,-3.1452,0.0,-3.2806,0.0,0.0,0.0,0.0,-3.513,-3.504,0.0,0.0,0.0,0.0,0.0,0.0,-3.5489,-3.5519,-3.5639,-3.5878,-3.6267,-3.6926,-3.7793,-3.8691,-3.9379,-3.9798,-4.0457,-4.0756,-4.0816,-4.1931,-4.241,-4.244,-4.306,-4.329,-4.329,-4.329,-4.329,-4.3319,-4.3559,-4.3958,-4.4377,-5.2929,-5.2929,-5.2929,-5.2929,-5.2929,-5.2929,-5.2929,-5.2929,-5.2929,-5.2929,-5.2929,-5.2929,-5.2929,-5.2929,-5.2703,-5.2151,0.0,0.0,-5.0519,-4.9439,-4.856,-4.7983,-4.7456,-4.6702,-4.5623,-4.4995,-4.4141,-4.3037,-4.0902,-3.9572,-3.9019,-3.8442,-3.8165,-3.8115,-3.8115,-3.8115,-3.8115,-3.8115,-3.8115,-3.8115,-3.8115,-3.8115,-3.8115,-3.809,-3.7739,-3.7287,-3.7211,-3.6908,-3.6455,-3.643,-3.6405,-3.6329,-3.5755,-3.5558,-3.5533,-3.5508,-3.4801,-3.3972,-3.3997,-3.3596,-3.3187,-3.3187,-3.3136,-3.3111,-3.3111,-3.3111,-3.2918,-3.239,-3.1838,-3.1286,-3.0758,-3.0231,-2.9829,-2.9804,-3.0507,-3.0809,-2.9934,-3.1378,-3.2522,0.0,0.0,0.0,-3.5392,-3.5519,-3.5519,0.0,0.0,0.0,0.0,0.0,-3.5549,-3.5519,-3.5549,-3.5878,-3.6477,-3.6567,-3.7255,-3.8542,-3.9798,-4.0427,-4.0487,-4.1145,-4.1444,-4.1542,-4.2171,-4.247,-4.253,-4.309,-4.329,-4.329,-4.329,-4.3319,-4.3439,-4.4077,-4.4377,-4.4646,0.0,0.0,-5.2929,-5.2929,-5.2929,-5.2929,-5.2929,-5.2929,-5.2929,-5.2929,-5.2929,-5.2929,-5.2929,-5.2929,-5.2703,-5.2151,-5.1599,-5.1222,-5.1096,-5.0017,-4.9138,-4.8586,-4.8033,-4.7405,-4.6753,-4.5773,-4.4744,-4.3614,-4.2233,-4.1304,-4.0752,-4.0174,-3.9697,-3.9295,-3.9295,-3.9295,-3.9295,-3.9295,-3.9295,-3.9295,-3.9295,-3.9295,-3.9245,-3.8818,-3.8642,-3.8366,-3.7487,-3.7111,-3.6935,-3.6556,-3.6405,-3.638,-3.6207,-3.6182,-3.6081,-3.5633,-3.5006,-3.4625,-3.5006,-3.4449,-3.3696,-3.3696,-3.3395,-3.3111,-3.3111,-3.3111,-3.3086,-3.2893,-3.2416,-3.1863,-3.1311,-3.0783,-3.0281,-2.9854,-3.0011,-3.0024,-2.9818,-3.0809,-3.1829,0.0,-3.3429,-3.4409,-3.5392,-3.5519,-3.5519,0.0,0.0,0.0,-3.5519,-3.5998,-3.6028,-3.5519,-3.5998,-3.6327,-3.6477,-3.7434,-3.8601,-3.9918,-4.0247,-4.0666,-4.1175,-4.1871,-4.2171,-4.2201,-4.2821,-4.312,-4.312,-4.323,-4.329,-4.329,-4.329,-4.3589,-4.4067,-4.4257,-4.4975,-4.5861,-5.2929,-5.2929,-5.2929,-5.2929,-5.2929,-5.2929,-5.2929,-5.2929,-5.2929,-5.2929,-5.2929,-5.2929,-5.2929,-5.2929,-5.2804,-5.2503,-5.1749,-5.1172,-5.0896,-5.0067,-4.9339,-4.8786,-4.8209,-4.7657,-4.7093,-4.605,-4.5045,-4.4192,-4.3062,-4.2384,-4.2057,-4.1003,-4.035,-4.0049,-3.9798,-3.9697,-3.9697,-3.9697,-3.9697,-3.9697,-3.9697,-3.9697,-3.9672,-3.9371,-3.9094,-3.8844,-3.8165,-3.7613,-3.7136,-3.6835,-3.6606,-3.6405,-3.6405,-3.6405,-3.6355,-3.6006,-3.5529,-3.5132,-3.5408,-3.4881,-3.4274,-3.4274,-3.4048,-3.3771,-3.352,-3.3445,-3.3395,-3.3162,-3.2616,-3.2039,-3.1486,-3.0959,-3.0432,-2.988,-2.9804,-2.9804,-2.9804,-3.0254,-3.0921,-3.1865,-3.277,-3.3739,-3.4739,-3.5231,-3.5519,-3.5519,-3.5519,0.0,-3.5938,-3.6297,-3.6327,-3.5968,-3.6567,-3.7045,-3.7345,-3.8661,-3.9679,-4.0397,-4.0995,-4.1512,-4.1901,-4.2491,-4.2791,-4.2821,-4.314,-4.329,-4.329,-4.329,-4.3469,-4.3738,-4.3738,-4.4197,-4.4796,-4.5125,-4.5651,-4.6339,-5.2929,-5.2929,-5.2929,-5.2929,-5.2929,-5.2929,-5.2929,-5.2929,-5.2929,-5.2929,-5.2929,-5.2929,-5.2929,-5.2929,-5.2904,-5.2804,-5.195,-5.1172,-5.0569,-4.9941,-4.9314,-4.8661,-4.8159,-4.7631,-4.7029,-4.5924,-4.5121,-4.4618,-4.3514,-4.2936,-4.2866,-4.143,-4.0727,-4.0626,-4.0149,-3.9898,-3.9823,-3.9823,-3.9772,-3.9697,-3.9697,-3.9697,-3.9697,-3.9697,-3.9396,-3.8994,-3.8944,-3.8266,-3.7437,-3.7337,-3.6985,-3.6656,-3.6656,-3.6606,-3.6556,-3.6631,-3.6157,-3.5608,-3.5508,-3.5107,-3.468,-3.468,-3.468,-3.46,-3.4123,-3.4022,-3.3872,-3.3319,-3.2817,-3.2265,-3.1637,-3.1085,-3.0557,-3.0005,-2.9854,-2.9804,-2.9804,0.0,-3.0164,-3.1187,-3.2155,-3.3178,-3.4198,-3.52,-3.5789,-3.5789,-3.5789,-3.6028,-3.6596,-3.6716,-3.6776,-3.6776,-3.7285,-3.7913,-3.8691,-3.9918,-4.0606,-4.0696,-4.1871,-4.244,-4.256,-4.309,-4.329,-4.329,-4.329,-4.329,-4.329,-4.329,-4.3678,-4.4317,-4.4317,-4.4766,-4.5514,-4.6112,-4.6339,-4.6518,-5.2929,-5.2929,-5.2929,-5.2929,-5.2929,-5.2929,-5.2929,-5.2929,-5.2929,-5.2929,-5.2929,-5.2929,-5.2929,-5.2929,-5.2729,-5.2277,-5.2076,-5.1749,-5.1197,-5.0167,-4.9138,-4.8083,-4.7958,-4.7456,-4.6451,-4.5347,-4.4719,-4.4618,-4.3514,-4.2791,-4.2338,-4.2087,-4.1656,-4.115,-4.1075,-4.0774,-4.04,-4.04,-4.0124,-3.9697,-3.9697,-3.9697,-3.9697,-3.9697,-3.9647,-3.9496,-3.9044,-3.8818,-3.8592,-3.804,-3.7814,-3.7739,-3.7739,-3.7437,-3.7136,-3.7613,-3.7036,-3.6132,-3.5633,-3.5107,-3.468,-3.468,-3.468,-3.47,-3.458,-3.46,-3.4424,-3.3897,-3.3696,-3.3319,-3.2265,-3.1637,-3.111,-3.0557,-3.0105,-2.9804,-2.9804,0.0,-3.0317,-3.1701,-3.2816,-3.3996,-3.5454,-3.6527,-3.7105,-3.7105,-3.7105,-3.7165,-3.7255,-3.7793,-3.8093,-3.8093,-3.8182,-3.8841,-4.0068,-4.0846,-4.1542,-4.2081,-4.2291,-4.2641,-4.314,-4.326,-4.329,-4.329,-4.329,-4.329,-4.329,-4.329,-4.3678,-4.4317,-4.4317,-4.5065,-4.6172,-4.6249,-4.6681,-4.716,-5.2929,-5.2929,-5.2929,-5.2929,-5.2929,-5.2929,-5.2929,-5.2929,-5.2929,-5.2929,-5.2929,-5.2929,-5.2929,-5.2929,-5.2829,-5.2578,-5.2277,-5.1875,-5.1322,-5.0494,-4.954,-4.841,-4.8083,-4.7255,-4.5899,-4.5347,-4.5095,-4.5095,-4.3966,-4.3438,-4.3463,-4.264,-4.2062,-4.1756,-4.148,-4.115,-4.0874,-4.0651,-4.0375,-4.0124,-3.9823,-3.9697,-3.9697,-3.9697,-3.9697,-3.9672,-3.9396,-3.912,-3.8869,-3.8567,-3.8266,-3.8015,-3.8015,-3.7839,-3.7688,-3.7939,-3.7437,-3.6732,-3.6132,-3.5805,-3.5604,-3.5604,-3.5604,-3.5529,-3.5182,-3.5132,-3.4956,-3.4449,-3.4349,-3.3997,-3.2893,-3.2466,-3.2014,-3.116,-3.0583,0.0,-3.0231,-3.0231,-3.0464,-3.1163,-3.2405,-3.3701,-3.4947,-3.6014,-3.6969,-3.7878,-3.7943,-3.8093,-3.8482,-3.911,-3.9469,-3.9469,-3.9469,-3.9948,-4.0905,-4.1602,-4.2111,-4.241,-4.2731,-4.303,-4.329,-4.329,-4.329,-4.329,-4.329,-4.329,-4.3319,-4.3678,-4.4257,-4.4885,-4.5244,-4.5992,-4.686,-4.686,-4.704,-4.7309,-5.2929,-5.2929,-5.2929,-5.2929,-5.2929,-5.2929,-5.2929,-5.2929,-5.2929,-5.2929,-5.2929,-5.2929,-5.2929,-5.2929,-5.2929,-5.2929,-5.2528,-5.2,-5.1322,-5.087,-5.0067,-4.8837,-4.8109,-4.7154,-4.5899,-4.5623,-4.5497,-4.5497,-4.4468,-4.4217,-4.4593,-4.3187,-4.259,-4.2564,-4.1957,-4.1526,-4.125,-4.0824,-4.0551,-4.03,-3.9873,-3.9697,-3.9697,-3.9697,-3.9697,-3.9697,-3.9697,-3.9421,-3.912,-3.912,-3.8768,-3.8391,-3.8391,-3.8316,-3.8241,-3.8366,-3.8015,-3.7462,-3.6933,-3.6707,-3.6631,-3.6757,-3.6606,-3.6329,-3.5981,-3.5784,-3.5533,-3.4981,-3.4881,-3.4625,-3.3646,-3.3244,-3.2792,-3.1913,0.0,-3.0809,-3.0809,-3.0909,-3.1035,-3.116,-3.2521,-3.39,-3.5129,-3.6174,-3.7405,-3.8979,-3.908,-3.932,-3.9858,-4.0337,-4.0696,-4.0846,-4.0846,-4.1085,-4.1632,-4.2291,-4.262,-4.262,-4.309,-4.329,-4.329,-4.3439,-4.3439,-4.3319,-4.3618,-4.3678,-4.3559,-4.4257,-4.4945,-4.5574,-4.6112,-4.6741,-4.7309,-4.7309,-4.7309,-4.7309,-5.2929,-5.2929,-5.2929,-5.2929,-5.2929,-5.2929,-5.2929,-5.2929,-5.2929,-5.2929,-5.2929,-5.2929,-5.2929,-5.2929,-5.2929,-5.2929,-5.2879,-5.2427,-5.1348,-5.1247,-5.0494,-4.8837,-4.7757,-4.7068,-4.6943,-4.6024,-4.5497,-4.5497,-4.4869,-4.4593,-4.4618,-4.3966,-4.3689,-4.3664,-4.3112,-4.2283,-4.1275,-4.125,-4.0701,-3.9747,-3.9722,-3.9697,-3.9697,-3.9697,-3.9697,-3.9697,-3.9697,-3.9672,-3.9647,-3.9647,-3.9597,-3.9572,-3.9572,-3.922,-3.8919,-3.9421,-3.917,-3.8617,-3.804,-3.7513,-3.7236,-3.7764,-3.7111,-3.6531,-3.696,-3.6659,-3.6132,-3.5558,-3.5433,-3.5257,-3.468,-3.3771,-3.3043,-3.3011,0.0,0.0,-3.1336,-3.1763,-3.229,-3.2842,-3.4347,-3.5969,-3.7635,-3.875,-3.9809,-4.1069,-4.1175,-4.1175,-4.1235,-4.1294,-4.1632,-4.2231,-4.2261,-4.2291,-4.2321,-4.294,-4.323,-4.323,-4.326,-4.329,-4.3319,-4.3958,-4.3858,-4.3349,-4.4616,-4.4796,-4.4287,-4.4945,-4.5633,-4.6219,-4.6249,-4.6741,-4.7309,-4.7309,-4.7309,-4.7309,-5.2929,-5.2929,-5.2929,-5.2929,-5.2929,-5.2929,-5.2929,-5.2929,-5.2929,-5.2929,-5.2929,-5.2929,-5.2929,-5.2929,-5.2929,-5.2929,-5.2929,-5.2452,-5.1348,-5.1272,-5.0519,-4.8837,-4.8033,-4.7305,-4.6652,-4.62,-4.5824,-4.5497,-4.492,-4.4794,-4.5146,-4.4568,-4.4317,-4.4292,-4.374,-4.3263,-4.2811,-4.2133,-4.1605,-4.1204,-4.0852,-4.0501,-4.0199,-4.0199,-3.9998,-3.9697,-3.9697,-3.9697,-3.9697,-3.9697,-3.9697,-3.9697,-3.9697,-3.9546,-3.9421,-3.9647,-3.9546,-3.932,-3.912,-3.8391,-3.7739,-3.7965,-3.7688,-3.7437,-3.7638,-3.7262,-3.691,-3.7036,-3.6533,-3.5981,-3.578,-3.5127,-3.45,-3.4148,0.0,-3.2943,-3.2943,-3.3119,-3.3345,-3.3571,-3.4444,-3.553,-3.6839,-3.7979,-3.9256,-4.0771,-4.1605,-4.2021,-4.2021,-4.2021,-4.2321,-4.294,-4.297,-4.297,-4.297,-4.317,-4.3499,-4.3917,-4.3917,-4.4167,-4.4556,-4.4796,-4.4796,-4.4586,-4.5065,-4.5155,-4.4975,-4.5663,-4.6082,-4.6309,-4.677,-4.71,-4.7309,-4.7309,-4.7309,-4.7309,-5.2929,-5.2929,-5.2929,-5.2929,-5.2929,-5.2929,-5.2929,-5.2929,-5.2929,-5.2929,-5.2929,-5.2929,-5.2929,-5.2929,-5.2929,-5.2929,-5.2929,-5.2452,-5.1348,-5.0946,-5.0243,-4.9088,-4.8485,-4.7757,-4.6828,-4.6652,-4.6301,-4.5748,-4.5347,-4.5347,-4.5723,-4.5171,-4.4794,-4.4593,-4.4041,-4.3614,-4.3237,-4.2539,-4.2112,-4.1856,-4.1505,-4.105,-4.0777,-4.0777,-4.0551,-4.0199,-4.0023,-3.9948,-3.9923,-3.9747,-3.9697,-3.9697,-3.9697,-3.9697,-3.9697,-3.9697,-3.9697,-3.9697,-3.9697,-3.912,-3.8542,-3.8542,-3.8266,-3.8065,-3.8241,-3.7839,-3.7538,-3.7939,-3.7412,-3.6885,-3.6885,-3.6282,-3.573,-3.5529,-3.4751,-3.4223,-3.4399,-3.4424,-3.4424,-3.4424,-3.4901,-3.5794,-3.727,-3.8133,-3.9396,-4.1291,-4.2219,-4.2671,-4.2671,-4.2671,-4.297,-4.3589,-4.3589,-4.3708,-4.3958,-4.3708,-4.3917,-4.4616,-4.4616,-4.4855,-4.5304,-4.5514,-4.5514,-4.5304,-4.5753,-4.5813,-4.5663,-4.6352,-4.6621,-4.6681,-4.713,-4.7309,-4.7309,-4.7309,-4.7309,-4.7309,-5.2929,-5.2929,-5.2929,-5.2929,-5.2929,-5.2929,-5.2929,-5.2929,-5.2929,-5.2929,-5.2929,-5.2929,-5.2929,-5.2929,-5.2929,-5.2929,-5.2929,-5.2452,-5.1348,-5.0218,-4.959,-4.959,-4.9063,-4.851,-4.7933,-4.7405,-4.6878,-4.6326,-4.6326,-4.6326,-4.6301,-4.5748,-4.5196,-4.4618,-4.4066,-4.3212,-4.2238,-4.2238,-4.1856,-4.13,-4.13,-4.13,-4.13,-4.13,-4.1275,-4.12,-4.0727,-4.0526,-4.045,-3.9898,-3.9697,-3.9697,-3.9697,-3.9697,-3.9697,-3.9697,-3.9697,-3.9697,-3.9697,-3.9697,-3.9697,-3.9697,-3.8843,-3.8165,-3.8743,-3.8442,-3.8015,-3.8015,-3.8015,-3.8015,-3.8015,-3.7111,-3.6606,-3.7111,-3.5805,-3.4881,-3.5433,-3.5508,-3.5508,-3.5508,-3.6031,-3.7289,-3.9651,-3.9913,-4.0831,-4.313,-4.329,-4.329,-4.329,-4.329,-4.3618,-4.4287,-4.4317,-4.4646,-4.5304,-4.4646,-4.4646,-4.5304,-4.5304,-4.5304,-4.5334,-4.6022,-4.5963,-4.5394,-4.6711,-4.692,-4.6339,-4.704,-4.7309,-4.7309,-4.7309,-4.7309,-4.7309,-4.7309,-4.7309,-4.7309,-5.2929,-5.2929,-5.2929,-5.2929,-5.2929,-5.2929,-5.2929,-5.2929,-5.2929,-5.2929,-5.2929,-5.2929,-5.2929,-5.2929,-5.2929,-5.2929,-5.2929,-5.2452,-5.1348,-5.0594,-4.9992,-4.9615,-4.9439,-4.9088,-4.8535,-4.836,-4.7832,-4.6878,-4.7255,-4.7054,-4.6326,-4.6552,-4.6351,-4.5773,-4.5221,-4.4794,-4.4468,-4.4066,-4.379,-4.3557,-4.3212,-4.2836,-4.2434,-4.2057,-4.1681,-4.125,-4.11,-4.105,-4.0949,-4.045,-4.0275,-4.0199,-3.9823,-3.9697,-3.9697,-3.9697,-3.9697,-3.9697,-3.9697,-3.9697,-3.9697,-3.9697,-3.9446,-3.9245,-3.9421,-3.9019,-3.8718,-3.912,-3.8567,-3.814,-3.8542,-3.8015,-3.7563,-3.7739,-3.7337,-3.7086,-3.7262,-3.7262,-3.7262,-3.7262,-3.7086,-3.7245,-3.7929,-3.9159,-4.0189,-4.0831,-4.2837,-4.3798,-4.3319,-4.4197,-4.4586,-4.4317,-4.4766,-4.5334,-4.6022,-4.5334,-4.5334,-4.6022,-4.6022,-4.6262,-4.6711,-4.692,-4.689,-4.6741,-4.713,-4.7189,-4.704,-4.7219,-4.7309,-4.7309,-4.7309,-4.7309,-4.7222,-4.6299,-4.5958,-4.5958,-5.2929,-5.2929,-5.2929,-5.2929,-5.2929,-5.2929,-5.2929,-5.2929,-5.2929,-5.2929,-5.2929,-5.2929,-5.2929,-5.2929,-5.2929,-5.2929,-5.2729,-5.2226,-5.1348,-5.0745,-5.0167,-4.9615,-4.959,-4.9339,-4.8786,-4.8761,-4.8234,-4.7068,-4.7456,-4.7154,-4.6326,-4.6652,-4.6527,-4.5974,-4.5623,-4.5372,-4.5121,-4.4769,-4.4493,-4.4267,-4.394,-4.3463,-4.2936,-4.2665,-4.2409,-4.2258,-4.1831,-4.1806,-4.1856,-4.1103,-4.0852,-4.0777,-4.045,-4.035,-4.035,-4.035,-4.035,-4.03,-4.0074,-4.0174,-4.0249,-3.9798,-3.9697,-3.9697,-3.9697,-3.9446,-3.9295,-3.9622,-3.9145,-3.8768,-3.912,-3.8743,-3.8417,-3.8642,-3.8291,-3.809,-3.8316,-3.814,-3.8015,-3.8015,-3.7713,-3.7682,-3.8165,-3.965,-4.0916,-4.1568,-4.3549,-4.4407,-4.3708,-4.4736,-4.5244,-4.5125,-4.5484,-4.6022,-4.6711,-4.6292,-4.6292,-4.6711,-4.6711,-4.692,-4.7309,-4.7309,-4.7309,-4.7309,-4.7309,-4.7309,-4.7309,-4.7309,-4.7019,-4.655,-4.655,-4.6255,-4.5779,-4.5508,-4.5389,-4.5434,-5.2929,-5.2929,-5.2929,-5.2929,-5.2929,-5.2929,-5.2929,-5.2929,-5.2929,-5.2929,-5.2929,-5.2929,-5.2929,-5.2929,-5.2929,-5.2929,-5.2427,-5.1875,-5.1322,-5.0745,-5.0167,-4.9615,-4.959,-4.9364,-4.8862,-4.8837,-4.8335,-4.728,-4.728,-4.6979,-4.6376,-4.6376,-4.61,-4.5573,-4.5573,-4.5271,-4.4769,-4.4769,-4.4493,-4.4016,-4.3966,-4.3639,-4.3187,-4.3137,-4.3438,-4.374,-4.274,-4.269,-4.2886,-4.1781,-4.1326,-4.1275,-4.1275,-4.1275,-4.1275,-4.1275,-4.1275,-4.1175,-4.0674,-4.0899,-4.105,-4.0099,-3.9848,-3.9823,-3.9722,-3.9697,-3.9697,-3.9697,-3.9697,-3.9697,-3.9697,-3.927,-3.912,-3.9622,-3.8843,-3.8341,-3.8868,-3.8492,-3.8165,-3.8165,-3.8115,-3.8509,-3.9621,-4.0815,-4.2266,-4.408,-4.484,-4.4971,-4.4436,-4.5095,-4.5723,-4.6249,-4.6339,-4.6711,-4.7309,-4.7309,-4.7309,-4.7309,-4.7309,-4.7309,-4.7309,-4.7309,-4.7309,-4.7309,-4.7309,-4.7266,-4.7106,-4.7106,-4.6388,-4.5207,-4.5207,-4.4489,-4.3646,-4.4674,-4.507,-4.5252,-5.2929,-5.2929,-5.2929,-5.2929,-5.2929,-5.2929,-5.2929,-5.2929,-5.2929,-5.2929,-5.2929,-5.2929,-5.2929,-5.2929,-5.2929,-5.2929,-5.2427,-5.1875,-5.1322,-5.0745,-5.0167,-4.9615,-4.959,-4.954,-4.9414,-4.9414,-4.9088,-4.841,-4.841,-4.7908,-4.6954,-4.6954,-4.6652,-4.6125,-4.6125,-4.605,-4.5949,-4.5949,-4.5874,-4.5723,-4.5296,-4.5045,-4.4895,-4.4443,-4.4342,-4.4367,-4.3689,-4.3514,-4.3463,-4.2359,-4.1681,-4.1275,-4.1275,-4.1275,-4.1275,-4.1275,-4.1275,-4.125,-4.115,-4.12,-4.1225,-4.1,-4.0924,-4.0752,-3.9898,-3.9697,-3.9697,-3.9697,-3.9697,-3.9697,-3.9697,-3.9597,-3.9546,-3.9672,-3.9496,-3.9371,-3.9496,-3.9396,-3.932,-3.932,-3.8944,-3.8843,-3.9068,-3.9782,-4.1123,-4.3416,-4.4197,-4.4746,-4.5083,-4.6232,-4.6711,-4.6279,-4.683,-4.716,-4.7309,-4.7309,-4.7309,-4.7309,-4.7309,-4.7309,-4.7309,-4.7309,-4.7309,-4.7309,-4.7309,-4.6726,-4.5824,-4.5824,-4.507,-4.3929,-4.3929,-4.374,-4.3409,-4.2689,-4.2398,-4.2593,-5.2929,-5.2929,-5.2929,-5.2929,-5.2929,-5.2929,-5.2929,-5.2929,-5.2929,-5.2929,-5.2929,-5.2929,-5.2929,-5.2929,-5.2929,-5.2929,-5.2653,-5.2251,-5.1699,-5.1398,-5.0845,-5.0017,-4.9992,-4.9866,-4.9615,-4.959,-4.9314,-4.8761,-4.8485,-4.7933,-4.7068,-4.6853,-4.6602,-4.6301,-4.6301,-4.6301,-4.6301,-4.6301,-4.615,-4.5899,-4.5598,-4.5321,-4.5045,-4.4744,-4.4794,-4.497,-4.4392,-4.4016,-4.3664,-4.2891,-4.2359,-4.2133,-4.2133,-4.2133,-4.2133,-4.2133,-4.2133,-4.2057,-4.1806,-4.1932,-4.2007,-4.1426,-4.153,-4.1505,-4.0676,-4.0475,-4.0475,-4.0475,-4.0475,-4.04,-4.0149,-4.0099,-3.9998,-3.9747,-3.9697,-3.9697,-3.9697,-3.9697,-3.9697,-3.9697,-3.9446,-3.95,-4.0104,-4.0465,-4.1328,-4.2851,-4.4167,-4.4862,-4.4862,-4.644,-4.716,-4.68,-4.713,-4.7309,-4.7309,-4.7309,-4.7309,-4.7309,-4.7309,-4.7309,-4.7309,-4.7309,-4.7309,-4.7266,-4.6638,-4.6032,-4.5343,-4.4748,-4.374,-4.2593,-4.2593,-4.223,-4.169,-4.1591,-4.1985,-4.2593,-5.2929,-5.2929,-5.2929,-5.2929,-5.2929,-5.2929,-5.2929,-5.2929,-5.2929,-5.2929,-5.2929,-5.2929,-5.2929,-5.2929,-5.2929,-5.2929,-5.2854,-5.2578,-5.2126,-5.1925,-5.1448,-5.0594,-5.0469,-5.0243,-4.9891,-4.9791,-4.9464,-4.8912,-4.8335,-4.7832,-4.7405,-4.6753,-4.6451,-4.6451,-4.6351,-4.6301,-4.6301,-4.6301,-4.605,-4.5623,-4.5623,-4.5347,-4.492,-4.492,-4.5221,-4.5547,-4.497,-4.4342,-4.374,-4.3263,-4.3062,-4.2986,-4.2986,-4.2986,-4.2986,-4.2986,-4.2986,-4.2886,-4.2464,-4.269,-4.276,-4.1856,-4.1957,-4.2238,-4.1731,-4.1426,-4.1275,-4.1275,-4.1275,-4.115,-4.0752,-4.0651,-4.0475,-3.9923,-3.9848,-3.9798,-3.9697,-3.9697,-3.9697,-3.9697,-3.9697,-4.0134,-4.1169,-4.1269,-4.1625,-4.2598,-4.416,-4.5022,-4.4891,-4.643,-4.7309,-4.7309,-4.7309,-4.7309,-4.7309,-4.7309,-4.7309,-4.7309,-4.7309,-4.7309,-4.7309,-4.7309,-4.7309,-4.7222,-4.5958,-4.5252,-4.4978,-4.3693,-4.2398,-4.1269,-4.1269,-4.0642,-3.9826,-4.0895,-4.1936,-4.2882,-5.2929,-5.2929,-5.2929,-5.2929,-5.2929,-5.2929,-5.2929,-5.2929,-5.2929,-5.2929,-5.2929,-5.2929,-5.2929,-5.2929,-5.2929,-5.2929,-5.2503,-5.2176,-5.2101,-5.1197,-5.0795,-5.1147,-5.0695,-5.0619,-5.1046,-5.0569,-5.0042,-4.949,-4.8937,-4.8611,-4.8535,-4.7506,-4.7029,-4.6943,-4.6527,-4.6301,-4.6301,-4.6301,-4.6276,-4.62,-4.62,-4.615,-4.6075,-4.6075,-4.6125,-4.6125,-4.5573,-4.4694,-4.379,-4.3714,-4.3363,-4.2986,-4.2986,-4.2986,-4.2986,-4.2986,-4.2986,-4.2961,-4.2886,-4.2911,-4.2936,-4.2785,-4.2811,-4.2836,-4.276,-4.2032,-4.1275,-4.1275,-4.1275,-4.125,-4.12,-4.1175,-4.1,-4.0501,-4.04,-4.0249,-3.9772,-3.9697,-3.9697,-3.9697,-3.9697,-3.98,-3.9929,-3.9981,-4.0893,-4.3203,-4.359,-4.4691,-4.6783,-4.7163,-4.7309,-4.7309,-4.7309,-4.7309,-4.7309,-4.7309,-4.7309,-4.7309,-4.7309,-4.7309,-4.7309,-4.7309,-4.7309,-4.7222,-4.5958,-4.4794,-4.3646,-4.235,-4.1119,-3.9981,-3.9981,-3.9826,-3.9749,-3.9878,-4.0083,-4.0364,-5.2929,-5.2929,-5.2929,-5.2929,-5.2929,-5.2929,-5.2929,-5.2929,-5.2929,-5.2929,-5.2929,-5.2929,-5.2929,-5.2929,-5.2929,-5.2929,-5.2703,-5.2578,-5.2578,-5.2101,-5.18,-5.1749,-5.1197,-5.087,-5.0795,-5.0243,-4.9841,-4.959,-4.9038,-4.8761,-4.8736,-4.7657,-4.7068,-4.7043,-4.6552,-4.6301,-4.6301,-4.6301,-4.6301,-4.6301,-4.6301,-4.6301,-4.6301,-4.6301,-4.6301,-4.6225,-4.5673,-4.5171,-4.4694,-4.4367,-4.4091,-4.384,-4.3539,-4.3639,-4.384,-4.3539,-4.3438,-4.3514,-4.3815,-4.3664,-4.3514,-4.3815,-4.3664,-4.3438,-4.3438,-4.2836,-4.2258,-4.2258,-4.2258,-4.2158,-4.1856,-4.1781,-4.1605,-4.1053,-4.0727,-4.0425,-4.0199,-3.9898,-3.9697,-3.9697,-3.9697,-3.9697,-3.9697,-3.9697,-4.016,-4.1269,-4.2035,-4.293,-4.4069,-4.5434,-4.6255,-4.6255,-4.6931,-4.7309,-4.7309,-4.7309,-4.7309,-4.7309,-4.7309,-4.7309,-4.7309,-4.7309,-4.6931,-4.6166,-4.4886,-4.3646,-4.235,-4.1069,-4.0211,-3.9697,-3.9697,-3.9697,-3.9697,-3.9697,-3.9697,-3.98]},{"header":{"parameterUnit":"m.s-1","parameterCategory":1,"la1":30.6,"la2":28.766,"lo1":-90.7593,"lo2":-88.6598,"dy":0.0162,"dx":0.0183,"nx":116,"ny":114,"refTime":"2024-05-14T12:00:00:Z","depth":0,"parameterNumber":3,"parameterNumberName":"V-component_of_WINDS"},"data":[0.0,0.0,0.0,0.0,0.0,0.0,0.0,0.0,0.0,0.0,0.0,0.0,0.0,0.0,0.0,0.0,0.0,0.0,0.0,0.0,0.0,0.0,0.0,0.0,0.0,0.0,0.0,0.0,0.0,0.0,0.0,0.0,0.0,0.0,0.0,0.0,0.0,0.0,0.0,0.0,0.0,0.0,0.0,0.0,0.0,0.0,0.0,0.0,0.0,0.0,0.0,0.0,0.0,0.0,0.0,0.0,0.0,0.0,0.0,0.0,0.0,0.0,0.0,0.0,0.0,0.0,0.0,0.0,0.0,0.0,0.0,0.0,0.0,0.0,0.0,0.0,0.0,0.0,0.0,0.0,0.0,0.0,0.0,0.0,0.0,0.0,0.0,0.0,0.0,0.0,0.0,0.0,0.0,0.0,0.0,0.0,0.0,0.0,0.0,0.0,0.0,0.0,0.0,0.0,0.0,0.0,0.0,0.0,0.0,0.0,0.0,0.0,0.0,0.0,0.0,0.0,0.0,0.0,0.0,0.0,0.0,0.0,0.0,0.0,0.0,0.0,0.0,0.0,0.0,0.0,0.0,0.0,0.0,0.0,0.0,0.0,0.0,0.0,0.0,0.0,0.0,0.0,0.0,0.0,0.0,0.0,0.0,0.0,0.0,0.0,0.0,0.0,0.0,0.0,0.0,0.0,0.0,0.0,0.0,0.0,0.0,0.0,0.0,0.0,0.0,0.0,0.0,0.0,0.0,0.0,0.0,0.0,0.0,0.0,0.0,0.0,0.0,0.0,0.0,0.0,0.0,0.0,0.0,0.0,0.0,0.0,0.0,0.0,0.0,0.0,0.0,0.0,0.0,0.0,0.0,0.0,0.0,0.0,0.0,0.0,0.0,0.0,0.0,0.0,0.0,0.0,0.0,0.0,0.0,0.0,0.0,0.0,0.0,0.0,0.0,0.0,0.0,0.0,0.0,0.0,0.0,0.0,0.0,0.0,0.0,0.0,0.0,0.0,0.0,0.0,0.0,0.0,0.0,0.0,0.0,0.0,0.0,0.0,0.0,0.0,0.0,0.0,0.0,0.0,0.0,0.0,0.0,0.0,0.0,0.0,0.0,0.0,0.0,0.0,0.0,0.0,0.0,0.0,0.0,0.0,0.0,0.0,0.0,0.0,0.0,0.0,0.0,0.0,0.0,0.0,0.0,0.0,0.0,0.0,0.0,0.0,0.0,0.0,0.0,0.0,0.0,0.0,0.0,0.0,0.0,0.0,0.0,0.0,0.0,0.0,0.0,0.0,0.0,0.0,0.0,0.0,0.0,0.0,0.0,0.0,0.0,0.0,0.0,0.0,0.0,0.0,0.0,0.0,0.0,0.0,0.0,0.0,0.0,0.0,0.0,0.0,0.0,0.0,0.0,0.0,0.0,0.0,0.0,0.0,0.0,0.0,0.0,0.0,0.0,0.0,0.0,0.0,0.0,0.0,0.0,0.0,0.0,0.0,0.0,0.0,0.0,0.0,0.0,0.0,0.0,0.0,0.0,0.0,0.0,0.0,0.0,0.0,0.0,0.0,0.0,0.0,0.0,0.0,0.0,0.0,0.0,0.0,0.0,0.0,0.0,0.0,0.0,0.0,0.0,0.0,0.0,0.0,0.0,0.0,0.0,0.0,0.0,0.0,0.0,0.0,0.0,0.0,0.0,0.0,0.0,0.0,0.0,0.0,0.0,0.0,0.0,0.0,0.0,0.0,0.0,0.0,0.0,0.0,0.0,0.0,0.0,0.0,0.0,0.0,0.0,0.0,0.0,0.0,0.0,0.0,0.0,0.0,0.0,0.0,0.0,0.0,0.0,0.0,0.0,0.0,0.0,0.0,0.0,0.0,0.0,0.0,0.0,0.0,0.0,0.0,0.0,0.0,0.0,0.0,0.0,0.0,0.0,0.0,0.0,0.0,0.0,0.0,0.0,0.0,0.0,0.0,0.0,0.0,0.0,0.0,0.0,0.0,0.0,0.0,0.0,0.0,0.0,0.0,0.0,0.0,0.0,0.0,0.0,0.0,0.0,0.0,0.0,0.0,0.0,0.0,0.0,0.0,0.0,0.0,0.0,0.0,0.0,0.0,0.0,0.0,0.0,0.0,0.0,0.0,0.0,0.0,0.0,0.0,0.0,0.0,0.0,0.0,0.0,0.0,0.0,0.0,0.0,0.0,0.0,0.0,0.0,0.0,0.0,0.0,0.0,0.0,0.0,0.0,0.0,0.0,0.0,0.0,0.0,0.0,0.0,0.0,0.0,0.0,0.0,0.0,0.0,0.0,0.0,0.0,0.0,0.0,0.0,0.0,0.0,0.0,0.0,0.0,0.0,0.0,0.0,0.0,0.0,0.0,0.0,0.0,0.0,0.0,0.0,0.0,0.0,0.0,0.0,0.0,0.0,0.0,0.0,0.0,0.0,0.0,0.0,0.0,0.0,0.0,0.0,0.0,0.0,0.0,0.0,0.0,0.0,0.0,0.0,0.0,0.0,0.0,0.0,0.0,0.0,0.0,0.0,0.0,0.0,0.0,0.0,0.0,0.0,0.0,0.0,0.0,0.0,0.0,0.0,0.0,0.0,0.0,0.0,0.0,0.0,0.0,0.0,0.0,0.0,0.0,0.0,0.0,0.0,0.0,0.0,0.0,0.0,0.0,0.0,0.0,0.0,0.0,0.0,0.0,0.0,0.0,0.0,0.0,0.0,0.0,0.0,0.0,0.0,0.0,0.0,0.0,0.0,0.0,0.0,0.0,0.0,0.0,0.0,0.0,0.0,0.0,0.0,0.0,0.0,0.0,0.0,0.0,0.0,0.0,0.0,0.0,0.0,0.0,0.0,0.0,0.0,0.0,0.0,0.0,0.0,0.0,0.0,0.0,0.0,0.0,0.0,0.0,0.0,0.0,0.0,0.0,0.0,0.0,0.0,0.0,0.0,0.0,0.0,0.0,0.0,0.0,0.0,0.0,0.0,0.0,0.0,0.0,0.0,0.0,0.0,0.0,0.0,0.0,0.0,0.0,0.0,0.0,0.0,0.0,0.0,0.0,0.0,0.0,0.0,0.0,0.0,0.0,0.0,0.0,0.0,0.0,0.0,0.0,0.0,0.0,0.0,0.0,0.0,0.0,0.0,0.0,0.0,0.0,0.0,0.0,0.0,0.0,0.0,0.0,0.0,0.0,0.0,0.0,0.0,0.0,0.0,0.0,0.0,0.0,0.0,0.0,0.0,0.0,0.0,0.0,0.0,0.0,0.0,0.0,0.0,0.0,0.0,0.0,0.0,0.0,0.0,0.0,0.0,0.0,0.0,0.0,0.0,0.0,0.0,0.0,0.0,0.0,0.0,0.0,0.0,0.0,0.0,0.0,0.0,0.0,0.0,0.0,0.0,0.0,0.0,0.0,0.0,0.0,0.0,0.0,0.0,0.0,0.0,0.0,0.0,0.0,0.0,0.0,0.0,0.0,0.0,0.0,0.0,0.0,0.0,0.0,0.0,0.0,0.0,0.0,0.0,0.0,0.0,0.0,0.0,0.0,0.0,0.0,0.0,0.0,0.0,0.0,0.0,0.0,0.0,0.0,0.0,0.0,0.0,0.0,0.0,0.0,0.0,0.0,0.0,0.0,0.0,0.0,0.0,0.0,0.0,0.0,0.0,0.0,0.0,0.0,0.0,0.0,0.0,0.0,0.0,0.0,0.0,0.0,0.0,0.0,0.0,0.0,0.0,0.0,0.0,0.0,0.0,0.0,0.0,0.0,0.0,0.0,0.0,0.0,0.0,0.0,0.0,0.0,0.0,0.0,0.0,0.0,0.0,0.0,0.0,0.0,0.0,0.0,0.0,0.0,0.0,0.0,0.0,0.0,0.0,0.0,0.0,0.0,0.0,0.0,0.0,0.0,0.0,0.0,0.0,0.0,0.0,0.0,0.0,0.0,0.0,0.0,0.0,0.0,0.0,0.0,0.0,0.0,0.0,0.0,0.0,0.0,0.0,0.0,0.0,0.0,0.0,0.0,0.0,0.0,0.0,0.0,0.0,0.0,0.0,0.0,0.0,0.0,0.0,0.0,0.0,0.0,0.0,0.0,0.0,0.0,0.0,0.0,0.0,0.0,0.0,0.0,0.0,0.0,0.0,0.0,0.0,0.0,0.0,0.0,0.0,0.0,0.0,0.0,0.0,0.0,0.0,0.0,0.0,0.0,0.0,0.0,0.0,0.0,0.0,0.0,0.0,0.0,0.0,0.0,0.0,0.0,0.0,0.0,0.0,0.0,0.0,0.0,0.0,0.0,0.0,0.0,0.0,0.0,0.0,0.0,0.0,0.0,0.0,0.0,0.0,0.0,0.0,0.0,0.0,0.0,0.0,0.0,0.0,0.0,0.0,0.0,0.0,0.0,0.0,0.0,0.0,0.0,0.0,0.0,0.0,0.0,0.0,0.0,0.0,0.0,0.0,0.0,0.0,0.0,0.0,0.0,0.0,0.0,0.0,0.0,0.0,0.0,0.0,0.0,0.0,0.0,0.0,0.0,0.0,0.0,0.0,0.0,0.0,0.0,0.0,0.0,0.0,0.0,0.0,0.0,0.0,0.0,0.0,0.0,0.0,0.0,0.0,0.0,0.0,0.0,0.0,0.0,0.0,0.0,0.0,0.0,0.0,0.0,0.0,0.0,0.0,0.0,0.0,0.0,0.0,0.0,0.0,0.0,0.0,0.0,0.0,0.0,0.0,0.0,0.0,0.0,0.0,0.0,0.0,0.0,0.0,0.0,0.0,0.0,0.0,0.0,0.0,0.0,0.0,0.0,0.0,0.0,0.0,0.0,0.0,0.0,0.0,0.0,0.0,0.0,0.0,0.0,0.0,0.0,0.0,0.0,0.0,0.0,0.0,0.0,0.0,0.0,0.0,0.0,0.0,0.0,0.0,0.0,0.0,0.0,0.0,0.0,0.0,0.0,0.0,0.0,0.0,0.0,0.0,0.0,0.0,0.0,0.0,0.0,0.0,0.0,0.0,0.0,0.0,0.0,0.0,0.0,0.0,0.0,0.0,0.0,0.0,0.0,0.0,0.0,0.0,0.0,0.0,0.0,0.0,0.0,0.0,0.0,0.0,0.0,0.0,0.0,0.0,0.0,0.0,0.0,0.0,0.0,0.0,0.0,0.0,0.0,0.0,0.0,0.0,0.0,0.0,0.0,0.0,0.0,0.0,0.0,0.0,0.0,0.0,0.0,0.0,0.0,0.0,0.0,0.0,0.0,0.0,0.0,0.0,0.0,0.0,0.0,0.0,0.0,0.0,0.0,0.0,0.0,0.0,0.0,0.0,0.0,0.0,0.0,0.0,0.0,0.0,0.0,0.0,0.0,0.0,0.0,0.0,0.0,0.0,0.0,0.0,0.0,0.0,0.0,0.0,0.0,0.0,0.0,0.0,0.0,0.0,0.0,0.0,0.0,0.0,0.0,0.0,0.0,0.0,0.0,0.0,0.0,0.0,0.0,0.0,0.0,0.0,0.0,0.0,0.0,0.0,0.0,0.0,0.0,0.0,0.0,0.0,0.0,0.0,0.0,0.0,0.0,0.0,0.0,0.0,0.0,0.0,0.0,0.0,0.0,0.0,0.0,0.0,0.0,0.0,0.0,0.0,0.0,0.0,0.0,0.0,0.0,0.0,0.0,0.0,0.0,0.0,0.0,0.0,0.0,0.0,0.0,0.0,0.0,0.0,0.0,0.0,0.0,0.0,0.0,0.0,0.0,0.0,0.0,0.0,0.0,0.0,0.0,0.0,0.0,0.0,0.0,0.0,0.0,0.0,0.0,0.0,0.0,0.0,0.0,0.0,0.0,0.0,0.0,0.0,0.0,0.0,0.0,0.0,0.0,0.0,0.0,0.0,0.0,0.0,0.0,0.0,0.0,0.0,0.0,0.0,0.0,0.0,0.0,0.0,0.0,0.0,0.0,0.0,0.0,0.0,0.0,0.0,0.0,0.0,0.0,0.0,0.0,0.0,0.0,0.0,0.0,0.0,0.0,0.0,0.0,0.0,0.0,0.0,0.0,0.0,0.0,0.0,0.0,0.0,0.0,0.0,0.0,0.8336,0.0,0.0,0.0,0.0,0.0,0.0,0.0,0.0,0.0,0.0,0.0,0.0,0.0,0.0,0.0,0.0,0.0,0.0,0.0,0.0,0.0,0.0,0.0,0.0,1.8953,1.8874,1.924,1.9293,1.9423,1.9785,0.0,0.0,0.0,0.0,0.0,0.0,0.0,2.0489,2.1016,2.0489,2.0765,2.187,2.2096,2.1644,2.0639,0.0,0.0,0.0,0.0,0.0,0.0,0.0,0.0,0.0,0.0,0.0,0.0,0.0,0.0,0.0,0.0,0.0,0.0,0.0,0.0,0.0,0.0,0.0,0.0,0.0,0.0,0.0,0.0,0.0,0.0,0.0,0.0,0.0,0.0,0.0,0.0,0.0,0.0,0.0,0.0,0.0,0.0,0.0,0.0,0.0,0.0,0.0,0.0,0.0,0.0,0.0,0.0,0.0,0.0,0.0,0.0,0.0,0.0,0.0,0.0,0.0,0.0,0.0,0.0,0.0,0.0,0.0,0.0,0.0,0.0,0.0,0.9208,0.0,0.0,0.0,0.0,0.0,0.0,0.0,0.0,0.0,0.0,0.0,0.0,0.0,0.0,0.0,0.0,0.0,0.0,0.0,0.0,0.0,1.8578,1.878,1.8317,1.8203,1.8895,1.9108,1.9376,1.9851,2.0486,0.0,0.0,0.0,2.1437,2.1272,2.0986,2.1295,2.2171,2.1773,2.2322,2.3847,2.5076,2.4707,2.2899,2.2221,0.0,0.0,0.0,0.0,0.0,0.0,0.0,0.0,0.0,0.0,0.0,0.0,0.0,0.0,0.0,0.0,0.0,0.0,0.0,0.0,0.0,0.0,0.0,0.0,0.0,0.0,0.0,0.0,0.0,0.0,0.0,0.0,0.0,0.0,0.0,0.0,0.0,0.0,0.0,0.0,0.0,0.0,0.0,0.0,0.0,0.0,0.0,0.0,0.0,0.0,0.0,0.0,0.0,0.0,0.0,0.0,0.0,0.0,0.0,0.0,0.0,0.0,0.0,1.2919,1.3105,1.3239,1.2946,1.2839,1.2799,1.2078,1.143,1.0787,1.0408,0.0,0.0,0.0,0.0,0.0,0.0,0.0,0.0,0.0,0.0,0.0,0.0,0.0,0.0,0.0,0.0,0.0,0.0,0.0,1.8148,1.9191,1.9321,1.9511,1.9961,2.0688,2.0853,2.0208,2.0927,2.0726,1.9206,2.0633,2.116,2.037,2.1057,2.1443,2.1594,2.3853,2.5561,2.6766,2.8373,2.8976,2.8549,2.5184,2.418,2.4883,0.0,0.0,0.0,0.0,0.0,0.0,0.0,0.0,0.0,0.0,0.0,0.0,0.0,0.0,0.0,0.0,0.0,0.0,0.0,0.0,0.0,0.0,0.0,0.0,0.0,0.0,0.0,0.0,0.0,0.0,0.0,0.0,0.0,0.0,0.0,0.0,0.0,0.0,0.0,0.0,0.0,1.5195,1.5312,0.0,0.0,0.0,0.0,0.0,0.0,0.0,0.0,0.0,0.0,0.0,0.0,0.0,1.2784,1.3307,1.4402,1.483,1.466,1.5437,1.5498,1.5044,1.5003,1.499,1.4977,1.487,0.0,1.1685,1.1136,0.0,0.0,0.0,0.0,0.0,0.0,0.0,0.0,0.0,0.0,0.0,0.0,0.0,0.0,0.0,0.0,0.0,0.0,0.0,0.0,0.0,1.8967,1.9633,2.0465,2.1177,2.1489,2.1168,2.2114,2.191,2.0165,2.1555,2.2222,2.1844,2.2193,2.3175,2.4757,2.7821,2.9729,3.0597,3.1938,3.2566,3.2466,3.0131,2.8147,2.6414,2.428,0.0,0.0,0.0,0.0,0.0,0.0,0.0,0.0,0.0,0.0,0.0,0.0,0.0,0.0,0.0,0.0,0.0,0.0,0.0,0.0,0.0,0.0,0.0,0.0,0.0,0.0,0.0,0.0,0.0,0.0,0.0,0.0,0.0,0.0,0.0,0.0,0.0,0.0,0.0,1.5625,1.625,1.5508,1.6074,1.623,0.0,0.0,0.0,0.0,0.0,0.0,0.0,0.0,0.0,1.3816,1.4124,1.4522,1.511,1.5965,1.6455,1.6496,1.682,1.6967,1.6887,1.67,1.662,1.662,1.662,1.5845,1.4496,1.3253,1.2438,1.1953,0.0,0.0,0.0,0.0,1.0079,0.9949,0.0,0.0,0.0,0.0,0.0,0.0,0.0,0.0,0.0,0.0,0.0,0.0,1.827,1.9206,2.0223,2.1303,2.2243,2.2578,2.208,2.3102,2.2718,2.0497,2.2134,2.2964,2.2659,2.3778,2.5686,2.8323,3.1361,3.3219,3.3947,3.5052,3.5554,3.5529,3.455,3.229,2.9026,2.6515,2.4808,2.3627,0.0,0.0,0.0,0.0,0.0,0.0,0.0,0.0,0.0,0.0,0.0,0.0,0.0,0.0,0.0,0.0,0.0,0.0,0.0,0.0,0.0,0.0,0.0,0.0,0.0,0.0,0.0,0.0,0.0,0.0,0.0,0.0,0.0,0.0,0.0,0.0,0.0,1.623,1.7051,1.5742,1.7031,1.748,0.0,0.0,0.0,0.0,0.0,0.0,1.573,1.595,1.5921,1.5424,1.5765,1.6206,1.6727,1.7286,1.7688,1.7929,1.7849,1.7969,1.8209,1.7956,1.7809,1.7809,1.7809,1.7475,1.6807,1.519,1.4055,1.3293,1.2703,1.2476,1.2404,1.1976,1.1819,1.1897,0.0,0.0,0.0,0.0,0.0,0.0,0.0,0.0,0.0,0.0,0.0,1.7088,1.945,2.0912,2.2078,2.2912,2.4654,2.4783,2.2604,2.343,2.2403,1.8869,2.1554,2.2615,2.1517,2.5665,2.895,3.1185,3.347,3.5152,3.6257,3.7337,3.7839,3.7814,3.7236,3.6006,3.4022,2.9202,2.7419,2.7444,2.3175,0.0,0.0,0.0,0.0,0.0,0.0,0.0,0.0,0.0,0.0,0.0,0.0,0.0,0.0,0.0,0.0,0.0,0.0,0.0,0.0,0.0,0.0,0.0,0.0,0.0,0.0,0.0,0.0,0.0,0.0,0.0,0.0,0.0,0.0,0.0,0.0,0.0,0.0,1.6222,1.8262,0.0,0.0,0.0,0.0,1.9652,1.9294,1.8753,1.8061,1.7883,1.7407,1.6643,1.7168,1.7622,1.7902,1.8263,1.8571,1.8851,1.8584,1.8597,1.8865,1.8584,1.8437,1.8437,1.8437,1.8103,1.7448,1.6233,1.5391,1.4834,1.4244,1.3975,1.3948,1.3612,1.3692,1.3919,0.0,0.0,0.0,0.0,0.0,1.9164,1.9371,1.8235,1.7673,1.857,1.8132,1.8483,2.0476,2.2129,2.3846,2.5737,2.6065,2.5716,2.445,2.4293,2.35,2.1833,2.3328,2.5012,2.6785,2.9046,3.1838,3.5127,3.6634,3.814,3.9545,3.9921,4.0097,4.0149,3.9948,3.932,3.809,3.2717,2.9754,2.8311,2.4983,2.2874,0.0,0.0,0.0,0.0,0.0,0.0,0.0,0.0,0.0,0.0,0.0,0.0,0.0,0.0,0.0,0.0,0.0,0.0,0.0,0.0,0.0,0.0,0.0,0.0,0.0,0.0,0.0,0.0,0.0,0.0,0.0,0.0,0.0,0.0,0.0,0.0,0.0,1.9059,2.0996,0.0,2.041,2.0684,2.125,2.1892,2.2086,2.1632,2.0406,2.049,1.9968,1.8507,1.868,1.8958,1.9394,1.9372,1.9386,1.9479,1.9199,1.9105,1.9199,1.9105,1.9052,1.9052,1.9052,1.8718,1.813,1.7716,1.6967,1.6046,1.5645,1.5544,1.5458,1.5164,1.5065,1.519,0.0,0.0,0.0,1.9811,1.9397,1.9059,1.9059,1.8227,1.7726,1.8114,1.8677,1.9689,2.1444,2.3594,2.5666,2.7537,2.7171,2.64,2.537,2.4525,2.3525,2.2348,2.42,2.6931,3.0532,3.239,3.4876,3.804,3.9145,4.0275,4.1275,4.1275,4.1275,4.1275,4.1275,4.1075,4.0501,3.6257,3.3068,3.0568,2.7433,2.5502,2.4255,0.0,0.0,0.0,0.0,0.0,0.0,0.0,0.0,0.0,0.0,0.0,0.0,0.0,0.0,0.0,0.0,0.0,0.0,0.0,0.0,0.0,0.0,0.0,0.0,0.0,0.0,0.0,0.0,0.0,0.0,0.0,0.0,0.0,0.0,0.0,2.1642,2.1505,2.3658,2.4531,2.3105,2.3359,2.3906,2.4609,2.4941,2.4331,2.2518,2.2708,2.1859,1.9757,1.9653,1.984,2.0227,1.9947,1.98,1.98,1.9506,1.943,1.943,1.943,1.943,1.943,1.943,1.9092,1.8624,1.8531,1.7969,1.7114,1.6727,1.65,1.638,1.6086,1.5979,1.5965,0.0,1.9811,1.9811,1.9811,1.976,1.9293,1.7875,1.8025,1.7924,1.69,1.8633,2.0625,2.2383,2.5234,2.7383,2.8281,2.7986,2.7008,2.5232,2.3965,2.2333,2.0226,2.4198,2.8255,3.2273,3.5554,3.8065,3.9772,4.0852,4.1326,4.1351,4.1351,4.1376,4.1376,4.1376,4.1351,4.125,3.9672,3.7412,3.453,3.0593,2.8988,2.8436,0.0,0.0,0.0,0.0,0.0,0.0,0.0,0.0,0.0,0.0,0.0,0.0,0.0,0.0,0.0,0.0,0.0,0.0,0.0,0.0,0.0,0.0,0.0,0.0,0.0,0.0,0.0,0.0,0.0,0.0,0.0,0.0,0.0,1.9941,2.2227,2.3711,2.3384,2.5967,2.7121,2.5419,2.6348,2.7266,2.7748,2.7787,2.6747,2.4521,2.4383,2.3119,2.0348,2.0301,2.0254,2.0254,1.9973,1.9826,1.9813,1.9519,1.943,1.943,1.943,1.943,1.943,1.9417,1.9185,1.8891,1.8611,1.8303,1.7916,1.7447,1.6981,1.67,1.6406,1.6335,1.6233,1.9811,1.9811,1.9811,1.9811,1.9371,1.8991,1.8936,1.8342,1.7964,1.8006,1.9644,2.16,2.3672,2.5762,2.7734,2.9512,2.7897,2.6428,2.5586,2.378,2.3508,2.5317,2.9131,3.2643,3.5755,3.7513,3.9472,4.1534,4.1835,4.2333,4.3112,4.3112,4.3338,4.3714,4.3313,4.3112,4.3037,4.1781,4.0576,3.9019,3.3972,3.0984,2.9302,0.0,0.0,0.0,0.0,0.0,0.0,0.0,0.0,0.0,0.0,0.0,0.0,0.0,0.0,0.0,0.0,0.0,0.0,0.0,0.0,0.0,0.0,0.0,0.0,0.0,0.0,0.0,0.0,0.0,0.0,0.0,2.082,2.197,2.1816,2.375,2.5488,2.6378,2.8022,2.8922,2.8432,2.8652,2.8906,2.9098,2.9098,2.8347,2.6544,2.6505,2.5161,2.2386,2.228,2.1859,2.0869,2.0575,2.0334,2.0107,1.9813,1.9573,1.943,1.943,1.943,1.9417,1.9132,1.8878,1.8597,1.8517,1.8183,1.7689,1.7528,1.7408,1.7301,1.7072,1.6683,1.6308,1.9811,1.9811,1.9811,1.9811,1.9449,1.9119,1.8983,1.8541,1.8194,1.8063,2.0185,2.2262,2.3686,2.5762,2.7519,2.875,2.7012,2.543,2.4453,2.3759,2.5058,2.8705,3.2274,3.5581,3.8517,3.9898,4.1455,4.3187,4.2961,4.3288,4.4141,4.3915,4.4091,4.4618,4.4292,4.4016,4.374,4.2861,4.2183,4.1329,3.7412,3.4951,3.3269,3.0181,2.8348,2.7193,2.5234,2.4582,2.4406,2.2749,0.0,0.0,0.0,0.0,0.0,0.0,0.0,0.0,0.0,0.0,0.0,0.0,0.0,0.0,0.0,0.0,0.0,0.0,0.0,0.0,0.0,0.0,0.0,0.0,2.2886,2.4348,2.4863,2.6152,2.7461,2.8594,2.9551,3.0117,3.0117,3.0117,3.0117,3.0117,3.0117,2.947,2.7857,2.7741,2.6422,2.3397,2.329,2.2519,2.0922,2.0641,2.0347,2.0054,1.976,1.9533,1.943,1.943,1.943,1.9417,1.9185,1.8945,1.8664,1.8544,1.821,0.0,0.0,0.0,0.0,0.0,1.6898,1.6433,1.9811,1.9811,1.9811,1.9811,1.9811,1.9515,1.8657,1.882,1.8707,1.7723,2.0426,2.2546,2.2949,2.5137,2.666,2.6855,2.5625,2.433,2.3071,2.4347,2.706,3.1177,3.4485,3.7684,4.0752,4.2359,4.3639,4.4618,4.4141,4.4192,4.4719,4.4217,4.4292,4.4819,4.4744,4.4443,4.3966,4.3388,4.2836,4.2263,4.0676,3.9546,3.8316,3.3696,3.2089,3.1863,2.8385,2.6776,2.5988,2.4249,0.0,0.0,0.0,0.0,0.0,0.0,0.0,0.0,0.0,0.0,0.0,0.0,0.0,0.0,0.0,0.0,0.0,0.0,0.0,0.0,0.0,0.0,0.0,0.0,2.4875,2.666,2.8281,2.8867,2.9414,3.0117,3.0605,3.0898,3.0898,3.0898,3.0898,3.0898,3.0898,3.0274,2.8783,0.0,0.0,0.0,0.0,2.2945,2.1032,2.0489,2.0134,1.984,1.9559,1.9457,1.943,1.943,1.943,1.9417,1.939,1.9172,1.8905,1.8611,1.8317,1.7995,1.7955,1.7849,1.7595,1.7353,1.7058,1.6714,1.9811,1.9811,1.9811,1.9811,1.9811,1.9821,1.9828,1.9895,1.9697,1.9025,2.0731,2.2047,2.2114,2.3184,2.4473,2.581,2.4426,2.4142,2.5708,2.7349,3.019,3.4559,3.7836,4.0489,4.2459,4.3689,4.4418,4.4618,4.4518,4.4769,4.5321,4.5221,4.5447,4.5974,4.5522,4.5271,4.5121,4.4543,4.3991,4.3413,4.266,4.0676,3.7965,3.6153,3.4419,3.2742,3.1537,3.0733,2.9955,2.7846,2.7143,2.6766,2.4682,2.3075,0.0,0.0,0.0,0.0,0.0,0.0,0.0,0.0,0.0,0.0,0.0,0.0,0.0,0.0,0.0,0.0,0.0,0.0,0.0,2.4875,2.6902,2.8652,2.9687,3.0215,3.043,3.0215,3.0605,3.0898,3.0898,3.0898,3.0898,3.0898,3.0898,3.0762,3.045,3.0392,2.953,2.7512,2.6227,2.4747,2.3051,2.1403,2.0441,2.0147,0.0,0.0,1.943,1.943,1.943,1.9359,1.9118,1.8971,1.8905,1.8611,1.8317,1.7969,1.7769,1.7796,1.7862,1.7609,1.7367,1.7072,2.0264,2.0264,2.0163,1.9861,2.0037,2.0221,2.0194,2.0197,1.9959,1.938,2.0588,2.1401,2.0958,2.168,2.2461,2.3086,2.269,2.3392,2.5842,2.9013,3.2558,3.6425,3.989,4.2534,4.4192,4.4769,4.5196,4.5472,4.5196,4.5347,4.5899,4.5623,4.5773,4.6301,4.6024,4.5573,4.5045,4.4744,4.4141,4.3338,4.2841,4.1404,3.9546,3.8442,3.6835,3.4977,3.3872,3.2943,3.1863,2.9352,2.8699,2.8524,2.5988,2.4632,2.3678,0.0,0.0,0.0,0.0,0.0,0.0,0.0,0.0,0.0,0.0,0.0,0.0,0.0,0.0,2.1798,2.2077,0.0,2.5332,2.7,2.8418,2.9551,3.043,3.0742,3.0801,3.0566,3.0762,3.0898,3.0898,3.0898,3.0898,3.0898,3.0898,3.0898,3.0898,3.0898,3.0138,2.8426,2.7632,2.6241,2.4275,2.2554,2.1406,2.088,1.9992,1.9506,1.943,1.943,1.943,1.9417,1.9212,1.9065,1.8891,1.845,1.8263,1.8237,1.7929,1.7809,1.7796,1.7635,1.7541,1.7353,2.0691,2.0867,2.0792,2.0087,2.0465,2.0799,2.0639,2.0625,2.0427,1.9868,2.0615,2.0876,1.9982,2.037,2.0625,2.039,2.1336,2.3257,2.6277,3.0672,3.4703,3.8048,4.1713,4.4177,4.5331,4.5779,4.6175,4.6627,4.6175,4.6175,4.6602,4.6075,4.605,4.6476,4.6476,4.5899,4.497,4.507,4.4418,4.3237,4.2766,4.2007,4.1175,4.0124,3.8718,3.7136,3.5604,3.4123,3.2541,3.0206,2.9503,2.9227,2.6967,2.6088,2.5485,2.3276,2.2472,0.0,0.0,0.0,0.0,0.0,0.0,0.0,0.0,2.2636,2.3054,2.2582,2.3144,2.4005,2.4761,2.5996,2.7363,2.8809,2.9492,3.0078,3.0801,3.082,3.0762,3.0762,3.084,3.0898,3.0898,3.0898,3.0898,3.0898,3.0898,3.0898,3.0898,3.0898,3.0274,2.892,2.8545,2.7476,2.5477,2.361,2.2347,2.1675,2.0111,1.943,1.943,1.943,1.943,1.943,1.943,1.9199,1.8878,1.8302,1.8237,1.837,1.8076,1.7836,1.7675,1.7675,1.7635,1.7502,2.0691,2.1468,2.1794,2.0792,2.1043,2.1566,2.2006,2.2077,2.1952,2.1651,2.1368,2.0858,1.999,1.9309,1.9026,1.9394,2.1791,2.5287,3.0079,3.3385,3.6829,4.0619,4.4062,4.5561,4.4726,4.6612,4.7657,4.7732,4.7657,4.7657,4.7707,4.7179,4.6918,4.6993,4.6993,4.6702,4.615,4.6652,4.5924,4.4392,4.384,4.271,4.1175,4.0124,3.8944,3.7764,3.6634,3.455,3.219,3.1386,3.0181,2.8938,2.8612,2.7896,2.67,2.4456,2.31,2.2171,2.1493,2.1443,2.2146,2.4531,2.4098,2.3773,0.0,2.6565,2.6044,2.5378,2.5937,2.6584,2.668,2.7773,2.8828,2.9394,3.0195,3.0781,3.0879,3.0527,3.0273,3.0273,3.0644,3.0898,3.0898,3.0898,3.0898,3.0898,3.0898,3.0898,3.0898,3.0898,3.082,3.0645,2.9157,2.8092,2.7486,2.4327,2.2452,2.1946,2.0222,1.943,1.943,1.943,1.943,1.943,1.943,1.9199,1.8905,1.8571,1.8303,1.8009,1.7756,1.7782,1.7942,1.7942,1.7822,1.7542,2.0691,2.1543,2.2071,2.132,2.1594,2.2046,2.2272,2.2322,2.2204,2.193,2.1729,2.1076,1.9716,1.8757,1.8734,1.9957,2.2302,2.5276,2.8968,3.3743,3.7819,4.0816,4.4368,4.6249,4.6093,4.7259,4.7908,4.7908,4.7908,4.7908,4.7908,4.7682,4.7431,4.7068,4.7068,4.6652,4.5849,4.6075,4.5397,4.4091,4.3539,4.2333,4.0701,3.927,3.7412,3.5504,3.4751,3.2893,0.0,2.9402,2.875,2.8398,2.8072,2.7444,2.6474,2.4556,2.3879,2.3853,2.4312,2.413,2.4222,2.556,2.6286,2.6946,2.7978,2.778,2.7568,2.8304,2.8301,2.8203,2.8457,2.9355,3.0039,2.9941,3.0469,3.0801,3.0527,3.0098,2.9648,2.9141,2.9473,2.9941,3.043,3.0488,3.0605,3.0859,3.0898,3.0898,3.0898,3.0898,3.0898,3.0898,3.0216,2.9523,2.8842,2.6504,2.5016,2.4373,2.2724,2.1487,2.0702,2.0702,2.0199,1.943,1.943,1.9199,1.8905,1.8611,1.8317,1.7982,1.7903,1.7822,1.7769,1.7769,1.7809,1.7782,2.0918,2.1669,2.2196,2.1794,2.2171,2.2518,2.2518,2.2518,2.2437,2.2262,2.2032,2.1345,1.9814,1.911,1.9144,2.0139,2.2411,2.4906,2.7547,3.3098,3.7393,3.992,4.3786,4.591,4.618,4.7458,4.8159,4.8159,4.8309,4.8284,4.8134,4.7983,4.7631,4.7068,4.7068,4.6602,4.5723,4.5723,4.497,4.374,4.2861,4.143,3.9597,3.7638,3.5152,3.2717,3.2315,3.0658,2.8423,2.7067,2.6666,2.6716,2.664,2.6339,2.577,2.4406,2.428,2.4808,2.5762,2.6072,2.6308,2.7324,2.8937,3.017,2.9715,2.9471,2.9568,3.0129,2.9607,2.916,2.9355,2.9922,3.0273,3.0059,3.041,3.0586,3.0234,2.9629,2.8984,2.8359,2.8144,2.8476,2.957,2.9883,3.0215,3.0664,3.0703,3.0762,3.0879,3.0898,3.084,3.0703,3.0703,3.0273,2.9394,2.7883,2.6787,2.61,2.4544,2.3263,2.2194,2.1813,2.1031,1.9982,1.951,1.9118,1.8891,1.8517,1.8237,1.7982,1.7902,1.7836,1.7689,1.7609,1.7729,1.7862,2.1496,2.192,2.2297,2.2297,2.2719,2.307,2.307,2.307,2.307,2.3065,2.2372,2.1565,2.0655,2.0526,2.0204,1.9387,2.1876,2.4555,2.7059,3.1498,3.5178,3.7871,4.2258,4.4378,4.3793,4.7044,4.8736,4.8736,4.9289,4.9264,4.8736,4.8159,4.7631,4.7068,4.7068,4.6828,4.6276,4.6276,4.5321,4.3664,4.2032,4.0049,3.7789,3.5052,3.2315,2.9905,2.9905,2.8097,2.5636,2.5084,2.4148,2.3446,2.4525,2.485,2.4725,2.418,2.4004,2.4155,2.4675,2.6013,2.7896,3.0568,3.2123,3.2843,3.2237,3.2775,3.2693,3.0158,2.9587,2.9414,2.9004,2.8965,2.9121,2.9531,2.9941,3.0215,3.0195,2.9121,2.832,2.8301,2.6836,2.6454,0.0,2.9101,2.9766,3.0176,3.0215,3.041,3.0859,3.0898,3.0684,3.0234,3.0215,2.9805,2.8945,2.7475,2.6516,2.61,2.4544,2.3766,2.3654,2.2251,2.1586,2.1457,1.9664,1.8931,1.8821,1.8249,1.7995,1.7969,1.7716,1.7769,1.7969,1.7689,1.7595,1.7595,2.2162,2.1982,2.1769,2.1769,2.2493,2.297,2.2619,2.2869,2.3095,2.3095,2.2396,0.0,0.0,0.0,0.0,0.0,2.2861,2.4568,2.7077,3.11,3.4275,3.6235,4.0234,4.2482,4.2692,4.4561,4.5648,4.6024,4.62,4.62,4.6024,4.5824,4.5447,4.492,4.492,4.4618,4.4091,4.4091,4.3137,4.1505,4.0224,3.8366,3.5984,3.2918,3.0231,2.7896,0.0,2.4531,2.3326,2.2799,2.2372,2.2171,2.2924,2.2899,2.2799,2.3728,2.4255,2.5134,2.7921,2.9327,3.0458,3.2342,3.3568,3.4197,3.3532,3.3068,3.2317,3.0574,2.944,2.8399,2.74,2.7703,2.8167,2.8329,2.9183,2.9687,2.9394,2.9238,2.8613,2.7207,2.7031,0.0,0.0,0.0,0.0,3.0098,3.0195,3.0391,3.0859,3.0586,3.0351,3.0195,2.9922,2.9512,2.8926,2.8413,2.7984,2.7565,2.6045,2.5316,2.5261,2.3766,2.2911,2.2648,2.204,2.0978,1.9693,1.9492,1.8758,1.7729,1.7622,1.7649,1.7716,1.7622,1.7582,1.7555,0.0,2.1839,2.1543,2.1744,2.2372,0.0,0.0,0.0,0.0,0.0,0.0,0.0,0.0,0.0,0.0,0.0,0.0,2.4067,2.5817,2.895,3.1537,3.3376,3.6386,3.8442,3.9246,4.0275,4.1128,4.1681,4.2057,4.2258,4.2258,4.2459,4.2258,4.1731,4.1731,4.1656,4.148,4.1078,4.0074,3.8567,3.7086,3.5052,3.2524,2.9615,2.7268,0.0,2.3025,2.1895,2.1368,2.1016,2.0891,2.0991,2.1543,2.202,2.2623,2.3929,2.5234,2.6957,3.0306,3.1863,3.2978,3.4673,3.5206,3.5172,3.4366,3.2889,3.1305,2.9836,2.8338,2.7084,2.6107,2.5986,2.6275,2.6866,2.7422,2.7949,2.8613,2.8535,2.8086,2.7187,2.7148,2.7012,0.0,0.0,0.0,2.9434,2.9805,3.0176,3.0625,3.0508,3.0371,3.0195,2.9785,2.9355,2.8926,2.8769,2.8555,2.8301,2.733,2.6879,2.6825,2.5121,2.4221,2.3928,2.312,2.2065,2.0792,2.0721,2.0015,1.9005,1.8499,1.8304,1.8251,1.7793,1.7582,1.7542,0.0,0.0,2.1706,0.0,0.0,0.0,0.0,0.0,0.0,0.0,0.0,0.0,0.0,0.0,0.0,0.0,0.0,0.0,2.3469,2.5358,2.7404,2.9478,3.116,3.2566,3.3671,3.4705,3.5554,3.6153,3.7161,3.7663,3.7688,3.8241,3.8191,3.7663,3.7663,3.7965,3.8466,3.7312,3.6207,3.4981,3.2842,3.0357,2.7745,2.5528,2.3697,2.2171,2.1094,2.0314,1.9811,1.9861,1.9936,2.0112,2.0691,2.2351,2.4205,2.4775,2.6882,2.9515,3.1763,3.3621,3.5403,3.7563,3.7118,3.5896,3.4827,3.249,2.9986,2.7986,2.6512,2.5436,2.4976,2.3913,2.3681,2.5375,2.5031,2.5449,2.7969,2.7344,2.7031,2.8184,2.7285,2.6855,2.7669,2.7767,0.0,2.8301,0.0,2.9766,3.0215,3.0625,3.0644,3.0215,2.9766,2.9336,2.8926,2.8496,2.8301,2.8301,2.8301,2.8301,2.8228,2.6363,2.5504,2.5378,2.3269,2.2272,2.2154,2.1893,2.1744,2.1541,2.0231,1.9731,1.9524,1.8304,1.7779,1.7647,0.0,0.0,0.0,0.0,0.0,0.0,0.0,0.0,0.0,0.0,0.0,0.0,0.0,0.0,0.0,0.0,0.0,0.0,2.3189,2.4853,2.6063,2.664,2.8649,3.0105,3.0834,3.1512,3.2139,3.2641,3.2943,3.3068,3.3093,3.3219,3.3219,3.3068,3.3068,3.3169,3.3244,3.2566,3.1637,3.0442,2.9101,2.762,2.6038,2.4224,2.302,2.2171,2.1094,2.0314,1.9936,2.0765,2.1895,2.2949,2.31,2.4079,2.546,2.6866,2.8925,3.1336,3.3928,3.5859,3.7513,3.8919,3.8741,3.7513,3.4993,3.2597,2.992,2.6606,2.4645,2.332,2.2571,2.2736,2.3483,2.4887,2.6107,2.7285,2.8574,2.9336,2.9492,2.8828,2.8769,2.8594,2.8184,2.8418,0.0,0.0,2.9258,2.9902,3.0664,3.0488,3.0312,3.0195,2.9473,2.9023,2.8926,2.8496,2.8301,2.8301,2.8301,2.8301,2.8281,2.7791,2.7228,2.6563,2.5994,2.4812,2.3276,2.322,2.2617,2.1643,2.1288,2.1135,2.1135,2.0794,1.9973,1.9066,0.0,0.0,0.0,0.0,0.0,0.0,0.0,0.0,0.0,0.0,0.0,0.0,0.0,0.0,0.0,0.0,0.0,0.0,0.0,2.3973,2.4506,2.4506,2.5678,2.638,2.6515,2.7007,2.7469,2.777,2.8021,2.8273,2.8499,2.8499,2.8499,2.8499,2.8499,2.8624,2.88,2.8298,2.7534,0.0,0.0,2.4431,2.3331,2.2121,2.144,2.1117,2.0514,2.0715,2.1468,2.2824,2.3929,2.4833,2.5561,2.6866,2.8473,3.0156,3.2039,3.4022,3.6056,3.7663,3.8843,3.9245,3.8115,3.621,3.3505,3.0641,2.7676,2.4799,2.3131,2.2081,2.1566,2.1688,2.2322,2.3836,2.5006,2.6378,2.8125,2.916,2.9687,2.9492,2.9687,2.959,2.8926,2.9238,2.9473,0.0,2.9707,3.0059,3.0566,3.0527,3.041,3.0195,2.9551,2.9023,2.8652,2.8418,2.8301,2.8301,2.8301,2.8301,2.8281,2.8105,2.7656,2.7012,0.0,2.5948,2.4559,2.4559,2.4146,2.3384,2.2818,2.2567,2.2517,2.1895,2.1202,2.0389,0.0,0.0,0.0,0.0,0.0,0.0,0.0,0.0,0.0,0.0,2.2819,2.3095,2.3095,2.3095,0.0,0.0,0.0,0.0,0.0,0.0,2.3095,2.3095,2.3095,2.2869,2.2418,2.2794,2.2995,2.2995,2.3452,2.3904,2.4349,2.4349,2.4349,2.4349,2.4349,2.4632,2.5008,2.4481,2.4004,2.3477,2.2397,2.1418,2.0515,0.0,1.9811,1.9811,1.9811,2.1091,2.3045,2.4883,2.5837,2.6565,2.8247,3.0181,3.2139,3.3746,3.5353,3.6857,3.7839,3.8944,3.9647,3.9019,3.68,3.4031,3.1598,2.8083,2.4822,2.3096,2.191,2.1188,2.125,2.0865,2.1108,2.2791,2.333,2.4559,2.7454,2.8203,2.8926,3.0137,3.0293,3.0156,2.9785,3.0078,3.0293,3.0293,3.0293,3.0293,3.0293,3.0664,3.0644,3.0137,2.9766,2.916,2.8301,2.8301,2.8301,2.8301,2.8301,2.8301,2.8281,2.791,2.7519,2.707,2.666,2.623,2.5771,2.5713,2.5693,2.5577,2.4412,2.3949,2.3831,2.2667,2.2114,2.1761,0.0,0.0,0.0,0.0,0.0,0.0,0.0,0.0,0.0,0.0,2.3045,2.3095,0.0,0.0,0.0,0.0,0.0,0.0,0.0,0.0,0.0,2.3095,2.3095,2.307,2.297,2.2619,2.2447,2.2447,2.2096,2.197,2.2071,2.2071,2.2071,2.2071,2.2071,2.2121,2.2171,2.1647,2.137,2.1219,2.0514,2.0112,1.9936,1.9836,0.0,0.0,1.9811,2.0363,2.1521,2.4079,2.7057,3.003,3.1687,3.3093,3.4374,3.5579,3.6784,3.7864,3.8542,3.9546,4.0124,3.912,3.7466,3.523,3.2027,2.8348,2.4952,2.2837,2.0813,1.9553,2.0011,2.075,2.175,2.3095,2.443,2.6067,2.8368,2.9082,2.9707,3.0664,3.0762,3.0742,3.0664,3.0723,0.0,0.0,3.0762,3.0762,3.0762,3.084,3.0508,2.9707,2.9665,2.916,2.8301,2.8301,2.8301,2.8301,2.8301,2.8301,2.8301,2.8223,2.7949,2.7519,2.709,0.0,2.625,2.583,2.5693,2.5693,2.543,2.5333,2.5333,2.5069,2.4295,2.3317,0.0,0.0,0.0,0.0,0.0,0.0,0.0,2.2906,2.3716,2.4264,2.4514,2.4376,2.3633,2.302,2.2794,0.0,0.0,0.0,0.0,0.0,0.0,0.0,0.0,0.0,2.2694,2.2694,2.2569,2.2322,0.0,2.1493,2.1496,2.0891,2.0614,2.0614,2.0614,2.0614,2.0589,2.0338,2.0239,2.0214,1.9911,1.9811,1.9811,0.0,0.0,0.0,1.9384,1.9936,2.1043,2.3201,2.6305,2.9754,3.229,3.4424,3.6157,3.6985,3.8015,3.9019,3.9572,4.0124,4.0249,3.9145,3.6759,3.3796,3.0457,2.6666,2.3326,2.1393,1.991,1.9158,1.971,2.0716,2.1878,2.2986,2.3859,2.5255,2.7925,2.8265,2.8809,3.0351,3.0742,3.0898,3.0898,3.0898,3.0898,3.0898,3.0898,3.0898,3.0898,3.0449,3.0,2.9646,2.9141,2.8711,2.8301,2.8301,2.8301,2.8301,2.8301,2.8301,2.8301,2.8301,2.8066,2.7708,2.7441,2.7109,2.668,2.625,2.6074,2.6055,2.5771,2.5693,2.5693,2.5693,2.5284,2.4658,0.0,0.0,0.0,0.0,0.0,0.0,2.3077,2.4012,2.499,2.5772,2.6052,2.5682,2.4376,2.3195,2.2543,0.0,0.0,0.0,0.0,0.0,0.0,0.0,0.0,0.0,0.0,0.0,0.0,2.2322,2.1644,0.0,0.0,0.0,0.0,0.0,1.9811,1.9811,1.9811,1.9811,1.9811,0.0,0.0,1.9811,0.0,0.0,0.0,0.0,0.0,1.9409,2.044,2.2196,2.465,2.7544,3.0407,3.3771,3.6734,3.7186,3.8341,3.9622,4.0049,4.0325,4.0224,3.8994,3.5855,3.219,2.8875,2.5109,2.1845,2.0137,1.9359,1.9158,1.971,2.0649,2.1666,2.2624,2.3077,2.426,2.7096,2.7659,2.8465,3.031,3.1311,3.1825,3.1825,3.1556,0.0,3.1383,3.1054,3.0898,3.0898,3.0137,2.9668,2.9626,2.8828,2.8379,2.8301,2.8301,2.8301,2.8301,2.8301,2.8301,2.8301,2.8301,2.8105,2.7793,2.7767,2.748,2.7109,2.6602,2.6387,2.6348,2.5849,2.5693,2.5693,2.5693,2.5693,2.5528,0.0,0.0,0.0,0.0,0.0,0.0,2.4258,2.4959,2.5808,2.688,2.6655,2.6033,2.5183,2.3859,2.2644,0.0,0.0,0.0,0.0,0.0,0.0,0.0,0.0,0.0,0.0,0.0,0.0,2.2322,2.1295,0.0,0.0,0.0,0.0,0.0,0.0,1.9811,1.9811,1.9811,0.0,0.0,0.0,0.0,0.0,0.0,0.0,0.0,0.0,1.8355,1.8756,2.0916,2.2498,2.3797,2.5126,2.9841,3.4951,3.5002,3.6885,3.8969,3.9019,3.9747,4.0124,3.8492,3.5554,3.219,2.8875,2.5109,2.1845,2.0137,1.9359,1.9158,1.971,2.0335,2.1064,2.2025,2.3085,2.437,2.626,2.8726,3.0671,3.1545,3.3583,3.4902,3.4902,3.3698,3.2907,3.2907,3.1652,3.0898,3.0898,3.041,2.9961,2.9646,2.9101,2.8672,2.8301,2.8301,2.8301,2.8301,2.8301,2.8301,2.8301,2.8301,2.8262,2.8203,2.7885,2.7689,0.0,2.6719,2.6387,2.6348,2.5849,2.5693,2.5693,2.5693,2.5693,2.5693,0.0,0.0,0.0,0.0,0.0,0.0,2.5,2.5737,2.6608,2.7895,2.7768,2.7315,2.6694,2.4993,2.324,2.1627,2.1219,0.0,0.0,0.0,0.0,0.0,0.0,0.0,0.0,0.0,2.2569,2.2769,2.202,0.0,0.0,0.0,0.0,0.0,0.0,1.9811,1.9811,1.9811,0.0,0.0,0.0,0.0,0.0,0.0,0.0,0.0,0.0,0.0,1.7953,1.9484,2.0487,2.1189,2.1669,2.4782,2.8725,3.106,3.3947,3.6659,3.799,3.917,3.9697,3.8341,3.4776,3.0909,2.8222,2.4356,2.1016,2.0012,1.9359,1.9158,1.971,2.0289,2.1029,2.2048,2.1937,2.2688,2.5378,2.6543,2.8099,3.0715,3.2958,3.4585,0.0,0.0,3.4372,3.3212,3.171,3.0898,3.0898,3.0215,2.9746,2.9626,2.8906,2.8457,2.8301,2.8301,2.8301,2.8301,2.8301,2.8301,2.8301,2.8301,2.8301,2.8281,2.8125,2.8047,0.0,2.7109,2.6758,2.6699,2.5966,2.5693,2.5693,2.5693,2.5693,2.5693,0.0,0.0,0.0,0.0,0.0,2.3999,2.5113,2.6033,2.6991,2.8158,2.8336,2.8186,2.7637,2.5751,2.3845,2.2294,2.1298,0.0,0.0,0.0,0.0,0.0,0.0,0.0,0.0,0.0,2.2945,2.3095,2.2719,2.2472,0.0,0.0,2.0842,2.0666,0.0,0.0,0.0,0.0,0.0,0.0,0.0,0.0,0.0,0.0,0.0,0.0,0.0,0.0,0.0,0.0,0.0,1.9309,1.9133,2.0564,2.305,2.6942,3.0758,3.4148,3.6031,3.7613,3.8492,3.7513,3.3796,2.9779,2.758,2.3884,2.0717,1.9962,1.951,1.9334,1.9736,2.0137,2.0792,2.1895,2.1416,2.1974,2.493,2.5899,2.7364,3.035,0.0,3.4485,3.5961,3.6493,3.5748,3.3268,3.215,3.1383,3.0937,3.0059,2.9626,2.9626,2.873,2.8301,2.8301,2.8301,2.8301,2.8301,2.8301,2.8301,2.8301,2.8301,2.8301,2.8301,2.8301,2.8301,0.0,2.75,2.7129,2.6953,2.6161,2.581,2.5693,2.5693,2.5693,2.5693,0.0,0.0,0.0,0.0,0.0,2.3849,2.4515,2.5734,2.6836,2.7525,2.8188,2.834,2.7663,2.5846,2.4418,2.374,2.1911,0.0,0.0,0.0,0.0,0.0,0.0,0.0,2.2322,2.2322,2.2569,2.3095,2.3095,2.2819,2.2297,2.1744,2.1219,2.0666,0.0,0.0,0.0,0.0,0.0,0.0,0.0,0.0,0.0,0.0,0.0,0.0,0.0,0.0,0.0,0.0,0.0,0.0,0.0,1.7802,1.9032,2.2924,2.757,3.1687,3.286,3.4771,3.6304,3.5658,3.2667,2.9227,2.7002,2.391,2.1167,2.0037,1.9811,1.9786,1.9811,1.9811,2.0188,2.1317,2.1945,2.2997,2.5121,2.7922,3.0118,3.1073,3.3265,3.5558,3.7765,3.8149,3.6856,3.3381,3.3077,0.0,3.0995,3.0059,2.9626,2.9626,2.873,2.8301,2.8301,2.8301,2.8301,2.8301,2.8301,2.8301,2.8301,2.8301,2.8301,2.8301,2.8301,2.8301,0.0,2.7832,2.7402,2.6973,2.6543,2.6113,2.5693,2.5693,2.5693,2.5693,0.0,0.0,0.0,0.0,0.0,0.0,2.4515,2.4963,2.5472,2.6153,2.6422,2.6648,2.6891,2.5538,2.474,2.5045,2.3239,0.0,0.0,0.0,0.0,0.0,0.0,0.0,2.2297,2.3075,2.3552,2.3728,2.4456,2.4531,2.3998,2.3452,2.2698,2.1744,2.0842,2.0189,0.0,0.0,0.0,0.0,0.0,0.0,0.0,0.0,0.0,0.0,0.0,0.0,0.0,0.0,0.0,0.0,0.0,0.0,0.0,1.9133,2.2723,2.6565,2.767,2.9302,3.0583,3.003,2.7846,2.5435,2.3954,2.225,2.0641,1.951,1.956,1.9811,1.9811,1.9811,2.0413,2.2268,2.2719,2.3598,2.5832,2.8251,3.0488,3.2253,3.5796,3.8693,0.0,0.0,3.689,3.4759,3.3677,3.2473,3.0995,3.0332,2.9863,2.9646,2.873,2.8301,2.8301,2.8301,2.8301,2.8301,2.8301,2.8301,2.8301,2.8301,2.8301,2.8301,2.8301,2.8301,0.0,2.7519,2.7129,2.6953,2.623,2.581,2.5693,2.5693,2.5693,2.5693,0.0,0.0,0.0,0.0,0.0,0.0,2.4156,2.4425,2.4754,2.5173,2.5465,2.5854,2.6512,2.5382,2.5004,2.5962,2.4669,0.0,0.0,0.0,0.0,0.0,0.0,0.0,2.2674,2.3361,2.3928,2.4305,2.5184,2.5435,2.5109,2.4757,2.3778,2.2272,2.1395,2.0566,0.0,0.0,0.0,0.0,0.0,0.0,1.9384,0.0,0.0,0.0,0.0,0.0,0.0,0.0,0.0,0.0,0.0,0.0,0.0,0.0,1.9158,2.192,2.3828,2.5586,2.6791,2.644,2.4858,2.3075,2.1945,2.084,1.9861,1.9133,1.9259,1.956,1.9761,1.9987,2.0665,2.2246,2.2844,2.3904,2.6172,2.8373,3.0758,3.3395,3.686,0.0,0.0,3.9065,3.7958,3.624,3.5288,3.4125,3.2664,3.1446,3.0701,3.0439,2.9213,2.8457,2.8301,2.8301,2.8301,2.8301,2.8301,2.8301,2.8301,2.8301,2.8301,2.8301,2.8301,2.8301,0.0,2.7715,2.7305,2.6973,2.6621,2.6172,2.5713,2.5918,2.583,2.5693,0.0,0.0,0.0,0.0,0.0,0.0,0.0,2.4126,2.4545,2.4545,2.5053,2.5704,2.6303,2.5262,2.5053,2.6393,2.5974,0.0,0.0,0.0,0.0,0.0,0.0,2.2871,2.3303,2.3434,2.4008,2.4968,2.5633,2.5903,2.5812,2.5837,2.4645,2.2397,2.1845,2.0941,1.9811,1.9811,1.9811,1.9811,1.9811,1.951,0.0,0.0,0.0,0.0,0.0,0.0,0.0,0.0,0.0,0.0,0.0,0.0,0.0,0.0,0.0,0.0,0.0,2.3075,2.4249,2.4249,2.3125,2.1694,2.0691,1.9685,0.0,1.8933,1.8983,1.9208,1.9861,2.039,2.0943,2.1719,2.2673,2.4048,2.6348,2.8686,0.0,0.0,3.686,0.0,3.7412,3.9245,3.9622,3.766,3.7482,3.6818,3.5298,3.316,3.1888,3.1867,3.012,2.8928,2.8301,2.8301,2.8301,2.8301,2.8301,2.8301,2.8301,2.8301,2.8301,0.0,2.8301,2.8301,0.0,2.8262,2.7773,2.709,2.748,2.6875,2.5791,2.6269,2.6133,2.5693,0.0,0.0,0.0,0.0,0.0,0.0,0.0,0.0,0.0,0.0,2.3969,2.4118,2.4298,2.4029,2.4388,0.0,0.0,0.0,0.0,0.0,0.0,0.0,2.3136,2.3357,2.3521,2.4831,2.5891,2.6637,2.8617,2.8953,2.7821,2.8325,2.6801,2.3577,2.297,2.1616,1.9811,1.9811,1.9811,1.9811,1.9811,1.9736,0.0,0.0,0.0,0.0,1.7024,1.7099,0.0,0.0,0.0,0.0,0.0,0.0,0.0,0.0,1.66,1.6876,1.7654,0.0,1.9133,1.9133,1.8832,1.8504,0.0,1.8279,1.8405,1.8405,1.8707,1.9559,2.1393,2.1142,2.1722,2.4815,2.5134,2.5787,2.8021,3.1361,0.0,3.7563,3.8718,3.9245,3.912,3.9572,3.9226,3.7636,3.7149,3.6227,3.4706,3.3697,3.3052,3.2752,3.2254,3.0842,2.8301,2.8301,2.8301,2.8301,2.8301,2.8301,2.8301,2.8301,2.8301,2.8301,2.8301,2.8301,2.8262,2.7949,2.7748,2.748,2.7266,2.6777,2.6289,2.6719,2.6387,2.5732,0.0,0.0,0.0,0.0,0.0,0.0,0.0,0.0,0.0,0.0,2.361,2.361,2.361,2.361,2.4148,0.0,0.0,0.0,0.0,0.0,0.0,2.4082,2.3727,2.3692,2.4019,2.5233,2.6581,2.8036,2.9187,2.9617,2.9337,2.9028,2.7105,2.3929,2.2322,2.0914,1.9811,1.9811,1.9811,1.9811,1.9811,0.0,0.0,0.0,0.0,0.0,1.6901,1.6898,0.0,1.7677,1.8129,1.8456,0.0,0.0,0.0,0.0,1.65,1.65,1.65,1.7124,1.7752,1.7752,1.7752,1.7827,1.8078,1.7978,1.7978,1.848,1.8807,1.9584,2.1568,2.1644,2.2372,2.5234,2.5862,2.7042,3.003,0.0,3.5655,3.8191,3.8969,3.9421,0.0,3.9697,3.9362,3.8582,3.8017,3.7339,3.6535,3.5108,3.4216,3.4014,3.3152,3.1546,2.927,2.9197,2.89,2.8301,2.8301,2.8301,2.8301,2.8301,2.8301,2.8301,2.8301,0.0,2.8281,2.8047,2.7904,2.7708,2.7617,2.7226,2.6699,2.6934,2.6719,2.6309,0.0,0.0,0.0,0.0,0.0,0.0,0.0,0.0,0.0,0.0,0.0,0.0,0.0,0.0,0.0,0.0,0.0,0.0,0.0,0.0,2.6303,2.5644,2.4507,2.4236,2.4978,2.5528,2.6995,2.938,2.9193,2.9624,3.0619,2.9284,2.7002,2.3879,2.1242,1.9962,1.9811,1.9811,1.9811,1.9811,1.9811,0.0,0.0,0.0,0.0,0.0,0.0,0.0,0.0,1.7827,1.8406,1.8882,1.8155,0.0,0.0,0.0,0.0,0.0,1.6701,1.7652,1.8505,1.8154,1.8329,1.8656,1.8933,1.8355,1.8028,1.9033,1.9309,1.991,2.1669,2.2372,2.3271,2.5126,2.6515,0.0,3.2441,3.4198,3.5855,3.7889,3.8642,0.0,3.9521,3.9647,3.9672,3.9572,3.9044,3.8743,3.8617,3.6577,3.54,3.54,3.3811,3.228,3.0927,3.0514,2.9702,2.8601,2.8388,2.8301,2.8301,2.8301,2.8301,2.8301,0.0,0.0,2.8301,2.8301,2.8086,2.7845,2.8164,2.7812,2.7129,2.7187,2.7129,2.6914,0.0,0.0,0.0,0.0,0.0,0.0,0.0,0.0,0.0,0.0,0.0,0.0,0.0,0.0,0.0,0.0,0.0,0.0,0.0,2.6213,2.6303,2.5644,2.5405,2.5866,2.7105,2.7225,2.8545,3.1131,3.1632,3.1876,3.1829,3.1446,2.8639,2.3929,2.2071,2.069,1.9811,1.9811,1.9811,1.9811,1.9811,0.0,0.0,0.0,0.0,0.0,0.0,0.0,0.0,1.6923,1.7754,1.8732,1.7227,0.0,0.0,0.0,0.0,0.0,1.7677,1.9083,1.9862,1.8001,1.8932,2.0088,1.9183,1.9208,1.961,2.0314,2.0817,2.1769,2.3904,2.4349,2.5252,2.7835,3.0005,3.2516,0.0,0.0,3.7287,3.8642,0.0,3.9421,3.9044,3.9421,3.9496,3.9044,3.8467,3.7939,3.7462,3.6666,3.6221,3.6221,3.5955,3.5114,3.3773,3.144,3.0224,2.9964,2.8847,2.8301,2.8301,2.8301,2.8301,2.8301,0.0,2.8301,2.8301,2.8301,2.8262,2.8203,2.8262,2.7988,2.7617,2.7969,2.7637,2.6953,0.0,0.0,0.0,0.0,0.0,0.0,0.0,0.0,0.0,0.0,0.0,0.0,0.0,0.0,0.0,0.0,0.0,0.0,2.5585,2.6213,2.6452,2.6153,2.6841,2.732,2.7585,2.8304,2.9774,3.2019,3.2576,3.267,3.2286,2.968,2.6941,2.4123,2.1995,2.0616,1.9811,1.9811,1.9811,1.9811,0.0,0.0,0.0,0.0,0.0,0.0,0.0,0.0,0.0,0.0,1.7702,1.8431,1.7654,0.0,0.0,0.0,0.0,0.0,1.7127,1.8706,1.9987,1.8932,2.0363,2.1794,2.0964,2.0964,2.1393,2.2297,2.2673,2.3427,2.536,2.5963,2.7143,3.0206,3.2524,3.4505,3.6081,3.681,3.7487,0.0,0.0,3.927,3.932,3.927,3.9145,3.8944,3.8065,3.7462,3.7186,3.6707,3.6405,3.6405,3.6405,3.6121,3.5475,3.3502,3.2151,3.1367,3.0773,3.0068,2.9355,2.9355,2.8886,2.7969,0.0,2.8164,2.7969,2.8203,2.8301,2.8301,2.8301,2.8184,2.8027,2.8223,2.7754,2.7031,0.0,0.0,0.0,0.0,0.0,0.0,0.0,0.0,0.0,0.0,0.0,0.0,0.0,0.0,0.0,0.0,0.0,2.4754,2.5106,2.6033,2.6512,2.6363,2.7799,2.8577,2.8487,2.9382,3.0851,3.2976,3.3125,3.2854,3.2159,2.8086,2.5449,2.4,2.1852,2.049,1.9811,1.9811,1.9811,1.9811,0.0,0.0,0.0,0.0,0.0,0.0,0.0,0.0,0.0,0.0,0.0,0.0,0.0,0.0,0.0,1.7727,1.7174,1.6773,1.7027,1.8406,1.9836,1.9962,2.1493,2.2945,2.305,2.3075,2.3427,2.4707,2.5059,2.5511,2.6675,2.7656,2.9252,3.2315,3.453,3.6034,3.6411,3.7236,3.7939,3.8341,3.8793,3.922,3.9647,3.9195,3.8869,3.8668,3.7739,3.7136,3.6985,3.6631,3.6405,3.6405,3.6405,3.6405,3.6405,3.5257,3.4048,3.2783,3.2319,3.1548,3.0551,3.0263,2.9373,2.8145,2.8265,2.8105,2.7832,2.8164,2.8301,2.8301,2.8301,2.8301,2.8301,2.8301,2.7812,2.7226,0.0,0.0,0.0,0.0,0.0,0.0,0.0,0.0,0.0,0.0,0.0,0.0,0.0,0.0,0.0,0.0,2.4246,2.4365,2.3789,2.5525,2.6303,2.5704,2.756,2.9445,3.1182,3.0673,3.1719,3.4354,3.3752,3.264,3.1049,2.9042,2.6348,2.3135,2.1974,2.0815,1.9811,1.9811,1.9811,1.9811,1.9811,0.0,0.0,0.0,0.0,0.0,0.0,0.0,0.0,0.0,0.0,0.0,0.0,0.0,1.8832,1.8304,1.7752,1.7551,1.8556,1.9284,1.9936,2.049,2.1493,2.2899,2.4908,2.536,2.5837,2.7469,2.8222,2.8411,2.8047,2.9679,3.1863,3.4173,3.5956,3.7613,3.917,0.0,3.9521,3.9572,3.9622,3.9647,3.9697,3.9195,3.8642,3.8115,3.7513,3.696,3.6505,3.643,3.6405,3.6405,3.6405,3.6405,3.6405,3.5762,3.5032,3.4215,3.2427,3.1511,3.1362,3.0133,2.9525,2.93,2.8615,2.8281,2.8242,2.8281,2.8301,2.8301,2.8301,2.8301,2.8301,2.8301,2.8008,2.7669,0.0,0.0,0.0,0.0,0.0,0.0,0.0,0.0,0.0,0.0,0.0,0.0,0.0,0.0,0.0,0.0,2.3849,2.4059,2.4216,2.4933,2.5794,2.6806,2.7585,2.8876,3.0851,3.145,3.2647,3.4503,3.3122,3.2249,3.1849,2.8311,2.6131,2.511,2.2609,2.1094,2.0339,1.9962,1.9811,1.9811,1.9811,1.9811,0.0,0.0,0.0,0.0,0.0,0.0,0.0,0.0,1.7451,1.8154,1.7802,1.8304,1.8882,1.838,1.7827,1.7498,1.7877,1.9158,2.049,2.1069,2.2272,2.3853,2.5745,2.7193,2.8574,2.988,3.0884,3.1336,3.0758,3.1913,3.3445,3.4931,3.691,3.8567,3.9546,3.9697,3.9697,3.9697,3.9697,3.9697,3.9697,3.8868,3.8241,3.8015,3.7186,3.6631,3.6405,3.6405,3.6405,3.6405,3.6031,3.5855,3.5855,3.5257,3.4853,3.4563,3.3831,3.2653,3.1117,3.0866,2.9719,2.7984,2.8199,2.8144,2.793,2.8184,2.8301,2.8301,2.8301,2.8301,2.8301,2.8301,2.8184,2.8047,0.0,0.0,0.0,0.0,0.0,0.0,0.0,0.0,0.0,0.0,0.0,0.0,0.0,0.0,0.0,0.0,2.361,2.3789,2.4246,2.4485,2.5202,2.6572,2.7255,2.8334,2.9864,3.1391,3.2736,3.3844,3.2645,3.1811,3.1361,2.8087,2.6263,2.5635,2.3206,2.1695,2.0918,2.0339,1.9962,1.9811,1.9811,1.9811,0.0,0.0,0.0,0.0,0.0,0.0,0.0,0.0,1.73,1.7928,1.7903,1.843,1.8933,1.8556,1.8204,1.7877,1.77,1.8982,2.0591,2.1345,2.3,2.5084,2.7268,2.895,3.0507,3.2114,3.2792,3.3061,3.2792,3.337,3.4324,0.0,3.7538,3.912,3.9622,3.9697,3.9622,3.9446,3.9421,3.9371,3.917,3.8291,3.7739,3.7739,3.6885,3.6405,3.6405,3.6207,3.6107,3.6107,3.5579,3.5232,3.5232,3.4751,3.4449,3.4449,3.4299,3.3395,3.1856,3.1867,3.0749,2.8807,2.8865,2.8793,2.8481,2.8377,2.8301,2.8301,2.8301,2.8301,2.8301,2.8301,2.8301,2.8301,0.0,0.0,0.0,0.0,0.0,0.0,0.0,0.0,2.361,2.361,2.361,0.0,0.0,0.0,0.0,0.0,2.361,2.361,2.361,2.4216,2.4605,2.4605,2.6512,2.7914,2.8577,3.0464,3.1809,3.2497,3.2467,3.1302,2.9108,2.874,2.6934,2.4016,2.3736,2.2815,2.1443,2.0918,2.0365,1.9811,1.9811,1.9811,1.9811,0.0,0.0,0.0,0.0,0.0,0.0,0.0,1.7398,1.7576,1.8632,1.8983,1.9008,1.8983,1.9008,1.8882,1.8355,1.9007,2.0087,2.1217,2.3577,2.6515,2.9854,3.0633,3.1411,3.4173,3.3872,3.3269,3.3822,3.3922,3.4449,3.6153,3.7813,3.9069,3.9622,3.9697,3.9471,3.8944,3.8919,3.8642,3.8065,3.7513,3.7186,3.7186,3.6707,3.6405,3.6405,3.583,3.5483,3.5483,3.4956,3.468,3.468,3.4173,3.3897,3.3897,3.3345,3.337,3.3853,3.3061,3.2699,3.2606,3.1004,3.0307,3.0203,2.8847,2.8281,2.8301,2.8301,2.8301,2.8301,2.8301,2.8301,2.8301,0.0,0.0,0.0,0.0,0.0,0.0,0.0,0.0,2.361,2.361,2.361,0.0,0.0,0.0,0.0,0.0,0.0,2.361,2.361,2.3789,2.4096,2.4575,2.5644,2.6512,2.7171,2.8697,3.0225,3.1809,3.0778,2.9696,2.8567,2.6815,2.5581,2.4797,2.3713,2.2607,2.1443,2.0918,2.0365,1.9811,1.9811,1.9811,1.9811,0.0,0.0,0.0,0.0,0.0,0.0,0.0,0.0,0.0,1.73,1.8306,1.9334,1.8204,1.8681,1.9459,1.8907,2.0111,2.1845,2.2975,2.5611,2.8562,3.116,3.2064,3.3119,3.5881,3.5579,3.4977,3.5529,3.5655,0.0,3.681,3.7688,3.8592,3.9546,3.9019,3.8592,3.8894,3.8517,3.8191,3.8015,3.7513,3.7186,3.7186,3.6307,3.578,3.578,3.5232,3.4931,3.4931,3.4424,3.4148,3.4148,3.3596,3.3319,3.3319,3.3169,3.2686,3.1974,3.2098,3.1669,3.0829,3.1047,3.1118,3.104,3.0078,2.9144,2.8301,2.8301,2.8301,2.8301,2.8301,2.8301,2.8301,0.0,0.0,0.0,0.0,0.0,0.0,0.0,0.0,2.361,2.361,2.361,2.361,0.0,0.0,0.0,0.0,2.361,2.361,2.361,2.361,2.3909,2.4575,2.5232,2.6153,2.735,2.8457,2.9295,2.9953,2.9082,2.8309,2.7619,2.6426,2.5635,2.5153,2.4538,2.3378,2.1769,2.1245,2.0691,2.0137,2.0137,2.0137,2.0137,0.0,0.0,0.0,0.0,0.0,0.0,0.0,0.0,0.0,1.6974,1.7777,1.8681,1.7928,1.8405,1.9183,1.9284,2.079,2.2673,2.423,2.7143,3.0192,3.2667,3.4148,3.5629,3.7739,3.7136,3.6433,3.726,3.6835,0.0,3.7387,3.7789,3.8241,3.8919,3.8442,3.8065,3.8191,3.7889,3.7588,3.7387,3.686,3.6533,3.6533,3.5683,3.5182,3.5182,3.4655,3.4399,3.4399,3.3847,3.3571,3.3571,3.3244,3.3111,3.3111,3.3111,3.2698,3.1977,3.2467,3.2304,3.1597,3.2105,3.2007,3.1488,3.1222,3.0307,2.9092,2.9092,2.8741,2.8301,2.8301,2.8301,2.8301,0.0,0.0,2.361,2.361,0.0,0.0,0.0,0.0,2.361,2.361,2.361,2.361,0.0,0.0,0.0,2.361,2.367,2.367,2.361,2.361,2.3909,2.4575,2.5352,2.6618,2.8453,2.9152,2.8767,2.7276,2.7498,2.7202,2.6412,2.6891,2.6358,2.5037,2.5647,2.4542,2.2272,2.1769,2.1245,2.0691,2.0691,2.0666,2.0616,2.0616,0.0,0.0,0.0,0.0,0.0,0.0,0.0,0.0,1.7398,1.7473,1.7626,1.8078,1.8304,1.8656,1.9685,2.1142,2.2949,2.5259,2.8423,3.1687,3.4349,3.6533,3.8291,3.927,3.8341,3.7638,3.8743,3.7637,3.6835,3.7839,3.7965,3.7939,3.799,3.7889,3.7613,3.7161,3.7036,3.6759,3.6304,3.5755,3.5433,3.5433,3.4906,3.465,3.465,3.4123,3.3822,3.3822,3.3345,3.3111,3.3111,3.3111,3.3111,3.3111,3.3111,3.3111,3.3136,3.3596,3.3847,3.3903,3.3637,3.2836,3.1735,3.2234,3.1629,3.0463,3.038,2.9565,2.8441,2.8354,2.8301,2.8301,0.0,0.0,2.361,2.361,0.0,0.0,0.0,0.0,0.0,2.361,0.0,0.0,0.0,0.0,0.0,2.364,2.4066,2.4156,2.364,2.361,2.3909,2.4575,2.6243,2.7284,2.7511,2.8345,2.7517,2.4854,2.6717,2.6953,2.5721,2.5659,2.5236,2.4461,2.4458,2.3659,2.2297,2.2196,2.1568,2.0691,2.0691,2.0415,1.9987,1.9987,1.9836,0.0,0.0,0.0,0.0,0.0,0.0,0.0,1.7398,1.7978,1.8606,1.8304,1.9133,2.0314,2.0968,2.202,2.3672,2.6791,3.0733,3.4324,3.6232,3.7362,3.7939,3.7764,3.814,3.8642,3.8818,3.8216,3.7739,3.7965,3.7638,3.7513,3.7939,3.6837,3.6182,3.6556,3.578,3.5203,3.5077,3.4977,3.4856,3.4856,3.4399,3.4073,3.4073,3.3545,3.3244,3.3244,3.3144,3.3111,3.3111,3.3111,3.3111,3.3111,3.3111,3.3111,3.3111,3.3194,3.3495,3.3922,3.3811,3.3536,3.3074,3.3191,3.2689,3.1774,3.0721,3.012,2.9755,2.8708,2.8301,2.8301,0.0,0.0,0.0,0.0,0.0,0.0,0.0,0.0,0.0,0.0,0.0,0.0,0.0,2.4096,0.0,0.0,2.3939,2.3947,2.361,2.361,2.4059,2.5023,2.6663,2.7506,2.7391,2.7474,2.6631,2.4751,2.5978,2.6136,2.5372,2.5112,2.5165,2.5428,2.4957,2.4155,2.3075,2.2548,2.197,2.1418,2.1194,2.0865,2.0589,2.0339,2.0037,1.9761,1.9484,0.0,0.0,0.0,0.0,0.0,0.0,0.0,1.8607,1.8581,1.9032,1.9736,2.0817,2.2297,2.4575,2.8976,3.2416,3.4951,3.5805,3.6634,3.7136,3.6883,3.7688,3.8467,3.8467,3.7789,3.7211,3.7211,3.6533,3.6107,3.6383,3.5658,3.5207,3.5554,3.5077,3.468,3.468,3.4474,3.4324,3.4324,3.3571,3.3219,3.3495,3.2968,3.2792,3.3111,3.2817,3.2667,3.2667,3.239,3.239,3.2667,3.2667,3.2817,3.3111,3.3111,3.3244,3.352,3.3796,3.3841,3.3722,3.4259,3.3839,3.286,3.2392,3.1847,3.1184,3.0463,2.9807,2.925,0.0,0.0,0.0,0.0,0.0,0.0,0.0,0.0,0.0,0.0,0.0,0.0,0.0,2.4096,2.3729,0.0,0.0,0.0,2.361,2.3819,2.4537,2.5884,2.7081,2.7652,2.7528,2.6915,2.6134,2.5231,2.5218,2.535,2.5551,2.5148,2.5608,2.6679,2.5848,2.4908,2.3929,2.2899,2.2368,2.2272,2.1719,2.1418,2.132,2.0742,2.0239,1.9811,1.9811,1.9811,1.9736,1.9183,0.0,0.0,0.0,0.0,1.8455,1.8983,1.8757,1.8706,2.039,2.2648,2.5711,3.0457,3.3043,3.4474,3.455,3.5353,3.6128,3.6128,3.6885,3.7638,3.7839,3.6885,3.6153,3.6207,3.5378,3.468,3.468,3.465,3.455,3.4449,3.4424,3.4349,3.4173,3.3822,3.3571,3.347,3.2591,3.229,3.2767,3.234,3.229,3.2767,3.2315,3.2064,3.2064,3.1612,3.1662,3.2215,3.2315,3.2616,3.3111,3.3111,3.3111,3.3093,3.3571,3.3796,3.3972,3.4831,3.4681,3.3863,3.4125,3.3581,3.2632,3.2381,3.1571,3.0618,0.0,0.0,0.0,0.0,0.0,0.0,0.0,0.0,0.0,0.0,2.4963,2.4605,2.4605,2.4515,2.4216,2.364,2.4126,2.4216,2.364,0.0,0.0,2.7285,2.8051,2.8061,2.728,2.7314,2.6298,2.4213,2.4344,2.5328,2.6976,2.6149,2.6096,2.6652,2.5466,2.4582,2.3954,2.3271,2.2719,2.2272,2.1719,2.1219,2.0742,2.0137,1.9861,1.9811,1.9811,1.9811,1.9736,1.9183,1.9008,0.0,0.0,0.0,1.9008,1.9535,1.9309,1.9259,2.0941,2.4086,2.7243,2.895,3.1336,3.342,3.3897,3.45,3.4951,3.4951,3.5382,3.611,3.7111,3.6006,3.5102,3.5533,3.5082,3.468,3.468,3.4299,3.3822,3.3345,3.3294,3.2918,3.1938,3.2215,3.224,3.1763,3.1587,3.1537,3.1612,3.1537,3.1537,3.1612,3.1537,3.1486,3.1486,3.1436,3.1662,3.2215,3.2717,3.2993,3.3111,3.3111,3.3111,3.3111,3.3187,3.3445,3.3897,3.4048,3.454,3.5112,3.4054,3.3812,3.397,3.2733,3.218,3.1876,0.0,0.0,0.0,0.0,0.0,0.0,0.0,0.0,0.0,0.0,0.0,2.5143,2.5143,2.4485,2.3939,2.364,2.4216,2.4634,2.4717,2.5615,2.6223,2.6436,2.7085,2.7043,2.6214,2.588,2.5201,2.4167,2.382,2.4906,2.7304,2.7198,2.7924,2.9269,2.7763,2.664,2.5737,2.4255,2.3271,2.2694,2.2171,2.1995,2.192,2.0767,2.049,2.0665,2.0037,1.9811,1.9761,1.9535,1.9459,1.9459,1.9459,0.0,0.0,0.0,1.9635,1.981,2.1493,2.3427,2.5536,2.7835,2.9854,3.1461,3.229,3.2918,3.3319,3.3319,3.3269,3.3746,3.5479,3.4951,3.4248,3.4173,3.3947,3.3696,3.337,3.3119,3.2867,3.2616,3.2315,3.1938,3.1436,3.1612,3.1662,3.1411,3.111,3.1085,3.1361,3.111,3.1085,3.1386,3.111,3.0959,3.0959,3.0658,3.0758,3.1336,3.219,3.2591,3.2591,3.2943,3.3111,3.3111,3.3111,3.3219,3.347,3.3771,3.4374,3.5011,3.473,3.4985,3.5475,3.4848,3.4093,3.3403,0.0,0.0,0.0,0.0,0.0,0.0,0.0,0.0,0.0,0.0,0.0,2.5854,2.5854,0.0,0.0,0.0,2.4545,2.5143,2.5824,2.6303,2.6411,2.6057,2.6315,2.6149,2.5439,2.4681,2.4192,2.4015,2.3395,2.46,2.7494,2.8047,2.9578,3.1738,3.0105,2.8499,2.7002,2.5159,2.4079,2.3471,2.2619,2.2518,2.2769,2.1543,2.127,2.1368,2.0539,2.0137,2.0012,1.9861,1.9811,1.9811,1.9811,1.9811,0.0,0.0,0.0,2.0037,2.1167,2.2167,2.3496,2.6013,2.7795,2.9227,3.0306,3.1085,3.1662,0.0,3.1687,3.1888,3.3571,3.3646,3.3345,3.2918,3.2867,3.2667,3.2089,3.2014,3.1964,3.1813,3.1562,3.1286,3.1009,3.111,3.1135,3.0984,3.0633,3.0583,3.0959,3.0608,3.0583,3.0959,3.0608,3.0407,3.0407,3.0131,3.0206,3.0633,3.1562,3.2089,3.224,3.2667,3.2943,3.3111,3.3111,3.3111,3.3119,3.352,3.4022,3.4575,3.5082,3.568,3.6182,3.6355,3.5763,3.4872,0.0,0.0,0.0,0.0,0.0,0.0,0.0,0.0,0.0,0.0,0.0,2.6542,2.6542,2.5914,2.5495,2.5495,2.5525,2.5824,2.6482,2.6572,2.6871,2.7445,2.6864,0.0,2.5439,2.4681,2.3956,2.3155,2.3125,2.48,2.8072,2.8624,3.0357,3.296,3.126,2.9026,2.6499,2.5787,2.5209,2.455,2.2975,2.2322,2.2347,2.2272,2.192,2.1468,2.1418,2.1094,2.0566,1.9987,1.9811,1.9811,1.9811,1.9811,1.9811,0.0,0.0,0.0,1.9284,2.0713,2.2397,2.2573,2.4632,2.6952,2.8021,2.9126,3.0206,3.121,3.1411,3.1436,3.1537,3.1964,3.229,3.2265,3.2265,3.2064,3.1512,3.1436,3.126,3.0758,3.111,3.0984,2.998,3.0357,3.0432,2.9905,2.9854,2.9854,2.988,2.9854,2.9854,2.988,2.9854,2.9829,2.9829,3.0331,3.0583,3.0633,3.116,3.1712,3.2215,3.224,3.2566,3.3111,3.3111,3.3111,3.3111,3.3119,3.3445,3.3997,3.455,3.5056,3.5608,3.6182,3.6358,3.6096,0.0,0.0,0.0,0.0,0.0,0.0,0.0,0.0,0.0,0.0,0.0,0.0,0.0,2.6004,2.5615,2.5615,2.6004,2.6512,2.7195,2.7255,2.7144,2.689,2.71,2.6443,2.4738,2.4908,2.4394,2.3095,2.3095,2.4249,2.6515,2.7444,2.8599,2.9905,3.0407,2.9854,2.851,2.6465,2.5485,2.5209,2.3904,2.3803,2.4255,2.2849,2.2648,2.2949,2.187,2.1395,2.1194,2.0941,2.0639,2.039,2.039,2.0112,1.9811,1.9811,1.9811,1.9761,1.9585,2.0087,2.0966,2.2046,2.305,2.418,2.5661,2.6866,2.7907,2.8636,2.9327,2.993,3.0306,3.1085,3.1562,3.1235,3.1461,3.1512,3.0959,3.0884,3.0834,3.0633,3.0457,3.0206,2.9829,2.998,3.0005,2.9804,2.9804,2.9804,2.9804,2.9804,2.9804,2.9804,2.9804,2.9804,2.9804,2.998,3.008,3.0105,3.0633,3.1009,3.121,3.1913,3.2315,3.2541,3.2918,3.3111,3.3111,3.3111,3.3395,3.3947,3.45,3.5006,3.5558,3.6157,3.6405,3.631,0.0,0.0,0.0,0.0,0.0,2.7585,2.7585,2.7585,2.7585,2.7585,0.0,0.0,0.0,0.0,2.6512,2.6273,2.6686,2.7136,2.7555,2.7585,2.7382,2.6864,2.71,2.6549,2.5077,2.5211,2.4696,2.3514,2.3447,2.4048,2.536,2.6289,2.7218,2.8147,2.9076,2.9503,2.9377,2.7519,2.6615,2.6314,2.5059,2.5084,2.5737,2.4481,2.433,2.4682,2.3583,2.2828,2.2272,2.1895,2.1393,2.0943,2.0742,2.0289,1.9811,1.9811,1.9811,1.9811,1.9811,1.9811,2.0112,2.1418,2.1769,2.2196,2.3847,2.4983,2.5921,2.6851,2.7745,2.8549,2.9126,2.9955,3.0507,3.0357,3.0783,3.0934,3.0407,3.0331,3.0331,3.0331,3.0005,2.9804,2.9804,2.9804,2.9804,2.9804,2.9804,0.0,2.9804,2.9804,2.9804,2.9804,2.9804,2.9804,2.9804,2.9804,2.9804,2.9804,3.0156,3.0532,3.0909,3.1612,3.2139,3.2516,3.2918,3.3111,3.3111,3.3111,3.3294,3.3696,3.4424,3.4906,3.5307,3.6081,3.6405,3.6405,0.0,0.0,2.8427,2.7764,2.7645,2.7645,2.7645,2.7645,2.7645,2.7645,0.0,0.0,0.0,0.0,0.0,2.7735,2.7675,2.7675,2.7645,2.7645,2.7645,2.7645,2.6977,2.658,2.6553,2.5648,2.4916,2.4334,2.4131,2.4287,2.4815,2.5343,2.6449,2.8008,2.7505,2.7882,2.8838,2.8838,2.8574,2.7996,2.6289,2.6021,2.665,2.7102,2.6952,2.6524,2.6499,2.5468,2.3904,2.2774,2.2046,2.1521,2.0918,2.0314,1.9836,1.9811,1.9811,1.9811,0.0,0.0,0.0,2.0541,2.0666,2.1094,2.2644,2.3471,2.4381,2.6047,2.6826,2.7369,2.7921,2.8473,2.9051,2.9628,3.0206,3.0407,2.9854,2.9804,2.9804,2.9804,2.9804,2.9804,2.9804,2.9804,2.9804,2.9804,2.9804,2.9804,2.9804,2.9804,2.9804,2.9804,2.9804,2.9804,2.9804,2.9804,2.9804,2.9804,2.9804,3.0331,3.1336,3.1386,3.1989,3.3061,3.3111,3.3111,3.3111,3.3111,3.3111,3.3237,3.4299,3.468,3.4851,3.6003,3.6405,3.6405,0.0,2.9624,2.9235,2.9082,2.9052,2.9052,2.9052,2.9052,2.9052,0.0,0.0,0.0,2.9082,2.9594,2.9894,2.9714,2.9684,2.9505,2.9082,2.9052,2.9052,2.9052,2.8866,2.8456,2.7905,2.7627,2.6656,2.4945,2.4895,2.4719,2.445,2.4997,2.5693,2.6518,2.6752,2.7191,2.772,2.7318,2.7996,2.9101,2.6615,2.6917,2.8674,2.6791,2.6465,2.7027,2.6625,2.6197,2.5695,2.4933,2.433,2.3577,2.182,2.0893,2.0365,1.9936,1.9811,1.9811,1.9811,0.0,0.0,0.0,0.0,0.0,2.0614,2.1468,2.2422,2.3276,2.4556,2.5661,2.6189,2.6766,2.7354,2.7896,2.9126,2.9955,2.9804,2.9804,2.9804,2.9804,2.9804,2.9804,2.9804,2.9804,2.9804,0.0,2.9804,2.9804,2.9804,2.9804,2.9804,2.9804,2.9804,2.9804,2.9804,2.9804,2.9804,2.9804,2.9804,2.9955,3.0256,3.1035,3.1562,3.1913,3.2717,3.3111,3.3111,3.3111,3.3111,3.3237,3.4299,3.468,3.4851,3.6003,3.6405,3.6405,3.0492,3.0223,2.9921,2.9651,2.9804,2.9953,2.9953,2.9953,2.9953,0.0,0.0,0.0,3.0761,3.112,3.112,3.0552,3.0492,3.0253,2.9651,2.9621,2.9621,2.9621,2.9621,2.9401,2.893,2.8826,2.8053,2.654,2.6215,2.5875,2.5554,2.5331,2.5605,2.6306,2.6348,2.6601,2.6952,2.6625,2.7505,2.8976,2.7544,2.8122,2.9654,2.8473,2.8423,2.895,2.8661,2.8259,2.7756,2.6917,2.5837,2.4449,2.2472,2.1769,2.1543,2.074,2.0665,2.079,2.0564,2.0514,2.0514,2.0514,0.0,0.0,2.0189,2.0691,2.132,2.1845,2.2924,2.4004,2.4782,2.5385,2.5963,2.649,2.7795,2.8825,2.9051,2.9101,2.9101,2.9101,2.9101,2.9101,2.9101,2.9101,2.9176,2.9428,2.9428,2.9528,2.9779,2.9804,2.9804,2.9804,2.9804,2.9804,2.9804,2.9804,2.9804,2.9804,2.9804,2.9905,3.0156,3.1009,3.1512,3.1788,3.2692,3.3111,3.3111,3.3111,3.3111,3.3237,3.4299,3.468,3.4851,3.6003,3.6405,3.6405,0.0,3.0612,3.0462,2.9983,3.0372,3.0761,3.0821,3.0821,3.0821,0.0,3.1481,3.2198,3.2886,3.2946,3.2437,3.118,3.1001,3.0642,2.9953,2.9894,2.9891,2.9804,2.9804,2.9804,2.9804,2.9636,2.9204,2.8511,2.7791,2.7442,2.7389,2.6245,2.6171,2.6919,2.6423,2.6251,2.6399,2.6552,2.7122,2.7971,2.8524,2.9277,3.0156,3.0909,3.1286,3.1386,3.1386,3.0783,2.9804,2.8674,2.6816,0.0,0.0,0.0,0.0,2.197,2.197,2.2221,2.1794,2.1669,2.1644,2.1594,2.1345,0.0,2.0742,2.0792,2.0968,2.1242,2.1794,2.2523,2.3527,2.423,2.4775,2.5335,2.6264,2.7143,2.7821,2.8021,2.8072,2.7946,2.8021,2.8072,2.8021,2.8072,2.8323,2.8762,2.8787,2.9076,2.9654,2.9704,2.9729,2.9804,2.9804,2.9804,2.9804,2.9804,2.9804,2.9804,2.9804,3.0055,3.0532,3.1135,3.1662,3.2164,3.2792,3.3111,3.3111,3.3111,3.3111,3.3194,3.4223,3.4675,3.4851,3.5881,3.6355,3.6405,3.1331,3.1301,3.1421,3.1869,3.2048,3.2287,3.2826,3.2916,3.2916,3.2916,3.3963,3.4981,3.5639,3.5699,3.54,3.4592,3.4023,3.3215,3.2018,3.1928,3.1719,3.1152,3.1122,3.1122,3.1122,3.1098,3.0455,2.9204,2.903,2.8684,2.8168,2.7939,2.7568,2.7163,2.7678,2.7142,2.5854,2.6989,2.7224,2.6876,2.7394,2.9277,3.1612,3.0532,3.0633,3.1386,3.1386,3.126,3.0909,2.9829,2.7996,2.6047,0.0,0.0,0.0,2.2844,0.0,0.0,0.0,0.0,0.0,0.0,2.2749,0.0,2.1094,2.137,2.1644,2.0388,2.0941,2.1719,2.1945,2.2799,2.3622,2.423,2.4506,2.5134,2.6625,2.7544,2.777,2.6927,2.757,2.7921,2.7494,2.7846,2.8147,2.8273,2.8273,2.8524,2.9038,2.9063,2.9302,2.9779,2.9804,2.9804,2.9804,2.9804,2.9804,2.9804,2.9804,2.9854,2.998,3.0959,3.1461,3.1612,3.2641,3.3111,3.3111,3.3111,3.3111,3.3144,3.3796,3.4324,3.4756,3.5408,3.5981,3.6405,3.1511,3.1511,3.172,3.2378,3.2796,3.3215,3.3873,3.3993,3.4352,3.531,3.6626,3.7315,3.6985,3.6956,3.6417,3.51,3.4713,3.4053,3.3066,3.3006,3.2856,3.2497,3.2527,3.2318,3.1989,3.1989,3.1514,3.0455,3.0102,2.9954,2.9926,2.9279,2.8685,2.8121,2.8623,2.8014,2.6716,2.7839,2.8186,2.7987,2.8355,2.9528,3.1009,3.1009,3.1512,3.224,3.224,3.1863,3.1185,2.9829,2.8624,0.0,2.6038,2.541,2.5084,0.0,2.418,2.3954,0.0,0.0,0.0,2.3276,0.0,0.0,0.0,2.1694,2.1744,2.1167,2.1292,2.1644,2.2196,2.2518,2.2869,2.3446,2.3803,2.418,2.4732,2.5762,2.6264,2.5711,2.6138,2.6364,2.6088,2.654,2.7092,2.7645,2.7946,2.8222,2.8499,2.8737,2.9013,2.9352,2.9654,2.9804,2.9804,2.9804,2.9804,2.9804,2.9804,2.9804,2.9829,3.0633,3.116,3.1436,3.229,3.2817,3.3111,3.3111,3.3111,3.3144,3.3696,3.4248,3.4731,3.5282,3.5881,3.6405,3.154,3.16,3.1899,3.2587,3.3245,3.3903,3.4593,3.4713,3.5429,3.7524,3.8841,3.929,3.8452,3.8033,3.7315,3.6121,3.5222,3.4592,3.4442,3.3963,3.3634,3.3514,3.3484,3.3245,3.2706,3.2706,3.2348,3.169,3.1152,3.112,3.1481,3.0462,2.9725,2.9258,2.9535,2.91,2.8192,2.9094,2.9462,2.9451,2.9881,3.0023,3.0105,3.1512,3.2416,3.2918,3.2918,3.2315,3.1311,2.974,2.9139,2.8712,2.6841,2.664,0.0,0.0,0.0,0.0,0.0,0.0,0.0,0.0,0.0,2.3797,0.0,0.0,0.0,2.2297,0.0,0.0,0.0,0.0,0.0,0.0,0.0,0.0,0.0,2.3822,0.0,2.4449,2.465,2.475,2.4682,2.5234,2.6013,2.7077,2.7544,2.7846,2.7946,2.8473,2.8787,2.8888,2.9503,2.9804,2.9804,2.9804,2.9804,2.9804,2.9804,2.9804,2.9804,3.0357,3.0909,3.1411,3.1964,3.2541,3.3111,3.3111,3.3111,3.3162,3.3571,3.4148,3.4731,3.5182,3.5805,3.6405,3.163,3.1959,3.2617,3.3275,3.3933,3.4592,3.528,3.54,3.6297,3.8835,3.9828,4.0666,4.1722,4.0247,3.9798,4.1362,3.7734,3.6088,3.7734,3.5669,3.4113,3.3514,3.3484,3.3455,3.3395,3.3395,3.3066,3.2378,3.2317,3.1989,3.1511,3.1361,3.0896,3.0147,3.0666,3.0485,2.9793,3.0868,3.0574,2.9592,3.0608,3.0816,3.0583,3.1235,3.1838,3.2315,3.2315,3.224,3.1938,0.0,3.0105,2.9553,0.0,2.7645,2.6751,2.757,0.0,0.0,0.0,0.0,0.0,0.0,2.6866,0.0,0.0,0.0,2.3998,2.2598,0.0,0.0,0.0,0.0,0.0,0.0,0.0,0.0,2.2468,2.292,2.3296,2.3296,2.4173,2.46,2.413,2.5008,2.5862,2.6549,2.665,2.6901,2.7379,2.7896,2.8423,2.8863,2.9503,2.9804,2.9804,2.9804,2.9804,2.9804,2.9804,2.9804,2.9804,3.0357,3.0909,3.1411,3.1964,3.2541,3.3111,3.3111,3.3111,3.3136,3.3187,3.3796,3.4726,3.4756,3.5479,3.6405,3.2736,3.2886,3.3275,3.3933,3.4324,3.4743,3.54,3.7434,3.917,3.9888,4.1564,4.303,4.3958,4.2312,4.1482,4.2321,3.9559,3.7793,3.7823,3.6088,3.4951,3.4681,3.4651,3.4472,3.4114,3.4084,3.3754,3.3095,3.3095,3.2946,3.2677,3.2677,3.2224,3.1426,3.2152,3.205,3.135,3.2281,3.2274,3.1604,3.1864,3.1724,3.1409,3.1402,3.1738,3.2265,3.2591,3.229,3.1612,0.0,3.0457,0.0,0.0,0.0,0.0,2.8411,0.0,0.0,0.0,0.0,0.0,0.0,0.0,0.0,2.5259,0.0,2.4675,0.0,0.0,0.0,0.0,0.0,0.0,0.0,2.317,0.0,0.0,0.0,2.3095,0.0,0.0,0.0,2.3979,2.4707,2.5385,2.5946,2.6298,2.66,2.6826,2.7318,2.7871,2.8423,2.9001,2.9453,2.9804,2.9804,2.9804,2.9804,2.9804,2.9804,2.9804,3.0357,3.0909,3.1411,3.1964,3.2541,3.3111,3.3111,3.3111,3.3111,3.3111,3.3545,3.4274,3.46,3.5203,3.5931,3.3993,3.3903,3.3903,3.4414,3.4653,3.4981,3.5669,3.8332,4.0457,4.0876,4.2611,4.4436,4.6202,4.4616,4.3938,4.5016,4.2432,4.0337,3.9349,3.7404,3.6058,3.5519,3.5519,3.528,3.4771,3.4771,3.4474,3.3754,3.3754,3.3664,3.3484,3.3484,3.3146,3.2584,3.3313,3.3458,3.3138,3.3873,3.409,3.3824,3.3239,3.2627,3.2045,3.1721,3.1964,3.2491,3.2742,3.2416,3.1738,3.106,3.0934,0.0,2.9715,2.9277,2.9176,0.0,0.0,0.0,2.8524,0.0,0.0,0.0,0.0,0.0,0.0,0.0,0.0,0.0,0.0,0.0,0.0,0.0,0.0,0.0,0.0,2.3296,0.0,2.3095,0.0,0.0,0.0,0.0,0.0,2.4356,2.4883,2.5536,2.6021,2.6323,2.6474,2.7027,2.7544,2.8097,2.8612,2.9202,2.9779,2.9804,2.9804,2.9804,2.9804,2.9804,2.9804,3.0357,3.0909,3.1411,3.1964,3.2541,3.3111,3.3111,3.3111,3.3111,3.3111,3.3319,3.3746,3.4299,3.4906,3.5558,3.531,3.4891,3.4474,3.4503,3.504,3.5699,3.6357,3.7075,3.8691,4.1901,4.241,4.4178,4.87,4.7369,4.7728,5.1558,4.716,4.4137,4.4107,4.0457,3.7464,3.5579,3.5519,3.5489,3.5459,3.5459,3.513,3.4474,3.4474,3.4144,3.3484,3.3484,3.3484,3.3483,3.3835,3.4518,3.5422,3.5764,3.5905,3.5827,3.4743,3.3487,3.2206,0.0,3.2541,3.2993,3.2441,0.0,0.0,3.1738,3.1712,0.0,0.0,0.0,0.0,0.0,0.0,0.0,0.0,0.0,0.0,2.8988,0.0,0.0,0.0,0.0,2.6892,0.0,0.0,0.0,0.0,0.0,2.46,2.4079,2.3979,0.0,0.0,0.0,0.0,0.0,0.0,0.0,0.0,2.4029,2.4456,0.0,2.5611,2.5862,2.6474,2.7027,2.7544,2.8097,2.8612,2.9202,2.9779,2.9804,2.9804,2.9804,2.9804,2.9804,2.9804,3.0357,3.0909,3.1411,3.1964,3.2541,3.3111,3.3111,3.3111,3.3111,3.3111,3.3136,3.3212,3.3721,3.458,3.5508,3.5459,3.531,3.516,3.516,3.534,3.5878,3.6926,3.8781,4.1384,4.5155,4.6424,4.888,5.3892,5.3084,5.2725,5.4072,5.093,4.8147,4.6411,4.297,4.0583,3.9439,3.8542,3.7674,3.6776,3.6776,3.6237,3.516,3.516,3.504,3.4831,3.4831,3.4831,3.4829,3.4925,3.5166,3.5547,3.6531,3.6926,3.6915,3.6724,3.6476,3.5907,0.0,3.234,3.2541,3.2717,3.2667,0.0,3.2064,3.2064,3.2089,3.1361,3.0758,3.0331,3.0331,2.993,0.0,0.0,0.0,2.9654,2.9038,0.0,0.0,0.0,0.0,0.0,0.0,0.0,0.0,0.0,0.0,2.5711,2.5159,2.4757,2.4481,0.0,0.0,0.0,0.0,0.0,0.0,0.0,0.0,0.0,0.0,2.541,0.0,2.6474,2.6675,2.7203,2.8072,2.8298,2.8825,2.9779,2.9804,2.9804,2.9804,2.9804,2.9804,2.9829,3.0708,3.1235,3.1436,3.239,3.2893,3.3111,3.3111,3.3111,3.3111,3.3111,3.3111,3.3144,3.3696,3.4374,3.5056,3.5818,3.5848,3.5789,3.5549,3.5878,3.6537,3.7584,4.0606,4.3958,4.7219,4.9404,5.2396,5.6974,5.6735,5.6406,5.6885,5.494,5.2067,4.8267,4.6232,4.4018,4.1542,4.0786,3.9738,0.0,3.7883,3.7015,3.5519,3.5729,3.5729,3.5519,3.5519,3.5519,3.5519,3.5759,3.5848,3.5938,3.7225,3.7883,3.8137,3.8393,3.8093,0.0,0.0,3.3882,3.3768,0.0,3.3157,3.2558,3.2953,3.2827,3.2416,3.1863,3.1461,3.1135,3.0959,3.0633,3.0357,3.0357,3.0357,0.0,2.9905,2.9679,0.0,2.8825,0.0,2.9026,0.0,0.0,0.0,0.0,0.0,0.0,2.6264,2.5561,2.5034,0.0,2.48,0.0,0.0,0.0,0.0,0.0,0.0,0.0,2.4725,2.5134,2.5661,0.0,2.6499,2.7002,2.8072,2.8097,2.8649,2.9779,2.9804,2.9804,2.9804,2.9804,2.9804,2.9829,3.0909,3.1386,3.1461,3.2634,3.3111,3.3111,3.3111,3.3111,3.3111,3.3111,3.3194,3.342,3.3771,3.4374,3.5152,3.6357,3.6537,3.6387,3.5759,3.6656,3.7704,3.8422,4.2402,4.6112,4.8237,5.1379,5.467,5.8022,5.8381,5.886,6.0086,5.9009,5.5837,5.0138,5.0152,4.7878,0.0,4.2381,4.1654,3.9582,0.0,0.0,0.0,3.6178,3.6148,3.5519,3.5519,3.5519,3.5519,3.6148,3.6447,3.6507,3.7793,3.8751,3.942,3.9702,3.8467,3.6508,3.7023,3.7057,3.6577,3.5198,3.4037,3.3326,3.4262,3.3953,3.3036,3.25,3.2282,3.2114,3.1669,3.1452,3.1386,3.1386,3.1386,3.1386,3.1361,3.0984,0.0,0.0,0.0,2.9528,0.0,0.0,0.0,0.0,0.0,0.0,2.7329,2.6364,2.546,0.0,0.0,2.485,0.0,0.0,0.0,0.0,2.3521,2.3647,2.475,2.4825,2.5335,0.0,2.6499,2.7002,2.8072,2.8097,2.8649,2.9779,2.9804,2.9804,2.9804,2.9804,2.9804,2.9829,3.0909,3.1386,3.1461,3.2634,3.3111,3.3111,3.3111,3.3111,3.3111,3.3119,3.347,3.3972,3.3972,3.4605,3.5583,3.6447,3.7255,3.7853,3.7674,3.7913,3.8691,4.0367,4.3718,4.7459,5.1409,5.479,5.8112,6.1433,6.1822,6.1732,6.1583,6.0835,5.9069,5.6047,5.4192,0.0,4.8835,4.698,4.4646,4.1722,4.0965,3.917,3.6237,3.6417,3.6148,3.5519,3.5519,3.5519,3.5519,3.5669,3.5759,3.5848,3.7135,3.8332,3.9463,4.0018,4.017,3.9865,0.0,3.8189,3.8593,3.5735,3.4511,3.4178,3.3683,3.3326,3.3215,3.3856,3.3187,3.2331,3.3016,3.2316,3.1386,3.1386,3.1386,3.1286,3.0909,3.0708,3.0457,0.0,0.0,0.0,0.0,0.0,0.0,0.0,0.0,0.0,0.0,0.0,0.0,0.0,0.0,0.0,2.546,0.0,0.0,0.0,2.4449,2.465,2.5335,2.5385,2.5711,2.6449,0.0,2.7002,2.8072,2.8097,2.8649,2.9779,2.9804,2.9804,2.9804,2.9804,2.9804,2.9829,3.0909,3.1386,3.1461,3.2634,3.3111,3.3111,3.3111,3.3111,3.3162,3.352,3.4274,3.5082,3.5082,3.5257,3.5583,3.7644,3.926,4.0546,4.0546,4.1743,4.291,4.3449,4.5603,4.8626,5.2665,5.6077,5.883,6.0715,6.2211,6.2929,6.257,6.2181,6.0745,5.7872,0.0,0.0,5.1379,4.9793,4.7339,4.3758,4.247,0.0,3.6896,3.6896,3.6417,3.5519,3.5519,3.5519,3.5519,3.5519,3.5519,3.5609,3.7165,3.8781,4.0307,4.0696,4.0876,0.0,3.9437,3.9249,3.9323,3.6923,3.5762,3.5278,3.465,3.4444,3.4485,3.465,3.4027,3.3504,3.4527,3.3573,3.2239,3.2711,3.2326,3.1738,3.1712,3.116,3.0702,3.1033,3.0671,3.0273,0.0,3.0316,3.0055,0.0,0.0,0.0,0.0,0.0,0.0,0.0,0.0,0.0,0.0,2.6113,0.0,0.0,2.5109,2.5034,2.5561,2.5586,2.5837,0.0,0.0,2.7218,2.8072,2.8574,2.9151,2.9779,3.003,3.003,2.9804,2.9804,2.9804,2.9829,3.0658,3.1185,3.1436,3.2315,3.2842,3.3111,3.3111,3.3111,3.3169,3.3947,3.4731,3.5533,3.5805,3.5906,3.5956,3.9409,4.1615,4.326,4.32,4.6022,4.8057,4.7339,4.8476,5.0511,5.3443,5.6705,5.877,5.877,6.1343,6.3079,6.3079,6.3079,6.1523,5.7872,5.9099,5.7543,5.2097,5.1528,4.9583,4.5783,4.3658,4.1025,0.0,3.7524,3.6806,3.5639,3.5549,3.5519,3.5519,3.5519,3.5519,3.5639,3.7464,3.932,4.0995,4.1175,4.0905,4.0397,4.0397,3.9978,3.9265,3.8448,3.7414,3.6408,3.6251,3.6212,3.6053,3.5156,3.4897,3.5061,3.5934,3.4829,3.3556,3.4635,3.3649,3.2458,3.298,3.2019,3.1298,3.2346,3.1319,3.033,3.1193,3.0533,2.9818,0.0,0.0,0.0,0.0,0.0,0.0,0.0,0.0,0.0,0.0,0.0,0.0,0.0,2.5636,2.5234,2.5661,2.5711,0.0,0.0,0.0,2.7544,2.8097,2.9126,2.9779,3.0005,3.0331,3.0331,3.0005,2.9854,2.9804,2.9804,3.0357,3.0909,3.1411,3.1964,3.2541,3.3111,3.3111,3.3169,3.3395,3.4424,3.5132,3.5658,3.6182,3.6405,3.6405,4.0786,4.2282,4.311,4.2611,4.5723,4.9105,5.1588,5.4012,5.5957,5.7094,6.0146,6.2211,6.2211,6.272,6.3079,6.3079,6.3079,0.0,0.0,0.0,0.0,5.5418,5.3204,5.069,4.7818,4.5274,4.2611,3.9858,3.8212,3.7045,3.6297,3.5759,3.5519,3.5519,3.5519,3.5519,3.5609,3.6985,0.0,3.902,4.0127,4.0487,4.0397,4.0397,3.9978,3.9463,3.9824,3.8911,3.7396,3.6487,3.6212,3.6172,3.6013,3.5934,3.5974,3.6172,3.5359,3.4609,3.5654,3.4489,3.2971,3.3008,3.3118,3.2922,3.1736,3.1645,3.1887,3.2273,3.0996,3.0049,3.0809,0.0,0.0,0.0,0.0,0.0,0.0,0.0,0.0,0.0,0.0,2.7178,0.0,0.0,0.0,2.6348,2.6348,0.0,0.0,0.0,2.7544,0.0,2.8725,0.0,0.0,0.0,3.0331,3.111,3.0206,2.9804,2.9804,3.0357,3.0909,3.1411,3.1964,3.2541,3.3111,3.3111,3.3621,3.45,3.5107,3.573,3.6279,3.638,3.6405,3.6405,4.321,4.4197,4.5173,4.6262,4.9464,5.2755,5.5359,5.8291,5.9697,5.8321,5.9518,6.0505,6.0505,6.2061,6.3079,6.3079,6.278,6.2151,6.1194,6.0176,5.859,5.6286,5.4281,5.1858,4.8865,4.5843,4.318,4.0905,3.8571,3.7105,3.6477,3.5818,3.5519,3.5519,3.5848,3.6387,3.7075,0.0,0.0,4.0524,4.0786,4.1115,4.1422,4.1025,4.0696,4.0487,4.0786,4.0367,3.9446,3.8043,3.7691,3.7776,3.7214,3.7021,3.7137,3.7701,3.6749,3.5722,3.6749,3.5277,3.3606,3.407,3.3512,3.2761,3.2438,3.237,3.2436,3.2541,3.1865,3.123,3.123,3.0188,0.0,0.0,0.0,0.0,0.0,0.0,2.8487,0.0,0.0,0.0,0.0,0.0,0.0,0.0,0.0,0.0,0.0,0.0,2.7821,0.0,0.0,0.0,3.0557,0.0,3.0331,3.0557,3.003,2.9804,2.9804,3.0357,3.0909,3.1411,3.1964,3.2541,3.3093,3.3395,3.3972,3.4731,3.5282,3.5881,3.6405,3.6405,3.6405,3.6405,4.5933,4.6681,4.7894,5.0375,5.3623,5.6346,5.7902,6.0954,6.2121,5.9518,5.9189,5.9189,5.9189,6.1523,6.3079,6.3079,6.248,6.1822,6.1164,6.0326,5.883,5.6466,5.497,5.2785,4.9763,4.6441,4.3778,4.1803,3.914,3.7524,3.6866,3.6207,3.5908,3.5938,0.0,0.0,0.0,0.0,4.0487,4.2141,4.1782,4.1931,4.2351,4.1811,4.1542,4.1422,4.1572,4.1542,4.1181,4.0002,3.9673,3.9616,3.8405,3.8158,3.846,3.89,3.7852,3.676,3.7852,3.6269,3.4552,3.546,3.4344,3.3138,3.3633,3.3406,3.3114,3.3213,3.308,3.2593,3.1683,3.0733,0.0,0.0,0.0,0.0,0.0,0.0,0.0,0.0,0.0,0.0,2.7444,0.0,0.0,0.0,0.0,0.0,2.665,0.0,0.0,0.0,0.0,3.0331,3.0131,0.0,3.0331,3.0131,2.9905,2.9854,2.998,3.0407,3.0959,3.1587,3.2014,3.2616,3.3294,3.3847,3.4399,3.4906,3.5504,3.5981,3.6405,3.6405,3.6405,3.6405,4.8461,4.9434,5.0465,5.2546,5.5658,5.7902,5.8082,6.0954,6.2959,6.266,6.26,6.26,6.26,6.2899,6.3079,6.3079,6.248,6.1822,6.1164,5.9907,5.853,5.7064,5.5209,5.3204,5.1079,4.7818,4.5113,0.0,4.0516,3.8871,3.8212,3.7554,3.7225,0.0,0.0,0.0,0.0,3.914,4.0217,4.1542,4.2081,4.2351,4.2381,4.2321,4.1931,4.1482,4.2081,4.1931,4.1474,4.1906,4.1705,4.0934,3.9228,3.9358,3.9862,3.8393,3.7805,3.7881,3.8943,3.7643,3.6108,3.671,3.6593,3.609,3.5081,3.4801,3.4871,3.5152,3.4509,3.3602,3.2629,3.1719,3.1082,0.0,0.0,0.0,0.0,0.0,2.9704,2.9704,0.0,0.0,2.8021,2.7102,0.0,0.0,2.6499,0.0,0.0,0.0,0.0,2.8787,2.9528,3.0306,3.1235,3.0331,3.0331,3.1235,3.0256,3.0055,3.0532,3.0583,3.116,3.2139,3.219,3.2817,3.3872,3.4424,3.4931,3.5483,3.6081,3.6355,3.6405,3.6405,3.6405,3.6405,5.2546,5.2725,5.3503,5.6256,5.7513,0.0,0.0,6.2211,6.3079,6.3079,6.3079,6.3079,6.3079,6.3079,6.3079,6.3079,6.2121,6.1403,6.1134,5.9847,5.8501,5.7154,5.5987,5.4251,5.1858,4.8985,4.6531,0.0,0.0,0.0,3.9589,3.8512,0.0,0.0,0.0,3.8751,3.911,4.0576,4.1542,4.2081,4.2671,4.294,4.294,4.294,4.2791,4.2581,4.2851,4.2761,4.2581,4.2851,4.2252,4.1227,4.0127,4.0032,4.0173,3.9084,3.876,3.887,3.9265,3.8294,3.7263,3.7725,3.7303,3.6482,3.5286,3.5443,3.5638,3.479,3.4279,3.3876,3.3533,3.2664,3.1865,3.1278,0.0,0.0,0.0,0.0,0.0,2.9856,0.0,2.8562,0.0,2.7595,0.0,0.0,0.0,0.0,0.0,0.0,0.0,2.8863,0.0,3.0005,3.0432,3.0005,3.0181,3.0909,3.0482,3.0557,3.1085,3.1411,3.1989,3.2742,3.3093,3.347,3.3972,3.4806,3.5307,3.5558,3.6132,3.6405,3.6405,3.6405,3.6405,3.6405,5.6107,5.5987,5.6615,0.0,5.9877,6.0386,6.272,6.3079,6.3079,6.3079,6.3079,6.3079,6.3079,6.3079,6.2989,6.281,6.1762,6.1014,6.0835,5.9548,5.8291,5.7154,5.6316,0.0,5.2247,5.0002,4.7788,4.5603,4.3329,0.0,0.0,0.0,0.0,0.0,3.9559,4.0098,4.0367,4.1811,4.25,4.2671,4.315,4.329,4.329,4.329,4.329,4.329,4.329,4.329,4.329,4.329,4.2692,4.1833,4.1175,4.0846,4.0546,3.9888,3.9559,3.9373,3.9373,3.887,3.8355,3.8603,3.7984,3.7034,3.6201,3.6394,3.6369,3.5019,3.4738,3.4646,3.4471,3.3671,3.277,3.2128,0.0,0.0,0.0,3.0733,0.0,3.0254,2.9467,2.8888,2.8888,2.8072,0.0,0.0,0.0,0.0,0.0,0.0,0.0,0.0,0.0,0.0,2.9804,2.9804,3.008,3.0608,3.0608,3.0959,3.1662,3.2215,3.2692,3.3119,3.3671,3.3997,3.4223,3.5107,3.5583,3.583,3.6207,3.6405,3.6405,3.6405,3.6405,3.643,5.853,5.9039,5.9877,6.257,6.3019,6.3019,6.3079,6.3079,6.3079,6.3079,6.3079,6.3079,6.3079,6.3079,6.281,6.2181,6.1493,6.0835,6.0146,5.886,5.7812,0.0,0.0,5.4251,5.2247,5.0853,4.888,4.6279,0.0,0.0,4.2351,0.0,4.1354,4.1324,4.1392,4.1752,4.2381,4.2381,4.2731,4.329,4.329,4.329,4.329,4.329,4.329,4.329,4.329,4.329,4.329,4.329,4.329,4.314,4.259,4.1931,4.1272,4.0576,3.9918,3.9373,3.9373,3.9373,3.9373,3.9373,3.8901,3.8392,3.8362,3.7853,3.7225,3.6596,3.6477,3.6267,3.5576,3.4643,3.3979,3.3979,0.0,0.0,0.0,0.0,0.0,3.1082,2.983,2.8888,2.8888,2.8423,0.0,0.0,0.0,0.0,0.0,0.0,0.0,2.9754,2.9804,0.0,2.9804,2.9804,3.008,3.0608,3.0608,3.116,3.2215,3.2792,3.3111,3.3119,3.3671,3.4198,3.4705,3.5282,3.5855,3.6405,3.6405,3.6405,3.6405,3.6405,3.6405,3.648,6.1553,6.1822,6.2091,6.2929,6.3079,6.3079,6.3079,6.3079,6.3079,6.3079,6.3079,6.3079,6.3079,6.3079,6.2989,0.0,6.1762,6.1014,0.0,5.9548,5.8501,5.7812,5.6944,5.5777,5.4281,5.2486,5.072,4.894,0.0,0.0,0.0,4.3688,4.315,4.2731,4.318,4.3509,4.3718,4.4167,4.4496,4.4676,4.4676,4.4676,4.4616,4.4167,4.3977,4.3917,4.3439,4.329,4.329,4.329,4.329,4.326,4.309,4.2252,4.1302,4.0606,3.9948,3.9619,4.0516,4.0098,3.9493,3.9978,3.9589,3.896,3.8482,3.7883,3.7345,3.7165,3.6776,3.6417,3.6207,3.5558,3.4806,3.4109,3.4075,0.0,3.2735,0.0,3.1573,3.1241,3.0227,2.9528,2.9528,2.9001,0.0,0.0,0.0,0.0,0.0,0.0,0.0,0.0,2.9804,0.0,2.9804,3.0156,3.0608,3.116,3.1537,3.2089,3.2817,3.3395,3.3646,3.3696,3.4625,3.5082,3.5282,3.5881,3.6207,3.6405,3.6405,3.6405,3.6405,3.6405,3.6656,3.6983,6.2989,6.3079,6.3079,6.3079,6.3079,6.3079,6.3079,6.3079,6.3079,6.3079,6.3079,6.3079,6.3079,6.3079,0.0,6.272,6.1732,6.1014,6.0745,5.9488,5.8441,5.7752,5.7094,5.6137,5.485,5.3354,0.0,5.0554,4.8805,4.716,4.5663,4.5005,4.4466,4.4077,4.4496,4.4676,4.4706,4.5125,4.5304,4.5304,4.5304,4.5304,4.5244,4.4825,4.4526,4.4257,4.3798,4.3499,4.329,4.329,4.329,4.326,4.303,4.2402,4.1692,4.1265,4.0487,3.9978,4.0786,4.0217,3.9529,3.9918,3.9738,3.932,3.8871,3.8452,3.8093,3.7823,3.7285,3.6776,3.6537,3.5938,3.5294,3.4643,3.4773,3.4643,3.3802,0.0,3.2379,0.0,0.0,0.0,0.0,2.9478,2.9402,0.0,0.0,0.0,0.0,0.0,0.0,2.9779,2.9804,2.9905,3.0105,3.0432,3.0984,3.1712,3.2466,3.3043,3.3395,3.3947,3.4198,3.4248,3.5107,3.5508,3.5533,3.6132,3.6405,3.6405,3.6405,3.6405,3.643,3.6631,3.6885,3.7236,6.3079,6.3079,6.3079,6.3079,6.3079,6.3079,6.3079,6.3079,6.3079,6.3079,6.3079,6.3079,6.3079,6.3079,6.281,6.2151,0.0,0.0,6.0206,5.8919,5.7872,5.7184,5.6555,5.5658,5.4371,5.3623,5.2606,5.1289,4.8745,4.716,4.6501,4.5813,4.5484,4.5424,4.5424,4.5424,4.5424,4.5424,4.5424,4.5424,4.5424,4.5424,4.5424,4.5394,4.4975,4.4436,4.4347,4.3888,4.3349,4.3319,4.329,4.32,4.2611,4.247,4.244,4.241,4.1474,4.0487,4.0516,4.0038,3.9463,3.9463,3.9403,3.9373,3.9373,3.9373,3.923,3.8601,3.7943,3.7285,3.6656,3.6028,3.5549,3.5519,3.471,3.4442,3.5359,3.3871,3.2664,0.0,0.0,0.0,2.9895,2.9804,2.9804,0.0,0.0,0.0,0.0,0.0,2.9829,2.9804,2.9829,3.0105,3.0608,3.0683,3.126,3.234,3.3395,3.3922,3.3972,3.4525,3.4776,3.4781,3.5307,3.5558,3.5608,3.6157,3.6405,3.6405,3.6405,3.643,3.6531,3.6985,3.7236,3.7462,0.0,0.0,6.3079,6.3079,6.3079,6.3079,6.3079,6.3079,6.3079,6.3079,6.3079,6.3079,6.3079,6.3079,6.281,6.2151,6.1493,6.1044,6.0894,5.9608,5.856,5.7902,5.7244,5.6496,5.5718,5.4551,5.3324,5.1977,5.0331,4.9224,4.8566,4.7878,4.7309,4.683,4.683,4.683,4.683,4.683,4.683,4.683,4.683,4.683,4.677,4.6262,4.595,4.5723,4.4676,4.4227,4.4018,4.3469,4.329,4.326,4.315,4.312,4.3,4.256,4.1811,4.1265,4.1811,4.1055,4.0157,4.0157,3.9798,3.9373,3.9373,3.9373,3.9343,3.92,3.8631,3.7973,3.7315,3.6686,3.6088,3.5579,3.5294,3.5231,3.5457,3.4442,3.3394,0.0,3.1792,3.0846,2.9895,2.9804,2.9804,0.0,0.0,0.0,2.9804,3.0206,3.0231,2.9804,3.0206,3.0482,3.0608,3.1411,3.239,3.3495,3.3771,3.4123,3.455,3.5056,3.5307,3.5332,3.5931,3.6182,3.6182,3.6355,3.6405,3.6405,3.6405,3.6656,3.7059,3.7136,3.7739,3.8567,6.3079,6.3079,6.3079,6.3079,6.3079,6.3079,6.3079,6.3079,6.3079,6.3079,6.3079,6.3079,6.3079,6.3079,6.2929,6.257,6.1672,6.0984,6.0655,5.9668,5.88,5.8141,5.7453,5.6795,5.6248,5.488,5.3683,5.2665,5.1319,5.0511,5.0122,4.8865,4.8087,4.7728,4.7429,4.7309,4.7309,4.7309,4.7309,4.7309,4.7309,4.7309,4.7279,4.692,4.6591,4.619,4.5484,4.4825,4.4257,4.3898,4.3529,4.329,4.329,4.329,4.323,4.291,4.2342,4.1961,4.2291,4.1662,4.0846,4.0846,4.0576,4.0247,3.9948,3.9858,3.9798,3.9433,3.8871,3.8182,3.7524,3.6896,3.6267,3.5609,3.5519,3.5519,3.5519,3.5034,3.4341,3.3359,3.2415,3.1462,3.0533,3.0024,2.9804,2.9804,2.9804,0.0,3.0156,3.0457,3.0482,3.0181,3.0683,3.1085,3.1336,3.2441,3.3294,3.3897,3.4399,3.4756,3.5082,3.5655,3.5906,3.5931,3.6279,3.6405,3.6405,3.6405,3.6556,3.6782,3.6782,3.7086,3.7588,3.7864,3.8391,3.8969,6.3079,6.3079,6.3079,6.3079,6.3079,6.3079,6.3079,6.3079,6.3079,6.3079,6.3079,6.3079,6.3079,6.3079,6.3049,6.2929,6.1912,6.0984,6.0266,5.9518,5.877,5.7992,5.7393,5.6765,5.6047,5.473,5.3773,5.3174,5.1858,5.1169,5.0973,4.9374,4.8536,4.8416,4.7848,4.7549,4.7459,4.7459,4.7399,4.7309,4.7309,4.7309,4.7309,4.7309,4.695,4.6471,4.6309,4.5603,4.4616,4.4496,4.4077,4.3589,4.3589,4.3529,4.3469,4.3559,4.309,4.253,4.241,4.1931,4.1422,4.1422,4.1422,4.1235,4.0666,4.0546,4.0367,3.9709,3.911,3.8452,3.7704,3.7045,3.6417,3.5759,3.5579,3.5519,3.5519,0.0,3.5162,3.4259,3.3297,3.2391,3.1543,3.0599,3.003,3.003,3.003,3.0231,3.0708,3.0809,3.0859,3.0859,3.1286,3.1813,3.2466,3.3495,3.4073,3.4148,3.5056,3.5533,3.5633,3.6157,3.6405,3.6405,3.6405,3.6405,3.6405,3.6405,3.6732,3.7186,3.7186,3.7563,3.8191,3.8693,3.8969,3.912,6.3079,6.3079,6.3079,6.3079,6.3079,6.3079,6.3079,6.3079,6.3079,6.3079,6.3079,6.3079,6.3079,6.3079,6.2839,6.2301,6.2061,6.1672,6.1014,5.9787,5.856,5.7304,5.7154,5.6555,5.5359,5.4042,5.3294,5.3174,5.1858,5.0883,5.0345,5.0046,4.9643,4.9149,4.906,4.87,4.8147,4.8147,4.7818,4.7309,4.7309,4.7309,4.7309,4.7309,4.7249,4.707,4.6531,4.616,4.5891,4.5334,4.5065,4.4975,4.4975,4.4616,4.4257,4.4825,4.4137,4.306,4.256,4.1931,4.1422,4.1422,4.1422,4.1354,4.1302,4.1235,4.1025,4.0397,4.0157,3.9709,3.8452,3.7704,3.7075,3.6417,3.5878,3.5519,3.5519,0.0,3.534,3.49,3.3908,3.3118,3.2773,3.1752,3.1135,3.1135,3.1135,3.1185,3.126,3.1712,3.1964,3.1964,3.2039,3.2591,3.3621,3.4274,3.4781,3.5232,3.5408,3.578,3.6279,3.638,3.6405,3.6405,3.6405,3.6405,3.6405,3.6405,3.6732,3.7186,3.7186,3.7814,3.8743,3.8894,3.917,3.9572,6.3079,6.3079,6.3079,6.3079,6.3079,6.3079,6.3079,6.3079,6.3079,6.3079,6.3079,6.3079,6.3079,6.3079,6.2959,6.266,6.2301,6.1822,6.1164,6.0176,5.9039,5.7693,5.7304,5.6316,5.47,5.4042,5.3743,5.3743,5.2396,5.1768,5.1798,5.0704,5.0016,4.9763,4.9434,4.9149,4.882,4.8446,4.8117,4.7818,4.7459,4.7309,4.7309,4.7309,4.7309,4.7279,4.695,4.6621,4.6219,4.5963,4.5603,4.5304,4.5304,4.5095,4.4915,4.5214,4.4616,4.3678,4.306,4.2671,4.2432,4.2432,4.2432,4.2342,4.2021,4.1961,4.1752,4.1055,4.0935,4.0516,3.92,3.8691,3.8153,3.7135,3.6447,0.0,3.6028,3.6028,3.5985,3.5849,3.5209,3.4519,3.3821,3.2856,3.2137,3.1854,3.1838,3.1964,3.229,3.2817,3.3119,3.3119,3.3119,3.352,3.4324,3.4831,3.5257,3.5508,3.5855,3.6107,3.6405,3.6405,3.6405,3.6405,3.6405,3.6405,3.643,3.6732,3.7136,3.7663,3.7965,3.8592,3.932,3.932,3.9471,3.9697,6.3079,6.3079,6.3079,6.3079,6.3079,6.3079,6.3079,6.3079,6.3079,6.3079,6.3079,6.3079,6.3079,6.3079,6.3079,6.3079,6.26,6.1972,6.1164,6.0625,5.9668,5.8201,5.7334,5.6196,5.47,5.4371,5.4221,5.4221,5.2995,5.2695,5.3144,5.1468,5.0644,5.0614,5.0002,4.9599,4.9269,4.876,4.8327,4.8027,4.7519,4.7309,4.7309,4.7309,4.7309,4.7309,4.7309,4.698,4.6518,4.6518,4.6202,4.5753,4.5753,4.5663,4.5574,4.5723,4.5304,4.4646,4.3917,4.3648,4.3559,4.3708,4.3529,4.32,4.288,4.274,4.244,4.1782,4.1662,4.1265,4.0098,3.9619,3.908,3.8033,0.0,3.6716,3.6716,3.6836,3.6985,3.7135,3.684,3.6274,3.536,3.4403,3.3532,3.2852,3.2792,3.2993,3.3445,3.3847,3.4148,3.4274,3.4274,3.4474,3.4856,3.5408,3.5683,3.5683,3.6157,3.6405,3.6405,3.6531,3.6531,3.643,3.6681,3.6732,3.6631,3.7136,3.7713,3.8241,3.8693,3.922,3.9697,3.9697,3.9697,3.9697,6.3079,6.3079,6.3079,6.3079,6.3079,6.3079,6.3079,6.3079,6.3079,6.3079,6.3079,6.3079,6.3079,6.3079,6.3079,6.3079,6.3019,6.248,6.1194,6.1074,6.0176,5.8201,5.6915,5.6218,5.6068,5.485,5.4221,5.4221,5.3473,5.3144,5.3174,5.2396,5.2067,5.2037,5.1379,5.0391,4.9299,4.9269,4.8506,4.7369,4.7339,4.7309,4.7309,4.7309,4.7309,4.7309,4.7309,4.7279,4.7249,4.7249,4.7189,4.716,4.716,4.6741,4.6381,4.698,4.6681,4.6022,4.5334,4.4706,4.4377,4.5005,4.4227,4.3439,4.4047,4.3688,4.306,4.247,4.2321,4.2111,4.1422,4.0247,3.9379,3.9254,0.0,0.0,3.7345,3.7853,3.8482,3.914,3.8823,3.8403,3.7882,3.6853,3.5765,3.4614,3.455,3.455,3.46,3.465,3.4856,3.5357,3.5382,3.5408,3.5433,3.6031,3.6355,3.6355,3.638,3.6405,3.643,3.6885,3.6883,3.6455,3.7437,3.7588,3.7161,3.7713,3.8291,3.8869,3.8894,3.922,3.9697,3.9697,3.9697,3.9697,6.3079,6.3079,6.3079,6.3079,6.3079,6.3079,6.3079,6.3079,6.3079,6.3079,6.3079,6.3079,6.3079,6.3079,6.3079,6.3079,6.3079,6.251,6.1194,6.1104,6.0206,5.8201,5.7244,5.6376,5.5598,5.5059,5.461,5.4221,5.3533,5.3384,5.3803,5.3114,5.2815,5.2785,5.2127,5.1558,5.102,5.0212,4.9583,4.9105,4.8686,4.8267,4.7908,4.7908,4.7668,4.7309,4.7309,4.7309,4.7309,4.7309,4.7309,4.7309,4.7309,4.713,4.698,4.7249,4.713,4.686,4.6621,4.5753,4.4975,4.5244,4.4915,4.4616,4.4855,4.4407,4.3988,4.4137,4.3539,4.288,4.2641,4.1863,4.1115,4.0696,0.0,3.926,3.926,3.9469,3.9738,4.0008,4.024,4.0071,3.9247,3.8145,3.7171,3.6389,3.5613,3.5182,3.5182,3.5182,3.5433,3.6031,3.6056,3.6056,3.6056,3.6304,3.6581,3.6933,3.6933,3.7061,3.7387,3.7588,3.7588,3.7412,3.7814,3.7889,3.7739,3.8316,3.8668,3.8944,3.9245,3.9521,3.9697,3.9697,3.9697,3.9697,6.3079,6.3079,6.3079,6.3079,6.3079,6.3079,6.3079,6.3079,6.3079,6.3079,6.3079,6.3079,6.3079,6.3079,6.3079,6.3079,6.3079,6.251,6.1194,6.0715,5.9877,5.8501,5.7782,5.6915,5.5807,5.5598,5.5179,5.4521,5.4042,5.4042,5.4491,5.3832,5.3384,5.3144,5.2486,5.1977,5.1528,5.0584,5.0076,4.9883,4.9464,4.903,4.8596,4.8596,4.8327,4.7908,4.7698,4.7608,4.7578,4.7369,4.7309,4.7309,4.7309,4.7309,4.7309,4.7309,4.7309,4.7309,4.7309,4.6621,4.5933,4.5933,4.5603,4.5364,4.5574,4.5095,4.4736,4.5214,4.4586,4.3958,4.3958,4.324,4.2581,4.2342,4.1414,4.0786,4.0995,4.1025,4.1025,4.1025,4.1594,4.1449,3.9967,3.9145,3.8211,3.7097,3.6218,3.5805,3.5805,3.5805,3.6056,3.6656,3.6656,3.6757,3.6885,3.6757,3.6933,3.7437,3.7437,3.7638,3.8015,3.8191,3.8191,3.8015,3.8391,3.8442,3.8316,3.8894,3.912,3.917,3.9546,3.9697,3.9697,3.9697,3.9697,3.9697,6.3079,6.3079,6.3079,6.3079,6.3079,6.3079,6.3079,6.3079,6.3079,6.3079,6.3079,6.3079,6.3079,6.3079,6.3079,6.3079,6.3079,6.251,6.1194,5.9847,5.9099,5.9099,5.8471,5.7812,5.7124,5.6496,5.5867,5.5209,5.5209,5.5209,5.5179,5.4521,5.3862,5.3174,5.2516,5.1498,5.0226,5.0226,4.9883,4.9329,4.9329,4.9329,4.9329,4.9329,4.9299,4.9209,4.8536,4.8297,4.8207,4.7549,4.7309,4.7309,4.7309,4.7309,4.7309,4.7309,4.7309,4.7309,4.7309,4.7309,4.7309,4.7309,4.6292,4.5484,4.6172,4.5813,4.5304,4.5304,4.5304,4.5304,4.5304,4.4227,4.3529,4.4227,4.2671,4.1662,4.2321,4.241,4.241,4.241,4.294,4.2426,4.0173,3.9913,3.8917,3.6593,3.6405,3.6405,3.6405,3.6405,3.6681,3.7161,3.7186,3.7462,3.8015,3.7462,3.7462,3.8015,3.8015,3.8015,3.804,3.8617,3.8567,3.809,3.9195,3.9371,3.8969,3.9471,3.9697,3.9697,3.9697,3.9697,3.9697,3.9697,3.9697,3.9697,6.3079,6.3079,6.3079,6.3079,6.3079,6.3079,6.3079,6.3079,6.3079,6.3079,6.3079,6.3079,6.3079,6.3079,6.3079,6.3079,6.3079,6.251,6.1194,6.0296,5.9578,5.9129,5.8919,5.8501,5.7842,5.7633,5.7004,5.5867,5.6316,5.6077,5.5209,5.5478,5.5239,5.4551,5.3892,5.3384,5.2995,5.2516,5.2187,5.2025,5.1498,5.105,5.0571,5.0122,4.9673,4.9269,4.909,4.903,4.891,4.8207,4.7997,4.7908,4.7459,4.7309,4.7309,4.7309,4.7309,4.7309,4.7309,4.7309,4.7309,4.7309,4.701,4.677,4.698,4.6501,4.6142,4.6621,4.5963,4.5454,4.5933,4.5304,4.4766,4.4975,4.4496,4.4197,4.4407,4.4407,4.4407,4.4407,4.4197,4.3704,4.306,4.1085,3.9579,3.8917,3.765,3.6832,3.643,3.7086,3.7412,3.7186,3.7563,3.804,3.8617,3.804,3.804,3.8617,3.8617,3.8818,3.9195,3.9371,3.9346,3.922,3.9546,3.9597,3.9471,3.9622,3.9697,3.9697,3.9697,3.9697,3.98,4.0693,4.1019,4.1019,6.3079,6.3079,6.3079,6.3079,6.3079,6.3079,6.3079,6.3079,6.3079,6.3079,6.3079,6.3079,6.3079,6.3079,6.3079,6.3079,6.2839,6.2241,6.1194,6.0475,5.9787,5.9129,5.9099,5.88,5.8141,5.8112,5.7483,5.6218,5.6555,5.6196,5.5209,5.5598,5.5448,5.479,5.4371,5.4072,5.3773,5.3354,5.3025,5.2755,5.2366,5.1798,5.1169,5.0734,5.0541,5.0361,4.9853,4.9823,4.9883,4.8985,4.8686,4.8596,4.8207,4.8087,4.8087,4.8087,4.8087,4.8027,4.7758,4.7878,4.7967,4.7429,4.7309,4.7309,4.7309,4.701,4.683,4.7219,4.6651,4.6202,4.6621,4.6172,4.5783,4.6052,4.5633,4.5394,4.5663,4.5454,4.5304,4.5304,4.4945,4.4512,4.4098,4.1966,4.0121,3.8933,3.8023,3.7262,3.6757,3.7538,3.7965,3.7864,3.8165,3.8617,3.9195,3.8843,3.8843,3.9195,3.9195,3.9371,3.9697,3.9697,3.9697,3.9697,3.9697,3.9697,3.9697,3.9697,3.9981,4.0465,4.0465,4.0743,4.1219,4.1518,4.1591,4.1541,6.3079,6.3079,6.3079,6.3079,6.3079,6.3079,6.3079,6.3079,6.3079,6.3079,6.3079,6.3079,6.3079,6.3079,6.3079,6.3079,6.248,6.1822,6.1164,6.0475,5.9787,5.9129,5.9099,5.883,5.8231,5.8201,5.7603,5.6346,5.6346,5.5987,5.5269,5.5269,5.494,5.4311,5.4311,5.3952,5.3354,5.3354,5.3025,5.2456,5.2396,5.2007,5.1468,5.1409,5.1768,5.2127,5.0823,5.0764,5.1109,4.9793,4.9359,4.9299,4.9299,4.9299,4.9299,4.9299,4.9299,4.9179,4.858,4.885,4.903,4.7788,4.7489,4.7459,4.7339,4.7309,4.7309,4.7309,4.7309,4.7309,4.7309,4.68,4.6621,4.7219,4.6292,4.5693,4.6322,4.5873,4.5484,4.5484,4.5424,4.4988,4.3907,4.2636,4.0638,3.7648,3.796,3.7986,3.7287,3.7839,3.8366,3.8894,3.8969,3.9195,3.9697,3.9697,3.9697,3.9697,3.9697,3.9697,3.9697,3.9697,3.9697,3.9697,3.9697,3.9749,3.9878,3.9878,4.0592,4.1789,4.1789,4.2496,4.3361,4.2301,4.1936,4.1739,6.3079,6.3079,6.3079,6.3079,6.3079,6.3079,6.3079,6.3079,6.3079,6.3079,6.3079,6.3079,6.3079,6.3079,6.3079,6.3079,6.248,6.1822,6.1164,6.0475,5.9787,5.9129,5.9099,5.9039,5.889,5.889,5.8501,5.7693,5.7693,5.7094,5.5957,5.5957,5.5598,5.497,5.497,5.488,5.476,5.476,5.467,5.4491,5.3982,5.3683,5.3503,5.2965,5.2845,5.2875,5.2067,5.1858,5.1798,5.0481,4.9673,4.9299,4.9299,4.9299,4.9299,4.9299,4.9299,4.9269,4.9149,4.9209,4.9239,4.897,4.888,4.8566,4.7549,4.7309,4.7309,4.7309,4.7309,4.7309,4.7309,4.7189,4.713,4.7279,4.707,4.692,4.707,4.695,4.686,4.686,4.6411,4.5985,4.5743,4.4182,4.2122,3.9523,3.9882,3.9501,3.7913,3.8793,3.9195,3.8919,3.9295,3.9572,3.9697,3.9697,3.9697,3.9697,3.9697,3.9697,3.9697,3.9697,3.9697,3.9697,3.9697,4.0262,4.1169,4.1169,4.1936,4.3074,4.3074,4.3266,4.3598,4.4303,4.4581,4.4396,6.3079,6.3079,6.3079,6.3079,6.3079,6.3079,6.3079,6.3079,6.3079,6.3079,6.3079,6.3079,6.3079,6.3079,6.3079,6.3079,6.275,6.2271,6.1613,6.1253,6.0595,5.9608,5.9578,5.9428,5.9129,5.9099,5.877,5.8112,5.7782,5.7124,5.6218,5.5837,5.5538,5.5179,5.5179,5.5179,5.5179,5.5179,5.4999,5.47,5.4341,5.4012,5.3683,5.3324,5.3384,5.3593,5.2905,5.2456,5.2037,5.1003,5.0481,5.0212,5.0212,5.0212,5.0212,5.0212,5.0212,5.0122,4.9823,4.9972,5.0062,4.9479,4.9494,4.9464,4.8476,4.8237,4.8237,4.8237,4.8237,4.8147,4.7848,4.7788,4.7668,4.7369,4.7309,4.7309,4.7309,4.7309,4.7309,4.7309,4.701,4.6556,4.5932,4.5039,4.3551,4.1381,4.1186,4.0661,3.9429,3.9576,3.9572,3.927,3.9546,3.9697,3.9697,3.9697,3.9697,3.9697,3.9697,3.9697,3.9697,3.9697,3.9697,3.9749,4.0364,4.0995,4.164,4.2279,4.3266,4.4396,4.4396,4.4794,4.5298,4.5389,4.5024,4.4396,6.3079,6.3079,6.3079,6.3079,6.3079,6.3079,6.3079,6.3079,6.3079,6.3079,6.3079,6.3079,6.3079,6.3079,6.3079,6.3079,6.2989,6.266,6.2121,6.1882,6.1313,6.0296,6.0146,5.9877,5.9458,5.9338,5.8949,5.8291,5.7603,5.7004,5.6496,5.5718,5.5359,5.5359,5.5239,5.5179,5.5179,5.5179,5.488,5.4371,5.4371,5.4042,5.3533,5.3533,5.3892,5.4281,5.3593,5.2845,5.2127,5.1558,5.1319,5.1229,5.1229,5.1229,5.1229,5.1229,5.1229,5.1109,5.0495,5.0764,5.096,4.9883,5.0002,5.0226,4.9733,4.9479,4.9299,4.9299,4.9299,4.9149,4.8566,4.8446,4.8237,4.7578,4.7489,4.7429,4.7309,4.7309,4.7309,4.7309,4.7309,4.6887,4.5824,4.5734,4.4932,4.2972,4.2274,4.1527,4.0687,4.0007,3.9697,3.9697,3.9697,3.9697,3.9697,3.9697,3.9697,3.9697,3.9697,3.9697,3.9697,3.9697,3.9697,3.98,4.1019,4.1739,4.2035,4.3313,4.4581,4.5734,4.5734,4.6344,4.7149,4.6121,4.507,4.4116,6.3079,6.3079,6.3079,6.3079,6.3079,6.3079,6.3079,6.3079,6.3079,6.3079,6.3079,6.3079,6.3079,6.3079,6.3079,6.3079,6.257,6.2181,6.2091,6.1014,6.0535,6.0954,6.0416,6.0326,6.0835,6.0266,5.9638,5.8979,5.8321,5.7932,5.7842,5.6615,5.6047,5.6068,5.5448,5.5179,5.5179,5.5179,5.5149,5.5059,5.5059,5.4999,5.491,5.491,5.497,5.497,5.4311,5.3264,5.2187,5.2097,5.1678,5.1229,5.1229,5.1229,5.1229,5.1229,5.1229,5.1199,5.1109,5.1139,5.1169,5.099,5.102,5.105,5.096,5.0092,4.9299,4.9299,4.9299,4.9269,4.9209,4.9179,4.897,4.8267,4.8147,4.7967,4.7399,4.7309,4.7309,4.7309,4.7309,4.7222,4.7062,4.7019,4.6018,4.3582,4.3306,4.2226,3.9956,3.975,3.9697,3.9697,3.9697,3.9697,3.9697,3.9697,3.9697,3.9697,3.9697,3.9697,3.9697,3.9697,3.9697,3.98,4.1019,4.223,4.3361,4.4627,4.5869,4.7019,4.7019,4.7149,4.7266,4.7106,4.6931,4.6638,6.3079,6.3079,6.3079,6.3079,6.3079,6.3079,6.3079,6.3079,6.3079,6.3079,6.3079,6.3079,6.3079,6.3079,6.3079,6.3079,6.281,6.266,6.266,6.2091,6.1732,6.1672,6.1014,6.0625,6.0535,5.9877,5.9398,5.9099,5.8441,5.8112,5.8082,5.6795,5.6218,5.6188,5.5478,5.5179,5.5179,5.5179,5.5179,5.5179,5.5179,5.5179,5.5179,5.5179,5.5179,5.5089,5.4431,5.3832,5.3264,5.2875,5.2546,5.2247,5.1887,5.2007,5.2247,5.1887,5.1768,5.1858,5.2217,5.2037,5.1858,5.2217,5.2037,5.1768,5.1768,5.105,5.0361,5.0361,5.0361,5.0242,4.9883,4.9793,4.9583,4.8925,4.8536,4.8177,4.7908,4.7549,4.7309,4.7309,4.7309,4.7309,4.7309,4.7309,4.6814,4.5734,4.4978,4.4069,4.293,4.1541,4.0743,4.0743,4.0083,3.9697,3.9697,3.9697,3.9697,3.9697,3.9697,3.9697,3.9697,3.9697,4.0083,4.0844,4.2133,4.3361,4.4627,4.5913,4.677,4.7309,4.7309,4.7309,4.7309,4.7309,4.7309,4.7222]}]]